<?xml version="1.0" encoding="utf-8"?>
<gpx xmlns:xsi="http://www.w3.org/2001/XMLSchema-instance" xmlns:xsd="http://www.w3.org/2001/XMLSchema" version="1.1" creator="Shapelink.com" xmlns="http://www.topografix.com/GPX/1/1" xmlns:gpxtpx="http://www.garmin.com/xmlschemas/TrackPointExtension/v1">
  <metadata>
    <name>Sykling 62.26 km, 2012-08-05</name>
    <desc></desc>
    <author><name>Mikael Blom</name></author> 
    <time>2012-08-05T13:57:39Z</time>
  </metadata>
  <trk>
    <name>Sykling 62.26 km, 2012-08-05</name>
    <trkseg>
      <trkpt lat="59.9780565" lon="17.7391089">
        <ele>32.3416</ele>
        <time>2012-08-05T13:57:39Z</time>
      </trkpt>
      <trkpt lat="59.9777387" lon="17.7389798">
        <ele>31.3801</ele>
        <time>2012-08-05T13:57:44Z</time>
      </trkpt>
      <trkpt lat="59.9775054" lon="17.738987">
        <ele>28.4962</ele>
        <time>2012-08-05T13:57:47Z</time>
      </trkpt>
      <trkpt lat="59.9769975" lon="17.7392303">
        <ele>23.209</ele>
        <time>2012-08-05T13:57:53Z</time>
      </trkpt>
      <trkpt lat="59.9766631" lon="17.7393844">
        <ele>19.3638</ele>
        <time>2012-08-05T13:57:57Z</time>
      </trkpt>
      <trkpt lat="59.9763578" lon="17.7397075">
        <ele>16.4797</ele>
        <time>2012-08-05T13:58:01Z</time>
      </trkpt>
      <trkpt lat="59.9762197" lon="17.7396856">
        <ele>16.4797</ele>
        <time>2012-08-05T13:58:03Z</time>
      </trkpt>
      <trkpt lat="59.9760775" lon="17.7394808">
        <ele>17.4412</ele>
        <time>2012-08-05T13:58:05Z</time>
      </trkpt>
      <trkpt lat="59.9754671" lon="17.7384036">
        <ele>17.4412</ele>
        <time>2012-08-05T13:58:14Z</time>
      </trkpt>
      <trkpt lat="59.9750558" lon="17.737654">
        <ele>20.325</ele>
        <time>2012-08-05T13:58:21Z</time>
      </trkpt>
      <trkpt lat="59.9747678" lon="17.7370158">
        <ele>21.2864</ele>
        <time>2012-08-05T13:58:27Z</time>
      </trkpt>
      <trkpt lat="59.974518" lon="17.7361499">
        <ele>20.8057</ele>
        <time>2012-08-05T13:58:34Z</time>
      </trkpt>
      <trkpt lat="59.9743984" lon="17.7353848">
        <ele>26.0929</ele>
        <time>2012-08-05T13:58:40Z</time>
      </trkpt>
      <trkpt lat="59.974351" lon="17.734325">
        <ele>31.3801</ele>
        <time>2012-08-05T13:58:48Z</time>
      </trkpt>
      <trkpt lat="59.9744096" lon="17.7332694">
        <ele>35.2255</ele>
        <time>2012-08-05T13:58:56Z</time>
      </trkpt>
      <trkpt lat="59.9744168" lon="17.7322085">
        <ele>36.6675</ele>
        <time>2012-08-05T13:59:04Z</time>
      </trkpt>
      <trkpt lat="59.974433" lon="17.7309945">
        <ele>40.0321</ele>
        <time>2012-08-05T13:59:13Z</time>
      </trkpt>
      <trkpt lat="59.9745112" lon="17.7299742">
        <ele>40.0321</ele>
        <time>2012-08-05T13:59:21Z</time>
      </trkpt>
      <trkpt lat="59.9745295" lon="17.7291151">
        <ele>39.0707</ele>
        <time>2012-08-05T13:59:28Z</time>
      </trkpt>
      <trkpt lat="59.9745044" lon="17.7280937">
        <ele>40.0321</ele>
        <time>2012-08-05T13:59:36Z</time>
      </trkpt>
      <trkpt lat="59.9744847" lon="17.7273293">
        <ele>41.474</ele>
        <time>2012-08-05T13:59:42Z</time>
      </trkpt>
      <trkpt lat="59.9744689" lon="17.7265651">
        <ele>36.6675</ele>
        <time>2012-08-05T13:59:49Z</time>
      </trkpt>
      <trkpt lat="59.9744314" lon="17.7259164">
        <ele>32.8223</ele>
        <time>2012-08-05T13:59:54Z</time>
      </trkpt>
      <trkpt lat="59.9743382" lon="17.7250187">
        <ele>30.8995</ele>
        <time>2012-08-05T14:00:01Z</time>
      </trkpt>
      <trkpt lat="59.9741467" lon="17.7237125">
        <ele>29.9381</ele>
        <time>2012-08-05T14:00:11Z</time>
      </trkpt>
      <trkpt lat="59.9740006" lon="17.7229053">
        <ele>28.9769</ele>
        <time>2012-08-05T14:00:18Z</time>
      </trkpt>
      <trkpt lat="59.9737891" lon="17.7221559">
        <ele>26.0929</ele>
        <time>2012-08-05T14:00:25Z</time>
      </trkpt>
      <trkpt lat="59.9734878" lon="17.7214067">
        <ele>23.209</ele>
        <time>2012-08-05T14:00:33Z</time>
      </trkpt>
      <trkpt lat="59.9731473" lon="17.7207962">
        <ele>18.4023</ele>
        <time>2012-08-05T14:00:41Z</time>
      </trkpt>
      <trkpt lat="59.9727519" lon="17.7203071">
        <ele>14.557</ele>
        <time>2012-08-05T14:00:50Z</time>
      </trkpt>
      <trkpt lat="59.972378" lon="17.7199611">
        <ele>12.6344</ele>
        <time>2012-08-05T14:00:58Z</time>
      </trkpt>
      <trkpt lat="59.9718528" lon="17.7194866">
        <ele>13.5958</ele>
        <time>2012-08-05T14:01:09Z</time>
      </trkpt>
      <trkpt lat="59.9713747" lon="17.7190556">
        <ele>14.0764</ele>
        <time>2012-08-05T14:01:19Z</time>
      </trkpt>
      <trkpt lat="59.9709593" lon="17.7186825">
        <ele>15.0377</ele>
        <time>2012-08-05T14:01:28Z</time>
      </trkpt>
      <trkpt lat="59.9705478" lon="17.7183089">
        <ele>15.0377</ele>
        <time>2012-08-05T14:01:37Z</time>
      </trkpt>
      <trkpt lat="59.9700824" lon="17.7178986">
        <ele>16.4797</ele>
        <time>2012-08-05T14:01:47Z</time>
      </trkpt>
      <trkpt lat="59.9696285" lon="17.7175382">
        <ele>16.9604</ele>
        <time>2012-08-05T14:01:56Z</time>
      </trkpt>
      <trkpt lat="59.9691701" lon="17.717314">
        <ele>17.9218</ele>
        <time>2012-08-05T14:02:05Z</time>
      </trkpt>
      <trkpt lat="59.9687277" lon="17.7171281">
        <ele>19.8444</ele>
        <time>2012-08-05T14:02:13Z</time>
      </trkpt>
      <trkpt lat="59.9683087" lon="17.7168669">
        <ele>18.8831</ele>
        <time>2012-08-05T14:02:20Z</time>
      </trkpt>
      <trkpt lat="59.9679812" lon="17.716468">
        <ele>19.8444</ele>
        <time>2012-08-05T14:02:25Z</time>
      </trkpt>
      <trkpt lat="59.9679164" lon="17.7163578">
        <ele>19.8444</ele>
        <time>2012-08-05T14:02:26Z</time>
      </trkpt>
      <trkpt lat="59.9676953" lon="17.7158127">
        <ele>18.8831</ele>
        <time>2012-08-05T14:02:30Z</time>
      </trkpt>
      <trkpt lat="59.9675143" lon="17.7148136">
        <ele>17.9218</ele>
        <time>2012-08-05T14:02:36Z</time>
      </trkpt>
      <trkpt lat="59.9674267" lon="17.7141023">
        <ele>18.4023</ele>
        <time>2012-08-05T14:02:41Z</time>
      </trkpt>
      <trkpt lat="59.9673642" lon="17.7136148">
        <ele>20.325</ele>
        <time>2012-08-05T14:02:46Z</time>
      </trkpt>
      <trkpt lat="59.9672797" lon="17.7130403">
        <ele>24.1703</ele>
        <time>2012-08-05T14:02:54Z</time>
      </trkpt>
      <trkpt lat="59.9671062" lon="17.7123981">
        <ele>24.1703</ele>
        <time>2012-08-05T14:03:03Z</time>
      </trkpt>
      <trkpt lat="59.9669067" lon="17.7118806">
        <ele>27.0543</ele>
        <time>2012-08-05T14:03:10Z</time>
      </trkpt>
      <trkpt lat="59.9666911" lon="17.711262">
        <ele>29.9381</ele>
        <time>2012-08-05T14:03:17Z</time>
      </trkpt>
      <trkpt lat="59.9665218" lon="17.7106698">
        <ele>30.4188</ele>
        <time>2012-08-05T14:03:23Z</time>
      </trkpt>
      <trkpt lat="59.9663035" lon="17.7098831">
        <ele>30.4188</ele>
        <time>2012-08-05T14:03:30Z</time>
      </trkpt>
      <trkpt lat="59.9660735" lon="17.7090917">
        <ele>29.9381</ele>
        <time>2012-08-05T14:03:37Z</time>
      </trkpt>
      <trkpt lat="59.9658558" lon="17.7084824">
        <ele>28.9769</ele>
        <time>2012-08-05T14:03:43Z</time>
      </trkpt>
      <trkpt lat="59.9655926" lon="17.7080477">
        <ele>27.0543</ele>
        <time>2012-08-05T14:03:49Z</time>
      </trkpt>
      <trkpt lat="59.9651964" lon="17.7076999">
        <ele>23.6896</ele>
        <time>2012-08-05T14:03:57Z</time>
      </trkpt>
      <trkpt lat="59.9647652" lon="17.7073894">
        <ele>22.7283</ele>
        <time>2012-08-05T14:04:06Z</time>
      </trkpt>
      <trkpt lat="59.9643836" lon="17.7072123">
        <ele>21.2864</ele>
        <time>2012-08-05T14:04:14Z</time>
      </trkpt>
      <trkpt lat="59.963904" lon="17.7070987">
        <ele>20.8057</ele>
        <time>2012-08-05T14:04:23Z</time>
      </trkpt>
      <trkpt lat="59.9634331" lon="17.7070367">
        <ele>17.4412</ele>
        <time>2012-08-05T14:04:31Z</time>
      </trkpt>
      <trkpt lat="59.9630176" lon="17.7070311">
        <ele>16.9604</ele>
        <time>2012-08-05T14:04:38Z</time>
      </trkpt>
      <trkpt lat="59.9625545" lon="17.7069735">
        <ele>16.4797</ele>
        <time>2012-08-05T14:04:46Z</time>
      </trkpt>
      <trkpt lat="59.9620627" lon="17.7067257">
        <ele>19.3638</ele>
        <time>2012-08-05T14:04:55Z</time>
      </trkpt>
      <trkpt lat="59.9616816" lon="17.7063971">
        <ele>20.8057</ele>
        <time>2012-08-05T14:05:02Z</time>
      </trkpt>
      <trkpt lat="59.9614298" lon="17.7060165">
        <ele>21.767</ele>
        <time>2012-08-05T14:05:07Z</time>
      </trkpt>
      <trkpt lat="59.9610539" lon="17.7053362">
        <ele>24.1703</ele>
        <time>2012-08-05T14:05:15Z</time>
      </trkpt>
      <trkpt lat="59.9606596" lon="17.7048014">
        <ele>23.6896</ele>
        <time>2012-08-05T14:05:22Z</time>
      </trkpt>
      <trkpt lat="59.9602368" lon="17.7043684">
        <ele>26.0929</ele>
        <time>2012-08-05T14:05:29Z</time>
      </trkpt>
      <trkpt lat="59.959994" lon="17.7038711">
        <ele>28.4962</ele>
        <time>2012-08-05T14:05:34Z</time>
      </trkpt>
      <trkpt lat="59.9597737" lon="17.7030609">
        <ele>31.3801</ele>
        <time>2012-08-05T14:05:41Z</time>
      </trkpt>
      <trkpt lat="59.9595117" lon="17.7021458">
        <ele>31.8607</ele>
        <time>2012-08-05T14:05:49Z</time>
      </trkpt>
      <trkpt lat="59.9593105" lon="17.701261">
        <ele>31.8607</ele>
        <time>2012-08-05T14:05:56Z</time>
      </trkpt>
      <trkpt lat="59.9591992" lon="17.7003189">
        <ele>30.8995</ele>
        <time>2012-08-05T14:06:03Z</time>
      </trkpt>
      <trkpt lat="59.9591187" lon="17.6992405">
        <ele>30.8995</ele>
        <time>2012-08-05T14:06:11Z</time>
      </trkpt>
      <trkpt lat="59.9591004" lon="17.6983782">
        <ele>33.7834</ele>
        <time>2012-08-05T14:06:18Z</time>
      </trkpt>
      <trkpt lat="59.9590334" lon="17.6975751">
        <ele>31.8607</ele>
        <time>2012-08-05T14:06:24Z</time>
      </trkpt>
      <trkpt lat="59.9588609" lon="17.6966805">
        <ele>32.8223</ele>
        <time>2012-08-05T14:06:30Z</time>
      </trkpt>
      <trkpt lat="59.9585532" lon="17.6957968">
        <ele>31.8607</ele>
        <time>2012-08-05T14:06:37Z</time>
      </trkpt>
      <trkpt lat="59.9582007" lon="17.6948907">
        <ele>33.3029</ele>
        <time>2012-08-05T14:06:45Z</time>
      </trkpt>
      <trkpt lat="59.9579456" lon="17.6941876">
        <ele>33.7834</ele>
        <time>2012-08-05T14:06:51Z</time>
      </trkpt>
      <trkpt lat="59.9574849" lon="17.6928877">
        <ele>34.2642</ele>
        <time>2012-08-05T14:07:02Z</time>
      </trkpt>
      <trkpt lat="59.9572069" lon="17.6920712">
        <ele>34.2642</ele>
        <time>2012-08-05T14:07:09Z</time>
      </trkpt>
      <trkpt lat="59.9569191" lon="17.6912276">
        <ele>34.7449</ele>
        <time>2012-08-05T14:07:16Z</time>
      </trkpt>
      <trkpt lat="59.9566978" lon="17.6905794">
        <ele>36.1868</ele>
        <time>2012-08-05T14:07:22Z</time>
      </trkpt>
      <trkpt lat="59.956578" lon="17.6903106">
        <ele>36.1868</ele>
        <time>2012-08-05T14:07:25Z</time>
      </trkpt>
      <trkpt lat="59.9564327" lon="17.689959">
        <ele>34.7449</ele>
        <time>2012-08-05T14:07:29Z</time>
      </trkpt>
      <trkpt lat="59.9562467" lon="17.6893358">
        <ele>33.3029</ele>
        <time>2012-08-05T14:07:35Z</time>
      </trkpt>
      <trkpt lat="59.9561167" lon="17.6887199">
        <ele>32.8223</ele>
        <time>2012-08-05T14:07:40Z</time>
      </trkpt>
      <trkpt lat="59.9559885" lon="17.6878314">
        <ele>32.8223</ele>
        <time>2012-08-05T14:07:47Z</time>
      </trkpt>
      <trkpt lat="59.9558426" lon="17.6868614">
        <ele>31.8607</ele>
        <time>2012-08-05T14:07:55Z</time>
      </trkpt>
      <trkpt lat="59.9557128" lon="17.6859846">
        <ele>29.4575</ele>
        <time>2012-08-05T14:08:02Z</time>
      </trkpt>
      <trkpt lat="59.9555386" lon="17.6847928">
        <ele>28.0155</ele>
        <time>2012-08-05T14:08:11Z</time>
      </trkpt>
      <trkpt lat="59.9553013" lon="17.6835526">
        <ele>27.0543</ele>
        <time>2012-08-05T14:08:20Z</time>
      </trkpt>
      <trkpt lat="59.9550672" lon="17.6826648">
        <ele>26.5736</ele>
        <time>2012-08-05T14:08:27Z</time>
      </trkpt>
      <trkpt lat="59.9548762" lon="17.6820871">
        <ele>25.1317</ele>
        <time>2012-08-05T14:08:32Z</time>
      </trkpt>
      <trkpt lat="59.9547203" lon="17.6818018">
        <ele>24.1703</ele>
        <time>2012-08-05T14:08:35Z</time>
      </trkpt>
      <trkpt lat="59.9544326" lon="17.6810599">
        <ele>23.209</ele>
        <time>2012-08-05T14:08:42Z</time>
      </trkpt>
      <trkpt lat="59.9541129" lon="17.6801177">
        <ele>23.209</ele>
        <time>2012-08-05T14:08:50Z</time>
      </trkpt>
      <trkpt lat="59.9537126" lon="17.6789226">
        <ele>23.209</ele>
        <time>2012-08-05T14:09:00Z</time>
      </trkpt>
      <trkpt lat="59.9533863" lon="17.6779306">
        <ele>26.0929</ele>
        <time>2012-08-05T14:09:09Z</time>
      </trkpt>
      <trkpt lat="59.9530133" lon="17.6769173">
        <ele>28.0155</ele>
        <time>2012-08-05T14:09:19Z</time>
      </trkpt>
      <trkpt lat="59.9527134" lon="17.6761384">
        <ele>28.9769</ele>
        <time>2012-08-05T14:09:27Z</time>
      </trkpt>
      <trkpt lat="59.9524633" lon="17.6754857">
        <ele>30.8995</ele>
        <time>2012-08-05T14:09:34Z</time>
      </trkpt>
      <trkpt lat="59.9523312" lon="17.6750784">
        <ele>31.8607</ele>
        <time>2012-08-05T14:09:39Z</time>
      </trkpt>
      <trkpt lat="59.9522534" lon="17.6745673">
        <ele>31.3801</ele>
        <time>2012-08-05T14:09:44Z</time>
      </trkpt>
      <trkpt lat="59.9520683" lon="17.6735501">
        <ele>29.4575</ele>
        <time>2012-08-05T14:09:52Z</time>
      </trkpt>
      <trkpt lat="59.9519089" lon="17.672414">
        <ele>27.0543</ele>
        <time>2012-08-05T14:10:00Z</time>
      </trkpt>
      <trkpt lat="59.9518618" lon="17.6719543">
        <ele>26.0929</ele>
        <time>2012-08-05T14:10:03Z</time>
      </trkpt>
      <trkpt lat="59.9518508" lon="17.6715">
        <ele>25.6123</ele>
        <time>2012-08-05T14:10:06Z</time>
      </trkpt>
      <trkpt lat="59.9517711" lon="17.6708563">
        <ele>23.209</ele>
        <time>2012-08-05T14:10:10Z</time>
      </trkpt>
      <trkpt lat="59.9517778" lon="17.6705098">
        <ele>20.8057</ele>
        <time>2012-08-05T14:10:12Z</time>
      </trkpt>
      <trkpt lat="59.9518405" lon="17.6693991">
        <ele>17.9218</ele>
        <time>2012-08-05T14:10:19Z</time>
      </trkpt>
      <trkpt lat="59.9518533" lon="17.6689837">
        <ele>16.9604</ele>
        <time>2012-08-05T14:10:22Z</time>
      </trkpt>
      <trkpt lat="59.9517861" lon="17.6684299">
        <ele>17.9218</ele>
        <time>2012-08-05T14:10:26Z</time>
      </trkpt>
      <trkpt lat="59.9515344" lon="17.6680566">
        <ele>19.3638</ele>
        <time>2012-08-05T14:10:31Z</time>
      </trkpt>
      <trkpt lat="59.9514075" lon="17.6680606">
        <ele>20.325</ele>
        <time>2012-08-05T14:10:33Z</time>
      </trkpt>
      <trkpt lat="59.9507623" lon="17.6682384">
        <ele>24.651</ele>
        <time>2012-08-05T14:10:44Z</time>
      </trkpt>
      <trkpt lat="59.9502752" lon="17.6682279">
        <ele>24.651</ele>
        <time>2012-08-05T14:10:52Z</time>
      </trkpt>
      <trkpt lat="59.9497776" lon="17.6680688">
        <ele>24.1703</ele>
        <time>2012-08-05T14:11:01Z</time>
      </trkpt>
      <trkpt lat="59.9492276" lon="17.6677788">
        <ele>19.8444</ele>
        <time>2012-08-05T14:11:11Z</time>
      </trkpt>
      <trkpt lat="59.9486097" lon="17.6674483">
        <ele>15.0377</ele>
        <time>2012-08-05T14:11:22Z</time>
      </trkpt>
      <trkpt lat="59.9481296" lon="17.667181">
        <ele>14.557</ele>
        <time>2012-08-05T14:11:31Z</time>
      </trkpt>
      <trkpt lat="59.947686" lon="17.6669572">
        <ele>13.5958</ele>
        <time>2012-08-05T14:11:39Z</time>
      </trkpt>
      <trkpt lat="59.9471555" lon="17.6667131">
        <ele>12.1538</ele>
        <time>2012-08-05T14:11:49Z</time>
      </trkpt>
      <trkpt lat="59.9466657" lon="17.6665264">
        <ele>14.557</ele>
        <time>2012-08-05T14:11:58Z</time>
      </trkpt>
      <trkpt lat="59.9463709" lon="17.6664542">
        <ele>15.5184</ele>
        <time>2012-08-05T14:12:03Z</time>
      </trkpt>
      <trkpt lat="59.9462044" lon="17.6663306">
        <ele>15.999</ele>
        <time>2012-08-05T14:12:06Z</time>
      </trkpt>
      <trkpt lat="59.9456348" lon="17.6660978">
        <ele>15.5184</ele>
        <time>2012-08-05T14:12:16Z</time>
      </trkpt>
      <trkpt lat="59.945121" lon="17.6659036">
        <ele>14.557</ele>
        <time>2012-08-05T14:12:25Z</time>
      </trkpt>
      <trkpt lat="59.94459" lon="17.6657014">
        <ele>14.557</ele>
        <time>2012-08-05T14:12:34Z</time>
      </trkpt>
      <trkpt lat="59.9440028" lon="17.6654523">
        <ele>14.0764</ele>
        <time>2012-08-05T14:12:44Z</time>
      </trkpt>
      <trkpt lat="59.9434517" lon="17.665099">
        <ele>14.557</ele>
        <time>2012-08-05T14:12:54Z</time>
      </trkpt>
      <trkpt lat="59.942967" lon="17.664669">
        <ele>16.9604</ele>
        <time>2012-08-05T14:13:04Z</time>
      </trkpt>
      <trkpt lat="59.9425912" lon="17.6642445">
        <ele>19.8444</ele>
        <time>2012-08-05T14:13:12Z</time>
      </trkpt>
      <trkpt lat="59.9422574" lon="17.6637912">
        <ele>22.2476</ele>
        <time>2012-08-05T14:13:20Z</time>
      </trkpt>
      <trkpt lat="59.9419859" lon="17.6633833">
        <ele>23.6896</ele>
        <time>2012-08-05T14:13:27Z</time>
      </trkpt>
      <trkpt lat="59.9417057" lon="17.6628469">
        <ele>24.1703</ele>
        <time>2012-08-05T14:13:35Z</time>
      </trkpt>
      <trkpt lat="59.9414497" lon="17.6624412">
        <ele>23.6896</ele>
        <time>2012-08-05T14:13:41Z</time>
      </trkpt>
      <trkpt lat="59.9410482" lon="17.6621397">
        <ele>23.6896</ele>
        <time>2012-08-05T14:13:48Z</time>
      </trkpt>
      <trkpt lat="59.9407566" lon="17.662076">
        <ele>23.209</ele>
        <time>2012-08-05T14:13:53Z</time>
      </trkpt>
      <trkpt lat="59.9404821" lon="17.661787">
        <ele>24.1703</ele>
        <time>2012-08-05T14:13:58Z</time>
      </trkpt>
      <trkpt lat="59.9404368" lon="17.6613801">
        <ele>25.1317</ele>
        <time>2012-08-05T14:14:01Z</time>
      </trkpt>
      <trkpt lat="59.9404386" lon="17.6612274">
        <ele>25.1317</ele>
        <time>2012-08-05T14:14:02Z</time>
      </trkpt>
      <trkpt lat="59.9405123" lon="17.6606746">
        <ele>22.7283</ele>
        <time>2012-08-05T14:14:06Z</time>
      </trkpt>
      <trkpt lat="59.9405505" lon="17.6601701">
        <ele>23.6896</ele>
        <time>2012-08-05T14:14:10Z</time>
      </trkpt>
      <trkpt lat="59.9404776" lon="17.6596399">
        <ele>28.4962</ele>
        <time>2012-08-05T14:14:14Z</time>
      </trkpt>
      <trkpt lat="59.9403651" lon="17.6590275">
        <ele>31.8607</ele>
        <time>2012-08-05T14:14:19Z</time>
      </trkpt>
      <trkpt lat="59.940192" lon="17.6581889">
        <ele>34.2642</ele>
        <time>2012-08-05T14:14:26Z</time>
      </trkpt>
      <trkpt lat="59.9400334" lon="17.6574647">
        <ele>36.1868</ele>
        <time>2012-08-05T14:14:33Z</time>
      </trkpt>
      <trkpt lat="59.9398888" lon="17.6567717">
        <ele>35.7061</ele>
        <time>2012-08-05T14:14:40Z</time>
      </trkpt>
      <trkpt lat="59.9396914" lon="17.6558169">
        <ele>36.1868</ele>
        <time>2012-08-05T14:14:50Z</time>
      </trkpt>
      <trkpt lat="59.9394886" lon="17.6548449">
        <ele>36.1868</ele>
        <time>2012-08-05T14:15:00Z</time>
      </trkpt>
      <trkpt lat="59.9393024" lon="17.653875">
        <ele>39.5513</ele>
        <time>2012-08-05T14:15:09Z</time>
      </trkpt>
      <trkpt lat="59.9390968" lon="17.6529452">
        <ele>40.5128</ele>
        <time>2012-08-05T14:15:17Z</time>
      </trkpt>
      <trkpt lat="59.9387876" lon="17.6517928">
        <ele>39.5513</ele>
        <time>2012-08-05T14:15:27Z</time>
      </trkpt>
      <trkpt lat="59.9384542" lon="17.6507825">
        <ele>37.6287</ele>
        <time>2012-08-05T14:15:36Z</time>
      </trkpt>
      <trkpt lat="59.9381852" lon="17.6501134">
        <ele>37.1481</ele>
        <time>2012-08-05T14:15:42Z</time>
      </trkpt>
      <trkpt lat="59.9378904" lon="17.6493649">
        <ele>37.1481</ele>
        <time>2012-08-05T14:15:49Z</time>
      </trkpt>
      <trkpt lat="59.937762" lon="17.6490466">
        <ele>37.6287</ele>
        <time>2012-08-05T14:15:52Z</time>
      </trkpt>
      <trkpt lat="59.937701" lon="17.6488216">
        <ele>37.6287</ele>
        <time>2012-08-05T14:15:54Z</time>
      </trkpt>
      <trkpt lat="59.9375055" lon="17.6483444">
        <ele>38.1094</ele>
        <time>2012-08-05T14:15:59Z</time>
      </trkpt>
      <trkpt lat="59.9372109" lon="17.647942">
        <ele>37.6287</ele>
        <time>2012-08-05T14:16:04Z</time>
      </trkpt>
      <trkpt lat="59.9367763" lon="17.6474555">
        <ele>36.6675</ele>
        <time>2012-08-05T14:16:12Z</time>
      </trkpt>
      <trkpt lat="59.9364411" lon="17.6470424">
        <ele>34.2642</ele>
        <time>2012-08-05T14:16:18Z</time>
      </trkpt>
      <trkpt lat="59.9359875" lon="17.6465091">
        <ele>35.2255</ele>
        <time>2012-08-05T14:16:26Z</time>
      </trkpt>
      <trkpt lat="59.9355233" lon="17.645981">
        <ele>33.3029</ele>
        <time>2012-08-05T14:16:34Z</time>
      </trkpt>
      <trkpt lat="59.9353464" lon="17.6457892">
        <ele>33.3029</ele>
        <time>2012-08-05T14:16:37Z</time>
      </trkpt>
      <trkpt lat="59.9349605" lon="17.6453201">
        <ele>34.7449</ele>
        <time>2012-08-05T14:16:44Z</time>
      </trkpt>
      <trkpt lat="59.9346095" lon="17.6449132">
        <ele>32.8223</ele>
        <time>2012-08-05T14:16:50Z</time>
      </trkpt>
      <trkpt lat="59.9343464" lon="17.6444543">
        <ele>30.4188</ele>
        <time>2012-08-05T14:16:55Z</time>
      </trkpt>
      <trkpt lat="59.933863" lon="17.6438355">
        <ele>28.9769</ele>
        <time>2012-08-05T14:17:02Z</time>
      </trkpt>
      <trkpt lat="59.9334396" lon="17.6434007">
        <ele>30.8995</ele>
        <time>2012-08-05T14:17:08Z</time>
      </trkpt>
      <trkpt lat="59.9331169" lon="17.6428579">
        <ele>30.4188</ele>
        <time>2012-08-05T14:17:13Z</time>
      </trkpt>
      <trkpt lat="59.9329736" lon="17.642663">
        <ele>29.4575</ele>
        <time>2012-08-05T14:17:15Z</time>
      </trkpt>
      <trkpt lat="59.932801" lon="17.6423388">
        <ele>28.9769</ele>
        <time>2012-08-05T14:17:18Z</time>
      </trkpt>
      <trkpt lat="59.9323758" lon="17.6418545">
        <ele>27.0543</ele>
        <time>2012-08-05T14:17:24Z</time>
      </trkpt>
      <trkpt lat="59.9320292" lon="17.6415446">
        <ele>27.0543</ele>
        <time>2012-08-05T14:17:29Z</time>
      </trkpt>
      <trkpt lat="59.9314753" lon="17.6411779">
        <ele>24.1703</ele>
        <time>2012-08-05T14:17:37Z</time>
      </trkpt>
      <trkpt lat="59.9310477" lon="17.6408811">
        <ele>21.2864</ele>
        <time>2012-08-05T14:17:43Z</time>
      </trkpt>
      <trkpt lat="59.9309689" lon="17.640835">
        <ele>20.8057</ele>
        <time>2012-08-05T14:17:44Z</time>
      </trkpt>
      <trkpt lat="59.9306011" lon="17.6408129">
        <ele>19.3638</ele>
        <time>2012-08-05T14:17:49Z</time>
      </trkpt>
      <trkpt lat="59.9301516" lon="17.6408247">
        <ele>17.9218</ele>
        <time>2012-08-05T14:17:55Z</time>
      </trkpt>
      <trkpt lat="59.9296359" lon="17.6408712">
        <ele>16.4797</ele>
        <time>2012-08-05T14:18:02Z</time>
      </trkpt>
      <trkpt lat="59.9290775" lon="17.6409309">
        <ele>15.0377</ele>
        <time>2012-08-05T14:18:10Z</time>
      </trkpt>
      <trkpt lat="59.9286314" lon="17.6410156">
        <ele>14.0764</ele>
        <time>2012-08-05T14:18:17Z</time>
      </trkpt>
      <trkpt lat="59.9281581" lon="17.6410812">
        <ele>13.5958</ele>
        <time>2012-08-05T14:18:25Z</time>
      </trkpt>
      <trkpt lat="59.9275794" lon="17.6411359">
        <ele>13.1151</ele>
        <time>2012-08-05T14:18:35Z</time>
      </trkpt>
      <trkpt lat="59.9269557" lon="17.6411825">
        <ele>12.6344</ele>
        <time>2012-08-05T14:18:46Z</time>
      </trkpt>
      <trkpt lat="59.9264097" lon="17.6412551">
        <ele>11.6732</ele>
        <time>2012-08-05T14:18:55Z</time>
      </trkpt>
      <trkpt lat="59.925763" lon="17.6413406">
        <ele>11.6732</ele>
        <time>2012-08-05T14:19:06Z</time>
      </trkpt>
      <trkpt lat="59.9252828" lon="17.6413979">
        <ele>11.1925</ele>
        <time>2012-08-05T14:19:15Z</time>
      </trkpt>
      <trkpt lat="59.9248248" lon="17.6414621">
        <ele>7.82788</ele>
        <time>2012-08-05T14:19:23Z</time>
      </trkpt>
      <trkpt lat="59.9243426" lon="17.6415433">
        <ele>8.78918</ele>
        <time>2012-08-05T14:19:32Z</time>
      </trkpt>
      <trkpt lat="59.9237369" lon="17.6415815">
        <ele>10.7118</ele>
        <time>2012-08-05T14:19:43Z</time>
      </trkpt>
      <trkpt lat="59.923572" lon="17.6416063">
        <ele>10.7118</ele>
        <time>2012-08-05T14:19:46Z</time>
      </trkpt>
      <trkpt lat="59.9233252" lon="17.6416379">
        <ele>13.5958</ele>
        <time>2012-08-05T14:19:51Z</time>
      </trkpt>
      <trkpt lat="59.922675" lon="17.6417151">
        <ele>16.4797</ele>
        <time>2012-08-05T14:20:04Z</time>
      </trkpt>
      <trkpt lat="59.9222254" lon="17.6417963">
        <ele>12.1538</ele>
        <time>2012-08-05T14:20:12Z</time>
      </trkpt>
      <trkpt lat="59.9216499" lon="17.6418615">
        <ele>12.1538</ele>
        <time>2012-08-05T14:20:22Z</time>
      </trkpt>
      <trkpt lat="59.9213122" lon="17.6418822">
        <ele>19.8444</ele>
        <time>2012-08-05T14:20:28Z</time>
      </trkpt>
      <trkpt lat="59.9208871" lon="17.6419206">
        <ele>21.2864</ele>
        <time>2012-08-05T14:20:34Z</time>
      </trkpt>
      <trkpt lat="59.9203187" lon="17.6419239">
        <ele>24.1703</ele>
        <time>2012-08-05T14:20:42Z</time>
      </trkpt>
      <trkpt lat="59.9198551" lon="17.6419644">
        <ele>22.2476</ele>
        <time>2012-08-05T14:20:49Z</time>
      </trkpt>
      <trkpt lat="59.9192772" lon="17.6420575">
        <ele>18.8831</ele>
        <time>2012-08-05T14:20:58Z</time>
      </trkpt>
      <trkpt lat="59.918698" lon="17.6421319">
        <ele>16.4797</ele>
        <time>2012-08-05T14:21:07Z</time>
      </trkpt>
      <trkpt lat="59.9181037" lon="17.6421891">
        <ele>17.9218</ele>
        <time>2012-08-05T14:21:16Z</time>
      </trkpt>
      <trkpt lat="59.9175501" lon="17.6422135">
        <ele>18.4023</ele>
        <time>2012-08-05T14:21:24Z</time>
      </trkpt>
      <trkpt lat="59.917209" lon="17.6422186">
        <ele>19.8444</ele>
        <time>2012-08-05T14:21:29Z</time>
      </trkpt>
      <trkpt lat="59.9167462" lon="17.6423181">
        <ele>20.325</ele>
        <time>2012-08-05T14:21:36Z</time>
      </trkpt>
      <trkpt lat="59.9162134" lon="17.6423744">
        <ele>21.767</ele>
        <time>2012-08-05T14:21:45Z</time>
      </trkpt>
      <trkpt lat="59.9157223" lon="17.642399">
        <ele>20.8057</ele>
        <time>2012-08-05T14:21:52Z</time>
      </trkpt>
      <trkpt lat="59.9152644" lon="17.6425565">
        <ele>20.325</ele>
        <time>2012-08-05T14:21:58Z</time>
      </trkpt>
      <trkpt lat="59.9151333" lon="17.6426315">
        <ele>19.8444</ele>
        <time>2012-08-05T14:22:00Z</time>
      </trkpt>
      <trkpt lat="59.9145707" lon="17.6427287">
        <ele>17.4412</ele>
        <time>2012-08-05T14:22:09Z</time>
      </trkpt>
      <trkpt lat="59.9141376" lon="17.6428103">
        <ele>16.9604</ele>
        <time>2012-08-05T14:22:16Z</time>
      </trkpt>
      <trkpt lat="59.9138071" lon="17.6428604">
        <ele>18.8831</ele>
        <time>2012-08-05T14:22:22Z</time>
      </trkpt>
      <trkpt lat="59.9132544" lon="17.6429655">
        <ele>20.8057</ele>
        <time>2012-08-05T14:22:32Z</time>
      </trkpt>
      <trkpt lat="59.9128442" lon="17.6429923">
        <ele>17.9218</ele>
        <time>2012-08-05T14:22:39Z</time>
      </trkpt>
      <trkpt lat="59.912781" lon="17.6430037">
        <ele>17.9218</ele>
        <time>2012-08-05T14:22:40Z</time>
      </trkpt>
      <trkpt lat="59.912506" lon="17.6429681">
        <ele>18.4023</ele>
        <time>2012-08-05T14:22:44Z</time>
      </trkpt>
      <trkpt lat="59.9120397" lon="17.6430971">
        <ele>20.325</ele>
        <time>2012-08-05T14:22:51Z</time>
      </trkpt>
      <trkpt lat="59.911534" lon="17.64321">
        <ele>19.8444</ele>
        <time>2012-08-05T14:22:59Z</time>
      </trkpt>
      <trkpt lat="59.9111104" lon="17.6433293">
        <ele>21.2864</ele>
        <time>2012-08-05T14:23:06Z</time>
      </trkpt>
      <trkpt lat="59.9106539" lon="17.6433992">
        <ele>21.767</ele>
        <time>2012-08-05T14:23:13Z</time>
      </trkpt>
      <trkpt lat="59.910461" lon="17.6434821">
        <ele>22.7283</ele>
        <time>2012-08-05T14:23:16Z</time>
      </trkpt>
      <trkpt lat="59.9100841" lon="17.6435327">
        <ele>24.1703</ele>
        <time>2012-08-05T14:23:22Z</time>
      </trkpt>
      <trkpt lat="59.9099398" lon="17.6434841">
        <ele>23.6896</ele>
        <time>2012-08-05T14:23:24Z</time>
      </trkpt>
      <trkpt lat="59.9094776" lon="17.64353">
        <ele>21.2864</ele>
        <time>2012-08-05T14:23:30Z</time>
      </trkpt>
      <trkpt lat="59.9090077" lon="17.6435924">
        <ele>21.767</ele>
        <time>2012-08-05T14:23:37Z</time>
      </trkpt>
      <trkpt lat="59.908419" lon="17.6435982">
        <ele>22.2476</ele>
        <time>2012-08-05T14:23:47Z</time>
      </trkpt>
      <trkpt lat="59.9080609" lon="17.6435933">
        <ele>21.767</ele>
        <time>2012-08-05T14:23:53Z</time>
      </trkpt>
      <trkpt lat="59.9074688" lon="17.6435238">
        <ele>20.325</ele>
        <time>2012-08-05T14:24:02Z</time>
      </trkpt>
      <trkpt lat="59.906813" lon="17.6434007">
        <ele>19.3638</ele>
        <time>2012-08-05T14:24:12Z</time>
      </trkpt>
      <trkpt lat="59.906243" lon="17.6432084">
        <ele>18.4023</ele>
        <time>2012-08-05T14:24:21Z</time>
      </trkpt>
      <trkpt lat="59.9057595" lon="17.6429929">
        <ele>16.4797</ele>
        <time>2012-08-05T14:24:28Z</time>
      </trkpt>
      <trkpt lat="59.9055578" lon="17.6429023">
        <ele>17.4412</ele>
        <time>2012-08-05T14:24:31Z</time>
      </trkpt>
      <trkpt lat="59.9054196" lon="17.6428913">
        <ele>17.4412</ele>
        <time>2012-08-05T14:24:33Z</time>
      </trkpt>
      <trkpt lat="59.9050319" lon="17.642729">
        <ele>16.9604</ele>
        <time>2012-08-05T14:24:39Z</time>
      </trkpt>
      <trkpt lat="59.9048311" lon="17.6426335">
        <ele>17.4412</ele>
        <time>2012-08-05T14:24:42Z</time>
      </trkpt>
      <trkpt lat="59.9043965" lon="17.642348">
        <ele>16.4797</ele>
        <time>2012-08-05T14:24:49Z</time>
      </trkpt>
      <trkpt lat="59.9040397" lon="17.6421296">
        <ele>17.4412</ele>
        <time>2012-08-05T14:24:56Z</time>
      </trkpt>
      <trkpt lat="59.9039894" lon="17.6420969">
        <ele>17.4412</ele>
        <time>2012-08-05T14:24:57Z</time>
      </trkpt>
      <trkpt lat="59.9037783" lon="17.6420037">
        <ele>17.9218</ele>
        <time>2012-08-05T14:25:01Z</time>
      </trkpt>
      <trkpt lat="59.9035877" lon="17.6419428">
        <ele>17.9218</ele>
        <time>2012-08-05T14:25:05Z</time>
      </trkpt>
      <trkpt lat="59.903334" lon="17.6418139">
        <ele>16.9604</ele>
        <time>2012-08-05T14:25:10Z</time>
      </trkpt>
      <trkpt lat="59.9027939" lon="17.6415425">
        <ele>16.4797</ele>
        <time>2012-08-05T14:25:19Z</time>
      </trkpt>
      <trkpt lat="59.9022719" lon="17.6412018">
        <ele>16.9604</ele>
        <time>2012-08-05T14:25:28Z</time>
      </trkpt>
      <trkpt lat="59.9017945" lon="17.6408032">
        <ele>17.4412</ele>
        <time>2012-08-05T14:25:37Z</time>
      </trkpt>
      <trkpt lat="59.9013802" lon="17.6404491">
        <ele>18.4023</ele>
        <time>2012-08-05T14:25:45Z</time>
      </trkpt>
      <trkpt lat="59.9009909" lon="17.6401022">
        <ele>19.3638</ele>
        <time>2012-08-05T14:25:53Z</time>
      </trkpt>
      <trkpt lat="59.9006669" lon="17.6397558">
        <ele>18.8831</ele>
        <time>2012-08-05T14:26:00Z</time>
      </trkpt>
      <trkpt lat="59.9003685" lon="17.6394543">
        <ele>17.9218</ele>
        <time>2012-08-05T14:26:06Z</time>
      </trkpt>
      <trkpt lat="59.900094" lon="17.6391658">
        <ele>17.4412</ele>
        <time>2012-08-05T14:26:12Z</time>
      </trkpt>
      <trkpt lat="59.8999604" lon="17.6390355">
        <ele>17.4412</ele>
        <time>2012-08-05T14:26:15Z</time>
      </trkpt>
      <trkpt lat="59.8996294" lon="17.6387138">
        <ele>17.9218</ele>
        <time>2012-08-05T14:26:22Z</time>
      </trkpt>
      <trkpt lat="59.899334" lon="17.6383454">
        <ele>19.8444</ele>
        <time>2012-08-05T14:26:29Z</time>
      </trkpt>
      <trkpt lat="59.8991678" lon="17.6381656">
        <ele>20.8057</ele>
        <time>2012-08-05T14:26:33Z</time>
      </trkpt>
      <trkpt lat="59.8988345" lon="17.6379243">
        <ele>21.2864</ele>
        <time>2012-08-05T14:26:40Z</time>
      </trkpt>
      <trkpt lat="59.898484" lon="17.6376154">
        <ele>24.1703</ele>
        <time>2012-08-05T14:26:48Z</time>
      </trkpt>
      <trkpt lat="59.8982151" lon="17.6374276">
        <ele>25.6123</ele>
        <time>2012-08-05T14:26:54Z</time>
      </trkpt>
      <trkpt lat="59.8978661" lon="17.637142">
        <ele>27.0543</ele>
        <time>2012-08-05T14:27:02Z</time>
      </trkpt>
      <trkpt lat="59.8977815" lon="17.6370769">
        <ele>27.5349</ele>
        <time>2012-08-05T14:27:04Z</time>
      </trkpt>
      <trkpt lat="59.8975884" lon="17.6369588">
        <ele>28.4962</ele>
        <time>2012-08-05T14:27:10Z</time>
      </trkpt>
      <trkpt lat="59.8974319" lon="17.6367812">
        <ele>28.9769</ele>
        <time>2012-08-05T14:27:15Z</time>
      </trkpt>
      <trkpt lat="59.8974115" lon="17.6365476">
        <ele>29.4575</ele>
        <time>2012-08-05T14:27:19Z</time>
      </trkpt>
      <trkpt lat="59.8974346" lon="17.6364766">
        <ele>29.4575</ele>
        <time>2012-08-05T14:27:20Z</time>
      </trkpt>
      <trkpt lat="59.897622" lon="17.6358879">
        <ele>30.8995</ele>
        <time>2012-08-05T14:27:27Z</time>
      </trkpt>
      <trkpt lat="59.8977924" lon="17.6354177">
        <ele>30.4188</ele>
        <time>2012-08-05T14:27:32Z</time>
      </trkpt>
      <trkpt lat="59.8979215" lon="17.6351919">
        <ele>29.4575</ele>
        <time>2012-08-05T14:27:35Z</time>
      </trkpt>
      <trkpt lat="59.8980809" lon="17.6347882">
        <ele>30.4188</ele>
        <time>2012-08-05T14:27:39Z</time>
      </trkpt>
      <trkpt lat="59.8981313" lon="17.6343433">
        <ele>30.4188</ele>
        <time>2012-08-05T14:27:45Z</time>
      </trkpt>
      <trkpt lat="59.8981714" lon="17.6340139">
        <ele>28.4962</ele>
        <time>2012-08-05T14:27:49Z</time>
      </trkpt>
      <trkpt lat="59.8982307" lon="17.633224">
        <ele>26.5736</ele>
        <time>2012-08-05T14:27:58Z</time>
      </trkpt>
      <trkpt lat="59.898286" lon="17.6328809">
        <ele>25.6123</ele>
        <time>2012-08-05T14:28:04Z</time>
      </trkpt>
      <trkpt lat="59.8982905" lon="17.6328385">
        <ele>25.6123</ele>
        <time>2012-08-05T14:28:05Z</time>
      </trkpt>
      <trkpt lat="59.8981203" lon="17.6342847">
        <ele>16.9604</ele>
        <time>2012-08-05T14:32:27Z</time>
      </trkpt>
      <trkpt lat="59.8981271" lon="17.6341996">
        <ele>17.4412</ele>
        <time>2012-08-05T14:32:28Z</time>
      </trkpt>
      <trkpt lat="59.8981576" lon="17.6337911">
        <ele>17.4412</ele>
        <time>2012-08-05T14:32:32Z</time>
      </trkpt>
      <trkpt lat="59.8981574" lon="17.633617">
        <ele>16.4797</ele>
        <time>2012-08-05T14:32:34Z</time>
      </trkpt>
      <trkpt lat="59.8981969" lon="17.6331161">
        <ele>16.4797</ele>
        <time>2012-08-05T14:32:40Z</time>
      </trkpt>
      <trkpt lat="59.8982777" lon="17.6328017">
        <ele>16.9604</ele>
        <time>2012-08-05T14:32:44Z</time>
      </trkpt>
      <trkpt lat="59.8983133" lon="17.6323863">
        <ele>18.8831</ele>
        <time>2012-08-05T14:32:49Z</time>
      </trkpt>
      <trkpt lat="59.89826" lon="17.6322745">
        <ele>19.3638</ele>
        <time>2012-08-05T14:32:51Z</time>
      </trkpt>
      <trkpt lat="59.8982072" lon="17.632187">
        <ele>19.3638</ele>
        <time>2012-08-05T14:32:53Z</time>
      </trkpt>
      <trkpt lat="59.8980789" lon="17.6318894">
        <ele>18.8831</ele>
        <time>2012-08-05T14:32:58Z</time>
      </trkpt>
      <trkpt lat="59.8980373" lon="17.6316413">
        <ele>19.3638</ele>
        <time>2012-08-05T14:33:01Z</time>
      </trkpt>
      <trkpt lat="59.8979338" lon="17.6309297">
        <ele>20.325</ele>
        <time>2012-08-05T14:33:10Z</time>
      </trkpt>
      <trkpt lat="59.8977668" lon="17.6302537">
        <ele>21.2864</ele>
        <time>2012-08-05T14:33:18Z</time>
      </trkpt>
      <trkpt lat="59.8975551" lon="17.6295916">
        <ele>22.2476</ele>
        <time>2012-08-05T14:33:26Z</time>
      </trkpt>
      <trkpt lat="59.8973297" lon="17.6291692">
        <ele>22.7283</ele>
        <time>2012-08-05T14:33:33Z</time>
      </trkpt>
      <trkpt lat="59.8971966" lon="17.6289185">
        <ele>23.209</ele>
        <time>2012-08-05T14:33:37Z</time>
      </trkpt>
      <trkpt lat="59.8968626" lon="17.6284425">
        <ele>23.6896</ele>
        <time>2012-08-05T14:33:46Z</time>
      </trkpt>
      <trkpt lat="59.8965885" lon="17.6282235">
        <ele>24.1703</ele>
        <time>2012-08-05T14:33:52Z</time>
      </trkpt>
      <trkpt lat="59.8962358" lon="17.6279253">
        <ele>24.1703</ele>
        <time>2012-08-05T14:34:00Z</time>
      </trkpt>
      <trkpt lat="59.8959908" lon="17.6277354">
        <ele>24.1703</ele>
        <time>2012-08-05T14:34:05Z</time>
      </trkpt>
      <trkpt lat="59.8957555" lon="17.6276657">
        <ele>25.1317</ele>
        <time>2012-08-05T14:34:10Z</time>
      </trkpt>
      <trkpt lat="59.8953743" lon="17.6274983">
        <ele>25.1317</ele>
        <time>2012-08-05T14:34:19Z</time>
      </trkpt>
      <trkpt lat="59.8950267" lon="17.6272609">
        <ele>24.651</ele>
        <time>2012-08-05T14:34:27Z</time>
      </trkpt>
      <trkpt lat="59.8946523" lon="17.627031">
        <ele>24.1703</ele>
        <time>2012-08-05T14:34:35Z</time>
      </trkpt>
      <trkpt lat="59.8943513" lon="17.6266949">
        <ele>23.6896</ele>
        <time>2012-08-05T14:34:42Z</time>
      </trkpt>
      <trkpt lat="59.894083" lon="17.6261982">
        <ele>23.209</ele>
        <time>2012-08-05T14:34:49Z</time>
      </trkpt>
      <trkpt lat="59.8939776" lon="17.6259489">
        <ele>22.7283</ele>
        <time>2012-08-05T14:34:52Z</time>
      </trkpt>
      <trkpt lat="59.8938054" lon="17.6253373">
        <ele>21.2864</ele>
        <time>2012-08-05T14:34:59Z</time>
      </trkpt>
      <trkpt lat="59.8936992" lon="17.6246286">
        <ele>18.8831</ele>
        <time>2012-08-05T14:35:04Z</time>
      </trkpt>
      <trkpt lat="59.89354" lon="17.6240629">
        <ele>18.8831</ele>
        <time>2012-08-05T14:35:08Z</time>
      </trkpt>
      <trkpt lat="59.8934796" lon="17.6239633">
        <ele>19.3638</ele>
        <time>2012-08-05T14:35:09Z</time>
      </trkpt>
      <trkpt lat="59.8931592" lon="17.6235024">
        <ele>21.2864</ele>
        <time>2012-08-05T14:35:15Z</time>
      </trkpt>
      <trkpt lat="59.893036" lon="17.6233015">
        <ele>22.2476</ele>
        <time>2012-08-05T14:35:18Z</time>
      </trkpt>
      <trkpt lat="59.8928335" lon="17.6231689">
        <ele>22.7283</ele>
        <time>2012-08-05T14:35:22Z</time>
      </trkpt>
      <trkpt lat="59.8925942" lon="17.6231356">
        <ele>23.6896</ele>
        <time>2012-08-05T14:35:27Z</time>
      </trkpt>
      <trkpt lat="59.8924392" lon="17.6232931">
        <ele>24.1703</ele>
        <time>2012-08-05T14:35:31Z</time>
      </trkpt>
      <trkpt lat="59.8923806" lon="17.623435">
        <ele>24.1703</ele>
        <time>2012-08-05T14:35:33Z</time>
      </trkpt>
      <trkpt lat="59.8923251" lon="17.6236037">
        <ele>23.6896</ele>
        <time>2012-08-05T14:35:35Z</time>
      </trkpt>
      <trkpt lat="59.8922409" lon="17.6237892">
        <ele>22.2476</ele>
        <time>2012-08-05T14:35:37Z</time>
      </trkpt>
      <trkpt lat="59.8920248" lon="17.6240544">
        <ele>22.7283</ele>
        <time>2012-08-05T14:35:41Z</time>
      </trkpt>
      <trkpt lat="59.8919136" lon="17.6240696">
        <ele>23.209</ele>
        <time>2012-08-05T14:35:43Z</time>
      </trkpt>
      <trkpt lat="59.8914763" lon="17.6240733">
        <ele>22.2476</ele>
        <time>2012-08-05T14:35:51Z</time>
      </trkpt>
      <trkpt lat="59.8910824" lon="17.624109">
        <ele>22.7283</ele>
        <time>2012-08-05T14:35:58Z</time>
      </trkpt>
      <trkpt lat="59.8906112" lon="17.6241334">
        <ele>21.767</ele>
        <time>2012-08-05T14:36:06Z</time>
      </trkpt>
      <trkpt lat="59.890089" lon="17.6241448">
        <ele>18.8831</ele>
        <time>2012-08-05T14:36:14Z</time>
      </trkpt>
      <trkpt lat="59.8896243" lon="17.6241297">
        <ele>17.4412</ele>
        <time>2012-08-05T14:36:22Z</time>
      </trkpt>
      <trkpt lat="59.8894876" lon="17.6240259">
        <ele>18.4023</ele>
        <time>2012-08-05T14:36:26Z</time>
      </trkpt>
      <trkpt lat="59.8894276" lon="17.6237525">
        <ele>19.8444</ele>
        <time>2012-08-05T14:36:30Z</time>
      </trkpt>
      <trkpt lat="59.8893452" lon="17.6235972">
        <ele>18.8831</ele>
        <time>2012-08-05T14:36:33Z</time>
      </trkpt>
      <trkpt lat="59.8891571" lon="17.6233272">
        <ele>19.3638</ele>
        <time>2012-08-05T14:36:39Z</time>
      </trkpt>
      <trkpt lat="59.8890967" lon="17.6232033">
        <ele>18.4023</ele>
        <time>2012-08-05T14:36:41Z</time>
      </trkpt>
      <trkpt lat="59.8889681" lon="17.6230866">
        <ele>16.4797</ele>
        <time>2012-08-05T14:36:45Z</time>
      </trkpt>
      <trkpt lat="59.8888013" lon="17.6228998">
        <ele>18.4023</ele>
        <time>2012-08-05T14:36:50Z</time>
      </trkpt>
      <trkpt lat="59.8886739" lon="17.6229896">
        <ele>22.2476</ele>
        <time>2012-08-05T14:36:54Z</time>
      </trkpt>
      <trkpt lat="59.8885413" lon="17.6230568">
        <ele>26.5736</ele>
        <time>2012-08-05T14:36:59Z</time>
      </trkpt>
      <trkpt lat="59.8884154" lon="17.6230678">
        <ele>29.4575</ele>
        <time>2012-08-05T14:37:04Z</time>
      </trkpt>
      <trkpt lat="59.8882614" lon="17.6230797">
        <ele>33.3029</ele>
        <time>2012-08-05T14:37:10Z</time>
      </trkpt>
      <trkpt lat="59.8881546" lon="17.6230875">
        <ele>34.7449</ele>
        <time>2012-08-05T14:37:16Z</time>
      </trkpt>
      <trkpt lat="59.8880505" lon="17.6230744">
        <ele>36.1868</ele>
        <time>2012-08-05T14:37:25Z</time>
      </trkpt>
      <trkpt lat="59.8879387" lon="17.6229514">
        <ele>30.8995</ele>
        <time>2012-08-05T14:37:32Z</time>
      </trkpt>
      <trkpt lat="59.8878638" lon="17.6227487">
        <ele>29.9381</ele>
        <time>2012-08-05T14:37:38Z</time>
      </trkpt>
      <trkpt lat="59.8878621" lon="17.622641">
        <ele>28.4962</ele>
        <time>2012-08-05T14:37:41Z</time>
      </trkpt>
      <trkpt lat="59.8878215" lon="17.6225109">
        <ele>27.5349</ele>
        <time>2012-08-05T14:37:46Z</time>
      </trkpt>
      <trkpt lat="59.8877549" lon="17.6222814">
        <ele>27.5349</ele>
        <time>2012-08-05T14:37:53Z</time>
      </trkpt>
      <trkpt lat="59.8876519" lon="17.6220467">
        <ele>26.0929</ele>
        <time>2012-08-05T14:37:58Z</time>
      </trkpt>
      <trkpt lat="59.8875016" lon="17.6217028">
        <ele>26.5736</ele>
        <time>2012-08-05T14:38:02Z</time>
      </trkpt>
      <trkpt lat="59.8874652" lon="17.6216439">
        <ele>26.5736</ele>
        <time>2012-08-05T14:38:03Z</time>
      </trkpt>
      <trkpt lat="59.8871872" lon="17.6215758">
        <ele>28.9769</ele>
        <time>2012-08-05T14:38:07Z</time>
      </trkpt>
      <trkpt lat="59.8868182" lon="17.6216225">
        <ele>27.5349</ele>
        <time>2012-08-05T14:38:11Z</time>
      </trkpt>
      <trkpt lat="59.8861859" lon="17.6218821">
        <ele>30.4188</ele>
        <time>2012-08-05T14:38:18Z</time>
      </trkpt>
      <trkpt lat="59.8859335" lon="17.62205">
        <ele>30.8995</ele>
        <time>2012-08-05T14:38:21Z</time>
      </trkpt>
      <trkpt lat="59.8856114" lon="17.6224364">
        <ele>26.5736</ele>
        <time>2012-08-05T14:38:26Z</time>
      </trkpt>
      <trkpt lat="59.8855644" lon="17.622513">
        <ele>25.1317</ele>
        <time>2012-08-05T14:38:27Z</time>
      </trkpt>
      <trkpt lat="59.8853887" lon="17.6226879">
        <ele>23.209</ele>
        <time>2012-08-05T14:38:31Z</time>
      </trkpt>
      <trkpt lat="59.8853512" lon="17.6226917">
        <ele>23.209</ele>
        <time>2012-08-05T14:38:32Z</time>
      </trkpt>
      <trkpt lat="59.8851636" lon="17.622725">
        <ele>26.5736</ele>
        <time>2012-08-05T14:38:37Z</time>
      </trkpt>
      <trkpt lat="59.8848912" lon="17.6229187">
        <ele>27.0543</ele>
        <time>2012-08-05T14:38:44Z</time>
      </trkpt>
      <trkpt lat="59.8845794" lon="17.6232247">
        <ele>26.5736</ele>
        <time>2012-08-05T14:38:50Z</time>
      </trkpt>
      <trkpt lat="59.8842199" lon="17.6234572">
        <ele>25.6123</ele>
        <time>2012-08-05T14:38:55Z</time>
      </trkpt>
      <trkpt lat="59.8838966" lon="17.6238117">
        <ele>24.651</ele>
        <time>2012-08-05T14:39:00Z</time>
      </trkpt>
      <trkpt lat="59.8837683" lon="17.6240083">
        <ele>25.1317</ele>
        <time>2012-08-05T14:39:03Z</time>
      </trkpt>
      <trkpt lat="59.8835041" lon="17.6242815">
        <ele>24.651</ele>
        <time>2012-08-05T14:39:09Z</time>
      </trkpt>
      <trkpt lat="59.8834527" lon="17.6243531">
        <ele>24.651</ele>
        <time>2012-08-05T14:39:10Z</time>
      </trkpt>
      <trkpt lat="59.8831793" lon="17.62495">
        <ele>23.6896</ele>
        <time>2012-08-05T14:39:17Z</time>
      </trkpt>
      <trkpt lat="59.8828825" lon="17.6254356">
        <ele>22.2476</ele>
        <time>2012-08-05T14:39:23Z</time>
      </trkpt>
      <trkpt lat="59.8827862" lon="17.6255632">
        <ele>21.767</ele>
        <time>2012-08-05T14:39:25Z</time>
      </trkpt>
      <trkpt lat="59.8826151" lon="17.6256093">
        <ele>20.325</ele>
        <time>2012-08-05T14:39:29Z</time>
      </trkpt>
      <trkpt lat="59.882584" lon="17.6255468">
        <ele>20.325</ele>
        <time>2012-08-05T14:39:30Z</time>
      </trkpt>
      <trkpt lat="59.8824734" lon="17.6253657">
        <ele>19.8444</ele>
        <time>2012-08-05T14:39:33Z</time>
      </trkpt>
      <trkpt lat="59.8823038" lon="17.6251818">
        <ele>18.4023</ele>
        <time>2012-08-05T14:39:37Z</time>
      </trkpt>
      <trkpt lat="59.882154" lon="17.6247892">
        <ele>14.0764</ele>
        <time>2012-08-05T14:39:42Z</time>
      </trkpt>
      <trkpt lat="59.8820977" lon="17.6246535">
        <ele>13.5958</ele>
        <time>2012-08-05T14:39:44Z</time>
      </trkpt>
      <trkpt lat="59.8820261" lon="17.6245339">
        <ele>13.5958</ele>
        <time>2012-08-05T14:39:46Z</time>
      </trkpt>
      <trkpt lat="59.8818846" lon="17.6243652">
        <ele>13.1151</ele>
        <time>2012-08-05T14:39:50Z</time>
      </trkpt>
      <trkpt lat="59.8816192" lon="17.6241909">
        <ele>12.1538</ele>
        <time>2012-08-05T14:39:56Z</time>
      </trkpt>
      <trkpt lat="59.881559" lon="17.6239589">
        <ele>12.6344</ele>
        <time>2012-08-05T14:40:00Z</time>
      </trkpt>
      <trkpt lat="59.881651" lon="17.6233025">
        <ele>14.0764</ele>
        <time>2012-08-05T14:40:08Z</time>
      </trkpt>
      <trkpt lat="59.8816494" lon="17.6230347">
        <ele>14.557</ele>
        <time>2012-08-05T14:40:11Z</time>
      </trkpt>
      <trkpt lat="59.8815738" lon="17.6225337">
        <ele>15.0377</ele>
        <time>2012-08-05T14:40:16Z</time>
      </trkpt>
      <trkpt lat="59.8814315" lon="17.6219038">
        <ele>13.5958</ele>
        <time>2012-08-05T14:40:21Z</time>
      </trkpt>
      <trkpt lat="59.8813009" lon="17.6215536">
        <ele>14.557</ele>
        <time>2012-08-05T14:40:25Z</time>
      </trkpt>
      <trkpt lat="59.8811429" lon="17.6212645">
        <ele>16.9604</ele>
        <time>2012-08-05T14:40:29Z</time>
      </trkpt>
      <trkpt lat="59.8807619" lon="17.6208269">
        <ele>17.9218</ele>
        <time>2012-08-05T14:40:37Z</time>
      </trkpt>
      <trkpt lat="59.8806046" lon="17.6204534">
        <ele>13.1151</ele>
        <time>2012-08-05T14:40:42Z</time>
      </trkpt>
      <trkpt lat="59.8805866" lon="17.6203611">
        <ele>12.6344</ele>
        <time>2012-08-05T14:40:43Z</time>
      </trkpt>
      <trkpt lat="59.8804262" lon="17.6196313">
        <ele>10.2312</ele>
        <time>2012-08-05T14:40:51Z</time>
      </trkpt>
      <trkpt lat="59.8803682" lon="17.6193405">
        <ele>10.7118</ele>
        <time>2012-08-05T14:40:54Z</time>
      </trkpt>
      <trkpt lat="59.8802154" lon="17.6186176">
        <ele>13.1151</ele>
        <time>2012-08-05T14:41:02Z</time>
      </trkpt>
      <trkpt lat="59.8801811" lon="17.618434">
        <ele>14.557</ele>
        <time>2012-08-05T14:41:04Z</time>
      </trkpt>
      <trkpt lat="59.8800366" lon="17.6177846">
        <ele>20.325</ele>
        <time>2012-08-05T14:41:11Z</time>
      </trkpt>
      <trkpt lat="59.879992" lon="17.6175965">
        <ele>21.767</ele>
        <time>2012-08-05T14:41:13Z</time>
      </trkpt>
      <trkpt lat="59.8798428" lon="17.6169194">
        <ele>20.325</ele>
        <time>2012-08-05T14:41:20Z</time>
      </trkpt>
      <trkpt lat="59.8797802" lon="17.6166718">
        <ele>19.8444</ele>
        <time>2012-08-05T14:41:23Z</time>
      </trkpt>
      <trkpt lat="59.8796808" lon="17.6163885">
        <ele>20.325</ele>
        <time>2012-08-05T14:41:28Z</time>
      </trkpt>
      <trkpt lat="59.87965" lon="17.6161413">
        <ele>21.2864</ele>
        <time>2012-08-05T14:41:33Z</time>
      </trkpt>
      <trkpt lat="59.8796055" lon="17.6159429">
        <ele>22.2476</ele>
        <time>2012-08-05T14:41:37Z</time>
      </trkpt>
      <trkpt lat="59.8795266" lon="17.6155835">
        <ele>20.8057</ele>
        <time>2012-08-05T14:41:41Z</time>
      </trkpt>
      <trkpt lat="59.879359" lon="17.6148786">
        <ele>23.209</ele>
        <time>2012-08-05T14:41:48Z</time>
      </trkpt>
      <trkpt lat="59.8791596" lon="17.6141094">
        <ele>16.9604</ele>
        <time>2012-08-05T14:41:55Z</time>
      </trkpt>
      <trkpt lat="59.8789406" lon="17.6133093">
        <ele>15.0377</ele>
        <time>2012-08-05T14:42:03Z</time>
      </trkpt>
      <trkpt lat="59.8787389" lon="17.6126506">
        <ele>14.0764</ele>
        <time>2012-08-05T14:42:10Z</time>
      </trkpt>
      <trkpt lat="59.8784494" lon="17.6117219">
        <ele>14.557</ele>
        <time>2012-08-05T14:42:20Z</time>
      </trkpt>
      <trkpt lat="59.8783922" lon="17.6115586">
        <ele>14.557</ele>
        <time>2012-08-05T14:42:22Z</time>
      </trkpt>
      <trkpt lat="59.8782453" lon="17.6113359">
        <ele>13.5958</ele>
        <time>2012-08-05T14:42:26Z</time>
      </trkpt>
      <trkpt lat="59.8781592" lon="17.6112376">
        <ele>14.0764</ele>
        <time>2012-08-05T14:42:28Z</time>
      </trkpt>
      <trkpt lat="59.8779679" lon="17.6108496">
        <ele>13.1151</ele>
        <time>2012-08-05T14:42:34Z</time>
      </trkpt>
      <trkpt lat="59.8777853" lon="17.6102653">
        <ele>12.1538</ele>
        <time>2012-08-05T14:42:40Z</time>
      </trkpt>
      <trkpt lat="59.8776004" lon="17.6096384">
        <ele>10.2312</ele>
        <time>2012-08-05T14:42:45Z</time>
      </trkpt>
      <trkpt lat="59.8772827" lon="17.6085765">
        <ele>7.82788</ele>
        <time>2012-08-05T14:42:54Z</time>
      </trkpt>
      <trkpt lat="59.8770135" lon="17.6077284">
        <ele>6.38586</ele>
        <time>2012-08-05T14:43:02Z</time>
      </trkpt>
      <trkpt lat="59.8767739" lon="17.6069528">
        <ele>3.98267</ele>
        <time>2012-08-05T14:43:09Z</time>
      </trkpt>
      <trkpt lat="59.8765355" lon="17.606161">
        <ele>3.50195</ele>
        <time>2012-08-05T14:43:16Z</time>
      </trkpt>
      <trkpt lat="59.8764082" lon="17.6058287">
        <ele>3.50195</ele>
        <time>2012-08-05T14:43:20Z</time>
      </trkpt>
      <trkpt lat="59.8762495" lon="17.6054973">
        <ele>3.98267</ele>
        <time>2012-08-05T14:43:25Z</time>
      </trkpt>
      <trkpt lat="59.8760302" lon="17.6053051">
        <ele>4.94385</ele>
        <time>2012-08-05T14:43:30Z</time>
      </trkpt>
      <trkpt lat="59.8759762" lon="17.6053104">
        <ele>4.94385</ele>
        <time>2012-08-05T14:43:31Z</time>
      </trkpt>
      <trkpt lat="59.8757015" lon="17.6053644">
        <ele>6.38586</ele>
        <time>2012-08-05T14:43:36Z</time>
      </trkpt>
      <trkpt lat="59.8754473" lon="17.6051758">
        <ele>6.86646</ele>
        <time>2012-08-05T14:43:41Z</time>
      </trkpt>
      <trkpt lat="59.875405" lon="17.6050987">
        <ele>7.34717</ele>
        <time>2012-08-05T14:43:42Z</time>
      </trkpt>
      <trkpt lat="59.8750361" lon="17.6044016">
        <ele>7.34717</ele>
        <time>2012-08-05T14:43:51Z</time>
      </trkpt>
      <trkpt lat="59.8746679" lon="17.6036916">
        <ele>7.82788</ele>
        <time>2012-08-05T14:44:00Z</time>
      </trkpt>
      <trkpt lat="59.8743139" lon="17.6030416">
        <ele>7.34717</ele>
        <time>2012-08-05T14:44:09Z</time>
      </trkpt>
      <trkpt lat="59.8739432" lon="17.6024149">
        <ele>6.86646</ele>
        <time>2012-08-05T14:44:18Z</time>
      </trkpt>
      <trkpt lat="59.873577" lon="17.6017963">
        <ele>6.38586</ele>
        <time>2012-08-05T14:44:27Z</time>
      </trkpt>
      <trkpt lat="59.8734255" lon="17.6014852">
        <ele>6.38586</ele>
        <time>2012-08-05T14:44:31Z</time>
      </trkpt>
      <trkpt lat="59.873291" lon="17.6009194">
        <ele>5.90527</ele>
        <time>2012-08-05T14:44:37Z</time>
      </trkpt>
      <trkpt lat="59.8732846" lon="17.6007044">
        <ele>6.38586</ele>
        <time>2012-08-05T14:44:39Z</time>
      </trkpt>
      <trkpt lat="59.873309" lon="17.599752">
        <ele>9.2699</ele>
        <time>2012-08-05T14:44:48Z</time>
      </trkpt>
      <trkpt lat="59.8732339" lon="17.5991723">
        <ele>8.78918</ele>
        <time>2012-08-05T14:44:54Z</time>
      </trkpt>
      <trkpt lat="59.8732162" lon="17.5990766">
        <ele>8.78918</ele>
        <time>2012-08-05T14:44:55Z</time>
      </trkpt>
      <trkpt lat="59.8730486" lon="17.5985892">
        <ele>8.30859</ele>
        <time>2012-08-05T14:45:01Z</time>
      </trkpt>
      <trkpt lat="59.8729946" lon="17.5984417">
        <ele>8.78918</ele>
        <time>2012-08-05T14:45:03Z</time>
      </trkpt>
      <trkpt lat="59.8728377" lon="17.5981226">
        <ele>10.2312</ele>
        <time>2012-08-05T14:45:09Z</time>
      </trkpt>
      <trkpt lat="59.8727438" lon="17.5981287">
        <ele>11.1925</ele>
        <time>2012-08-05T14:45:13Z</time>
      </trkpt>
      <trkpt lat="59.8726539" lon="17.598281">
        <ele>11.6732</ele>
        <time>2012-08-05T14:45:18Z</time>
      </trkpt>
      <trkpt lat="59.8725882" lon="17.5984302">
        <ele>12.1538</ele>
        <time>2012-08-05T14:45:21Z</time>
      </trkpt>
      <trkpt lat="59.8725538" lon="17.5984749">
        <ele>12.1538</ele>
        <time>2012-08-05T14:45:26Z</time>
      </trkpt>
      <trkpt lat="59.8725377" lon="17.5984348">
        <ele>12.6344</ele>
        <time>2012-08-05T14:45:31Z</time>
      </trkpt>
      <trkpt lat="59.8724735" lon="17.5983218">
        <ele>15.999</ele>
        <time>2012-08-05T14:45:40Z</time>
      </trkpt>
      <trkpt lat="59.8724481" lon="17.5982737">
        <ele>15.999</ele>
        <time>2012-08-05T14:45:41Z</time>
      </trkpt>
      <trkpt lat="59.872431" lon="17.597983">
        <ele>16.9604</ele>
        <time>2012-08-05T14:45:45Z</time>
      </trkpt>
      <trkpt lat="59.8723436" lon="17.5976391">
        <ele>17.4412</ele>
        <time>2012-08-05T14:45:49Z</time>
      </trkpt>
      <trkpt lat="59.8722641" lon="17.5973736">
        <ele>17.9218</ele>
        <time>2012-08-05T14:45:54Z</time>
      </trkpt>
      <trkpt lat="59.8722072" lon="17.5971115">
        <ele>15.5184</ele>
        <time>2012-08-05T14:45:59Z</time>
      </trkpt>
      <trkpt lat="59.8721156" lon="17.5968938">
        <ele>13.5958</ele>
        <time>2012-08-05T14:46:04Z</time>
      </trkpt>
      <trkpt lat="59.8720196" lon="17.596484">
        <ele>11.1925</ele>
        <time>2012-08-05T14:46:10Z</time>
      </trkpt>
      <trkpt lat="59.8719722" lon="17.5958324">
        <ele>10.2312</ele>
        <time>2012-08-05T14:46:18Z</time>
      </trkpt>
      <trkpt lat="59.8719432" lon="17.5954411">
        <ele>9.75061</ele>
        <time>2012-08-05T14:46:23Z</time>
      </trkpt>
      <trkpt lat="59.8719043" lon="17.5948695">
        <ele>11.6732</ele>
        <time>2012-08-05T14:46:31Z</time>
      </trkpt>
      <trkpt lat="59.8718974" lon="17.5944255">
        <ele>11.1925</ele>
        <time>2012-08-05T14:46:38Z</time>
      </trkpt>
      <trkpt lat="59.8718446" lon="17.5940871">
        <ele>11.6732</ele>
        <time>2012-08-05T14:46:44Z</time>
      </trkpt>
      <trkpt lat="59.8717607" lon="17.5937068">
        <ele>10.2312</ele>
        <time>2012-08-05T14:46:50Z</time>
      </trkpt>
      <trkpt lat="59.8716578" lon="17.5932373">
        <ele>8.78918</ele>
        <time>2012-08-05T14:46:56Z</time>
      </trkpt>
      <trkpt lat="59.8716459" lon="17.5931392">
        <ele>9.2699</ele>
        <time>2012-08-05T14:46:57Z</time>
      </trkpt>
      <trkpt lat="59.871578" lon="17.5927289">
        <ele>8.78918</ele>
        <time>2012-08-05T14:47:01Z</time>
      </trkpt>
      <trkpt lat="59.8714572" lon="17.5922757">
        <ele>8.30859</ele>
        <time>2012-08-05T14:47:05Z</time>
      </trkpt>
      <trkpt lat="59.8712853" lon="17.5918929">
        <ele>7.34717</ele>
        <time>2012-08-05T14:47:09Z</time>
      </trkpt>
      <trkpt lat="59.8709156" lon="17.5913804">
        <ele>6.86646</ele>
        <time>2012-08-05T14:47:16Z</time>
      </trkpt>
      <trkpt lat="59.8704793" lon="17.5907398">
        <ele>8.30859</ele>
        <time>2012-08-05T14:47:25Z</time>
      </trkpt>
      <trkpt lat="59.8702092" lon="17.590153">
        <ele>8.78918</ele>
        <time>2012-08-05T14:47:32Z</time>
      </trkpt>
      <trkpt lat="59.8700561" lon="17.5898399">
        <ele>8.30859</ele>
        <time>2012-08-05T14:47:36Z</time>
      </trkpt>
      <trkpt lat="59.8699443" lon="17.5894717">
        <ele>10.2312</ele>
        <time>2012-08-05T14:47:40Z</time>
      </trkpt>
      <trkpt lat="59.869814" lon="17.5891931">
        <ele>10.2312</ele>
        <time>2012-08-05T14:47:44Z</time>
      </trkpt>
      <trkpt lat="59.8697276" lon="17.5890036">
        <ele>10.2312</ele>
        <time>2012-08-05T14:47:47Z</time>
      </trkpt>
      <trkpt lat="59.8695061" lon="17.5889325">
        <ele>10.7118</ele>
        <time>2012-08-05T14:47:52Z</time>
      </trkpt>
      <trkpt lat="59.8691858" lon="17.5891143">
        <ele>12.6344</ele>
        <time>2012-08-05T14:47:58Z</time>
      </trkpt>
      <trkpt lat="59.8691398" lon="17.5891429">
        <ele>13.1151</ele>
        <time>2012-08-05T14:47:59Z</time>
      </trkpt>
      <trkpt lat="59.86905" lon="17.5891951">
        <ele>13.1151</ele>
        <time>2012-08-05T14:48:01Z</time>
      </trkpt>
      <trkpt lat="59.8689365" lon="17.5893268">
        <ele>13.1151</ele>
        <time>2012-08-05T14:48:05Z</time>
      </trkpt>
      <trkpt lat="59.8687864" lon="17.5895447">
        <ele>10.7118</ele>
        <time>2012-08-05T14:48:09Z</time>
      </trkpt>
      <trkpt lat="59.8684668" lon="17.5897329">
        <ele>12.1538</ele>
        <time>2012-08-05T14:48:16Z</time>
      </trkpt>
      <trkpt lat="59.8682145" lon="17.5899043">
        <ele>9.75061</ele>
        <time>2012-08-05T14:48:21Z</time>
      </trkpt>
      <trkpt lat="59.8677709" lon="17.5899415">
        <ele>11.1925</ele>
        <time>2012-08-05T14:48:27Z</time>
      </trkpt>
      <trkpt lat="59.8676282" lon="17.5899645">
        <ele>12.6344</ele>
        <time>2012-08-05T14:48:30Z</time>
      </trkpt>
      <trkpt lat="59.8673379" lon="17.5901042">
        <ele>14.0764</ele>
        <time>2012-08-05T14:48:37Z</time>
      </trkpt>
      <trkpt lat="59.867164" lon="17.590215">
        <ele>12.1538</ele>
        <time>2012-08-05T14:48:41Z</time>
      </trkpt>
      <trkpt lat="59.8670296" lon="17.5903768">
        <ele>10.2312</ele>
        <time>2012-08-05T14:48:44Z</time>
      </trkpt>
      <trkpt lat="59.8669351" lon="17.5904626">
        <ele>9.2699</ele>
        <time>2012-08-05T14:48:46Z</time>
      </trkpt>
      <trkpt lat="59.8667776" lon="17.5904682">
        <ele>7.34717</ele>
        <time>2012-08-05T14:48:50Z</time>
      </trkpt>
      <trkpt lat="59.8666544" lon="17.5904845">
        <ele>6.86646</ele>
        <time>2012-08-05T14:48:53Z</time>
      </trkpt>
      <trkpt lat="59.8664524" lon="17.5905316">
        <ele>10.7118</ele>
        <time>2012-08-05T14:49:00Z</time>
      </trkpt>
      <trkpt lat="59.86626" lon="17.5905772">
        <ele>13.1151</ele>
        <time>2012-08-05T14:49:05Z</time>
      </trkpt>
      <trkpt lat="59.8659763" lon="17.5906433">
        <ele>15.5184</ele>
        <time>2012-08-05T14:49:12Z</time>
      </trkpt>
      <trkpt lat="59.8658373" lon="17.590771">
        <ele>15.999</ele>
        <time>2012-08-05T14:49:16Z</time>
      </trkpt>
      <trkpt lat="59.8655818" lon="17.5912397">
        <ele>16.9604</ele>
        <time>2012-08-05T14:49:26Z</time>
      </trkpt>
      <trkpt lat="59.8653883" lon="17.5915511">
        <ele>16.4797</ele>
        <time>2012-08-05T14:49:33Z</time>
      </trkpt>
      <trkpt lat="59.8652654" lon="17.5916091">
        <ele>17.9218</ele>
        <time>2012-08-05T14:49:37Z</time>
      </trkpt>
      <trkpt lat="59.8650618" lon="17.5915655">
        <ele>20.8057</ele>
        <time>2012-08-05T14:49:43Z</time>
      </trkpt>
      <trkpt lat="59.8648548" lon="17.5916199">
        <ele>21.2864</ele>
        <time>2012-08-05T14:49:48Z</time>
      </trkpt>
      <trkpt lat="59.864618" lon="17.5916857">
        <ele>20.8057</ele>
        <time>2012-08-05T14:49:54Z</time>
      </trkpt>
      <trkpt lat="59.8645368" lon="17.5917049">
        <ele>21.2864</ele>
        <time>2012-08-05T14:49:56Z</time>
      </trkpt>
      <trkpt lat="59.8643173" lon="17.5915827">
        <ele>23.209</ele>
        <time>2012-08-05T14:50:00Z</time>
      </trkpt>
      <trkpt lat="59.8640601" lon="17.5915333">
        <ele>25.6123</ele>
        <time>2012-08-05T14:50:05Z</time>
      </trkpt>
      <trkpt lat="59.8639405" lon="17.5915169">
        <ele>25.1317</ele>
        <time>2012-08-05T14:50:08Z</time>
      </trkpt>
      <trkpt lat="59.8638022" lon="17.5914681">
        <ele>22.7283</ele>
        <time>2012-08-05T14:50:11Z</time>
      </trkpt>
      <trkpt lat="59.8636564" lon="17.5913755">
        <ele>21.2864</ele>
        <time>2012-08-05T14:50:14Z</time>
      </trkpt>
      <trkpt lat="59.8632682" lon="17.5910808">
        <ele>19.8444</ele>
        <time>2012-08-05T14:50:22Z</time>
      </trkpt>
      <trkpt lat="59.8629069" lon="17.590792">
        <ele>20.325</ele>
        <time>2012-08-05T14:50:29Z</time>
      </trkpt>
      <trkpt lat="59.8625248" lon="17.5905248">
        <ele>20.325</ele>
        <time>2012-08-05T14:50:36Z</time>
      </trkpt>
      <trkpt lat="59.86213" lon="17.5902517">
        <ele>20.325</ele>
        <time>2012-08-05T14:50:43Z</time>
      </trkpt>
      <trkpt lat="59.8618353" lon="17.5900192">
        <ele>21.2864</ele>
        <time>2012-08-05T14:50:49Z</time>
      </trkpt>
      <trkpt lat="59.8615331" lon="17.5898025">
        <ele>22.7283</ele>
        <time>2012-08-05T14:50:56Z</time>
      </trkpt>
      <trkpt lat="59.8611453" lon="17.5895417">
        <ele>25.1317</ele>
        <time>2012-08-05T14:51:06Z</time>
      </trkpt>
      <trkpt lat="59.8609784" lon="17.5894786">
        <ele>26.0929</ele>
        <time>2012-08-05T14:51:10Z</time>
      </trkpt>
      <trkpt lat="59.860805" lon="17.5894384">
        <ele>26.5736</ele>
        <time>2012-08-05T14:51:14Z</time>
      </trkpt>
      <trkpt lat="59.8606511" lon="17.5893266">
        <ele>27.0543</ele>
        <time>2012-08-05T14:51:18Z</time>
      </trkpt>
      <trkpt lat="59.8603577" lon="17.5890417">
        <ele>27.0543</ele>
        <time>2012-08-05T14:51:26Z</time>
      </trkpt>
      <trkpt lat="59.8601009" lon="17.5888644">
        <ele>27.5349</ele>
        <time>2012-08-05T14:51:32Z</time>
      </trkpt>
      <trkpt lat="59.860062" lon="17.5888363">
        <ele>27.5349</ele>
        <time>2012-08-05T14:51:33Z</time>
      </trkpt>
      <trkpt lat="59.8599298" lon="17.5889495">
        <ele>27.5349</ele>
        <time>2012-08-05T14:51:37Z</time>
      </trkpt>
      <trkpt lat="59.8598326" lon="17.5894811">
        <ele>26.0929</ele>
        <time>2012-08-05T14:51:45Z</time>
      </trkpt>
      <trkpt lat="59.8597754" lon="17.5899464">
        <ele>27.5349</ele>
        <time>2012-08-05T14:51:51Z</time>
      </trkpt>
      <trkpt lat="59.8596933" lon="17.5903212">
        <ele>29.4575</ele>
        <time>2012-08-05T14:51:56Z</time>
      </trkpt>
      <trkpt lat="59.8595717" lon="17.5905865">
        <ele>27.0543</ele>
        <time>2012-08-05T14:52:02Z</time>
      </trkpt>
      <trkpt lat="59.8595115" lon="17.5908629">
        <ele>28.4962</ele>
        <time>2012-08-05T14:52:07Z</time>
      </trkpt>
      <trkpt lat="59.8594835" lon="17.5913465">
        <ele>28.0155</ele>
        <time>2012-08-05T14:52:12Z</time>
      </trkpt>
      <trkpt lat="59.8593669" lon="17.5920209">
        <ele>25.1317</ele>
        <time>2012-08-05T14:52:17Z</time>
      </trkpt>
      <trkpt lat="59.859259" lon="17.5927454">
        <ele>19.8444</ele>
        <time>2012-08-05T14:52:21Z</time>
      </trkpt>
      <trkpt lat="59.8592233" lon="17.5928936">
        <ele>18.8831</ele>
        <time>2012-08-05T14:52:22Z</time>
      </trkpt>
      <trkpt lat="59.8591373" lon="17.593795">
        <ele>13.1151</ele>
        <time>2012-08-05T14:52:27Z</time>
      </trkpt>
      <trkpt lat="59.8591125" lon="17.594671">
        <ele>13.5958</ele>
        <time>2012-08-05T14:52:32Z</time>
      </trkpt>
      <trkpt lat="59.8590934" lon="17.595573">
        <ele>15.0377</ele>
        <time>2012-08-05T14:52:38Z</time>
      </trkpt>
      <trkpt lat="59.8590616" lon="17.5963079">
        <ele>16.4797</ele>
        <time>2012-08-05T14:52:44Z</time>
      </trkpt>
      <trkpt lat="59.859025" lon="17.5971931">
        <ele>16.9604</ele>
        <time>2012-08-05T14:52:52Z</time>
      </trkpt>
      <trkpt lat="59.8590743" lon="17.5975839">
        <ele>16.9604</ele>
        <time>2012-08-05T14:52:56Z</time>
      </trkpt>
      <trkpt lat="59.8591919" lon="17.5978141">
        <ele>16.9604</ele>
        <time>2012-08-05T14:52:59Z</time>
      </trkpt>
      <trkpt lat="59.8593363" lon="17.5984005">
        <ele>18.8831</ele>
        <time>2012-08-05T14:53:05Z</time>
      </trkpt>
      <trkpt lat="59.8592908" lon="17.5988597">
        <ele>20.8057</ele>
        <time>2012-08-05T14:53:10Z</time>
      </trkpt>
      <trkpt lat="59.8592462" lon="17.5990037">
        <ele>21.2864</ele>
        <time>2012-08-05T14:53:12Z</time>
      </trkpt>
      <trkpt lat="59.8590105" lon="17.5997434">
        <ele>21.2864</ele>
        <time>2012-08-05T14:53:22Z</time>
      </trkpt>
      <trkpt lat="59.8587987" lon="17.6004164">
        <ele>21.2864</ele>
        <time>2012-08-05T14:53:31Z</time>
      </trkpt>
      <trkpt lat="59.8586179" lon="17.6009985">
        <ele>21.2864</ele>
        <time>2012-08-05T14:53:39Z</time>
      </trkpt>
      <trkpt lat="59.8584355" lon="17.6015803">
        <ele>21.767</ele>
        <time>2012-08-05T14:53:48Z</time>
      </trkpt>
      <trkpt lat="59.8582868" lon="17.6019815">
        <ele>22.7283</ele>
        <time>2012-08-05T14:53:55Z</time>
      </trkpt>
      <trkpt lat="59.8580915" lon="17.6023914">
        <ele>23.209</ele>
        <time>2012-08-05T14:54:02Z</time>
      </trkpt>
      <trkpt lat="59.8578756" lon="17.6027917">
        <ele>22.2476</ele>
        <time>2012-08-05T14:54:09Z</time>
      </trkpt>
      <trkpt lat="59.8578274" lon="17.6031781">
        <ele>23.209</ele>
        <time>2012-08-05T14:54:14Z</time>
      </trkpt>
      <trkpt lat="59.8578076" lon="17.6034557">
        <ele>24.651</ele>
        <time>2012-08-05T14:54:18Z</time>
      </trkpt>
      <trkpt lat="59.8577422" lon="17.6035317">
        <ele>23.209</ele>
        <time>2012-08-05T14:54:20Z</time>
      </trkpt>
      <trkpt lat="59.8575498" lon="17.6038482">
        <ele>21.767</ele>
        <time>2012-08-05T14:54:26Z</time>
      </trkpt>
      <trkpt lat="59.8574804" lon="17.6040197">
        <ele>22.7283</ele>
        <time>2012-08-05T14:54:29Z</time>
      </trkpt>
      <trkpt lat="59.857416" lon="17.6041277">
        <ele>24.1703</ele>
        <time>2012-08-05T14:54:31Z</time>
      </trkpt>
      <trkpt lat="59.8572993" lon="17.6043162">
        <ele>23.6896</ele>
        <time>2012-08-05T14:54:35Z</time>
      </trkpt>
      <trkpt lat="59.8571554" lon="17.6046484">
        <ele>21.767</ele>
        <time>2012-08-05T14:54:41Z</time>
      </trkpt>
      <trkpt lat="59.8570525" lon="17.6049064">
        <ele>21.767</ele>
        <time>2012-08-05T14:54:45Z</time>
      </trkpt>
      <trkpt lat="59.8570215" lon="17.6049552">
        <ele>21.2864</ele>
        <time>2012-08-05T14:54:46Z</time>
      </trkpt>
      <trkpt lat="59.8568466" lon="17.6049369">
        <ele>20.325</ele>
        <time>2012-08-05T14:54:50Z</time>
      </trkpt>
      <trkpt lat="59.8567604" lon="17.6048474">
        <ele>19.8444</ele>
        <time>2012-08-05T14:54:52Z</time>
      </trkpt>
      <trkpt lat="59.856476" lon="17.6046896">
        <ele>20.8057</ele>
        <time>2012-08-05T14:54:58Z</time>
      </trkpt>
      <trkpt lat="59.8563998" lon="17.6046785">
        <ele>20.8057</ele>
        <time>2012-08-05T14:55:00Z</time>
      </trkpt>
      <trkpt lat="59.8561274" lon="17.6046492">
        <ele>20.8057</ele>
        <time>2012-08-05T14:55:07Z</time>
      </trkpt>
      <trkpt lat="59.8560035" lon="17.604159">
        <ele>25.6123</ele>
        <time>2012-08-05T14:55:13Z</time>
      </trkpt>
      <trkpt lat="59.8558202" lon="17.6034999">
        <ele>28.0155</ele>
        <time>2012-08-05T14:55:20Z</time>
      </trkpt>
      <trkpt lat="59.855664" lon="17.6027007">
        <ele>30.8995</ele>
        <time>2012-08-05T14:55:28Z</time>
      </trkpt>
      <trkpt lat="59.8556097" lon="17.601908">
        <ele>32.8223</ele>
        <time>2012-08-05T14:55:35Z</time>
      </trkpt>
      <trkpt lat="59.8555849" lon="17.6012439">
        <ele>32.8223</ele>
        <time>2012-08-05T14:55:41Z</time>
      </trkpt>
      <trkpt lat="59.855556" lon="17.6007447">
        <ele>29.9381</ele>
        <time>2012-08-05T14:55:45Z</time>
      </trkpt>
      <trkpt lat="59.8554133" lon="17.5999967">
        <ele>27.0543</ele>
        <time>2012-08-05T14:55:50Z</time>
      </trkpt>
      <trkpt lat="59.8552546" lon="17.5992264">
        <ele>26.0929</ele>
        <time>2012-08-05T14:55:55Z</time>
      </trkpt>
      <trkpt lat="59.8551295" lon="17.5988419">
        <ele>25.6123</ele>
        <time>2012-08-05T14:55:58Z</time>
      </trkpt>
      <trkpt lat="59.8550259" lon="17.5983411">
        <ele>24.651</ele>
        <time>2012-08-05T14:56:02Z</time>
      </trkpt>
      <trkpt lat="59.8548666" lon="17.5975276">
        <ele>23.6896</ele>
        <time>2012-08-05T14:56:09Z</time>
      </trkpt>
      <trkpt lat="59.8547997" lon="17.5971904">
        <ele>22.7283</ele>
        <time>2012-08-05T14:56:12Z</time>
      </trkpt>
      <trkpt lat="59.8547162" lon="17.5967201">
        <ele>21.767</ele>
        <time>2012-08-05T14:56:16Z</time>
      </trkpt>
      <trkpt lat="59.8545356" lon="17.5965866">
        <ele>20.325</ele>
        <time>2012-08-05T14:56:20Z</time>
      </trkpt>
      <trkpt lat="59.8541159" lon="17.5969416">
        <ele>18.4023</ele>
        <time>2012-08-05T14:56:27Z</time>
      </trkpt>
      <trkpt lat="59.8538442" lon="17.5974217">
        <ele>19.3638</ele>
        <time>2012-08-05T14:56:32Z</time>
      </trkpt>
      <trkpt lat="59.8537911" lon="17.5977714">
        <ele>20.325</ele>
        <time>2012-08-05T14:56:35Z</time>
      </trkpt>
      <trkpt lat="59.8537621" lon="17.5982183">
        <ele>21.2864</ele>
        <time>2012-08-05T14:56:39Z</time>
      </trkpt>
      <trkpt lat="59.8536388" lon="17.598682">
        <ele>22.7283</ele>
        <time>2012-08-05T14:56:44Z</time>
      </trkpt>
      <trkpt lat="59.8534772" lon="17.5988006">
        <ele>26.5736</ele>
        <time>2012-08-05T14:56:47Z</time>
      </trkpt>
      <trkpt lat="59.8532232" lon="17.5989362">
        <ele>25.6123</ele>
        <time>2012-08-05T14:56:52Z</time>
      </trkpt>
      <trkpt lat="59.8529509" lon="17.5991026">
        <ele>23.6896</ele>
        <time>2012-08-05T14:56:57Z</time>
      </trkpt>
      <trkpt lat="59.8527557" lon="17.5992658">
        <ele>24.1703</ele>
        <time>2012-08-05T14:57:01Z</time>
      </trkpt>
      <trkpt lat="59.8525214" lon="17.5993374">
        <ele>25.6123</ele>
        <time>2012-08-05T14:57:06Z</time>
      </trkpt>
      <trkpt lat="59.8521629" lon="17.5992728">
        <ele>27.5349</ele>
        <time>2012-08-05T14:57:14Z</time>
      </trkpt>
      <trkpt lat="59.8520188" lon="17.5992791">
        <ele>25.6123</ele>
        <time>2012-08-05T14:57:17Z</time>
      </trkpt>
      <trkpt lat="59.8518" lon="17.599203">
        <ele>24.651</ele>
        <time>2012-08-05T14:57:21Z</time>
      </trkpt>
      <trkpt lat="59.8515735" lon="17.5989592">
        <ele>25.1317</ele>
        <time>2012-08-05T14:57:26Z</time>
      </trkpt>
      <trkpt lat="59.8512118" lon="17.5988751">
        <ele>24.651</ele>
        <time>2012-08-05T14:57:33Z</time>
      </trkpt>
      <trkpt lat="59.8511573" lon="17.5988657">
        <ele>24.1703</ele>
        <time>2012-08-05T14:57:34Z</time>
      </trkpt>
      <trkpt lat="59.850971" lon="17.5986664">
        <ele>26.0929</ele>
        <time>2012-08-05T14:57:39Z</time>
      </trkpt>
      <trkpt lat="59.8509657" lon="17.5985015">
        <ele>30.4188</ele>
        <time>2012-08-05T14:57:42Z</time>
      </trkpt>
      <trkpt lat="59.8508351" lon="17.5982298">
        <ele>38.1094</ele>
        <time>2012-08-05T14:57:48Z</time>
      </trkpt>
      <trkpt lat="59.8505986" lon="17.5979945">
        <ele>39.5513</ele>
        <time>2012-08-05T14:57:54Z</time>
      </trkpt>
      <trkpt lat="59.8503904" lon="17.5978226">
        <ele>37.1481</ele>
        <time>2012-08-05T14:57:58Z</time>
      </trkpt>
      <trkpt lat="59.8500374" lon="17.5977704">
        <ele>32.8223</ele>
        <time>2012-08-05T14:58:04Z</time>
      </trkpt>
      <trkpt lat="59.8499308" lon="17.5977918">
        <ele>30.8995</ele>
        <time>2012-08-05T14:58:06Z</time>
      </trkpt>
      <trkpt lat="59.8497646" lon="17.5978933">
        <ele>29.4575</ele>
        <time>2012-08-05T14:58:09Z</time>
      </trkpt>
      <trkpt lat="59.8494748" lon="17.597874">
        <ele>24.1703</ele>
        <time>2012-08-05T14:58:14Z</time>
      </trkpt>
      <trkpt lat="59.8492835" lon="17.5976483">
        <ele>24.1703</ele>
        <time>2012-08-05T14:58:17Z</time>
      </trkpt>
      <trkpt lat="59.8490456" lon="17.5975941">
        <ele>25.6123</ele>
        <time>2012-08-05T14:58:22Z</time>
      </trkpt>
      <trkpt lat="59.8488311" lon="17.5975569">
        <ele>24.651</ele>
        <time>2012-08-05T14:58:26Z</time>
      </trkpt>
      <trkpt lat="59.8486794" lon="17.5976185">
        <ele>24.651</ele>
        <time>2012-08-05T14:58:30Z</time>
      </trkpt>
      <trkpt lat="59.8486446" lon="17.5976986">
        <ele>24.1703</ele>
        <time>2012-08-05T14:58:31Z</time>
      </trkpt>
      <trkpt lat="59.8484704" lon="17.5982013">
        <ele>25.1317</ele>
        <time>2012-08-05T14:58:37Z</time>
      </trkpt>
      <trkpt lat="59.8483176" lon="17.5982441">
        <ele>24.1703</ele>
        <time>2012-08-05T14:58:41Z</time>
      </trkpt>
      <trkpt lat="59.8482293" lon="17.598123">
        <ele>22.2476</ele>
        <time>2012-08-05T14:58:43Z</time>
      </trkpt>
      <trkpt lat="59.8481629" lon="17.598047">
        <ele>21.2864</ele>
        <time>2012-08-05T14:58:45Z</time>
      </trkpt>
      <trkpt lat="59.8480138" lon="17.5982563">
        <ele>18.8831</ele>
        <time>2012-08-05T14:58:49Z</time>
      </trkpt>
      <trkpt lat="59.8477883" lon="17.598281">
        <ele>17.4412</ele>
        <time>2012-08-05T14:58:52Z</time>
      </trkpt>
      <trkpt lat="59.8473994" lon="17.5983567">
        <ele>17.4412</ele>
        <time>2012-08-05T14:58:56Z</time>
      </trkpt>
      <trkpt lat="59.8470765" lon="17.59837">
        <ele>16.9604</ele>
        <time>2012-08-05T14:59:00Z</time>
      </trkpt>
      <trkpt lat="59.8469148" lon="17.598617">
        <ele>15.999</ele>
        <time>2012-08-05T14:59:03Z</time>
      </trkpt>
      <trkpt lat="59.8468901" lon="17.5987213">
        <ele>16.4797</ele>
        <time>2012-08-05T14:59:04Z</time>
      </trkpt>
      <trkpt lat="59.8467423" lon="17.5991993">
        <ele>17.4412</ele>
        <time>2012-08-05T14:59:09Z</time>
      </trkpt>
      <trkpt lat="59.8465674" lon="17.5993672">
        <ele>18.4023</ele>
        <time>2012-08-05T14:59:13Z</time>
      </trkpt>
      <trkpt lat="59.846456" lon="17.5993549">
        <ele>17.9218</ele>
        <time>2012-08-05T14:59:15Z</time>
      </trkpt>
      <trkpt lat="59.8461735" lon="17.5994196">
        <ele>16.9604</ele>
        <time>2012-08-05T14:59:20Z</time>
      </trkpt>
      <trkpt lat="59.8459168" lon="17.5997178">
        <ele>15.5184</ele>
        <time>2012-08-05T14:59:25Z</time>
      </trkpt>
      <trkpt lat="59.8456008" lon="17.6001284">
        <ele>14.557</ele>
        <time>2012-08-05T14:59:31Z</time>
      </trkpt>
      <trkpt lat="59.8452703" lon="17.600496">
        <ele>15.0377</ele>
        <time>2012-08-05T14:59:38Z</time>
      </trkpt>
      <trkpt lat="59.8451339" lon="17.6006624">
        <ele>15.5184</ele>
        <time>2012-08-05T14:59:41Z</time>
      </trkpt>
      <trkpt lat="59.845037" lon="17.6007462">
        <ele>15.5184</ele>
        <time>2012-08-05T14:59:43Z</time>
      </trkpt>
      <trkpt lat="59.844713" lon="17.6007881">
        <ele>15.0377</ele>
        <time>2012-08-05T14:59:49Z</time>
      </trkpt>
      <trkpt lat="59.8444503" lon="17.6007603">
        <ele>13.5958</ele>
        <time>2012-08-05T14:59:54Z</time>
      </trkpt>
      <trkpt lat="59.844398" lon="17.60076">
        <ele>13.5958</ele>
        <time>2012-08-05T14:59:55Z</time>
      </trkpt>
      <trkpt lat="59.8440732" lon="17.6008991">
        <ele>14.557</ele>
        <time>2012-08-05T15:00:02Z</time>
      </trkpt>
      <trkpt lat="59.8438219" lon="17.6010515">
        <ele>15.0377</ele>
        <time>2012-08-05T15:00:08Z</time>
      </trkpt>
      <trkpt lat="59.843636" lon="17.6009587">
        <ele>14.557</ele>
        <time>2012-08-05T15:00:13Z</time>
      </trkpt>
      <trkpt lat="59.8433211" lon="17.6008348">
        <ele>15.999</ele>
        <time>2012-08-05T15:00:20Z</time>
      </trkpt>
      <trkpt lat="59.8431071" lon="17.6009317">
        <ele>16.4797</ele>
        <time>2012-08-05T15:00:25Z</time>
      </trkpt>
      <trkpt lat="59.8428916" lon="17.6011678">
        <ele>16.9604</ele>
        <time>2012-08-05T15:00:31Z</time>
      </trkpt>
      <trkpt lat="59.8428362" lon="17.6012723">
        <ele>17.9218</ele>
        <time>2012-08-05T15:00:33Z</time>
      </trkpt>
      <trkpt lat="59.8426773" lon="17.6016968">
        <ele>21.2864</ele>
        <time>2012-08-05T15:00:40Z</time>
      </trkpt>
      <trkpt lat="59.8425207" lon="17.60227">
        <ele>25.6123</ele>
        <time>2012-08-05T15:00:48Z</time>
      </trkpt>
      <trkpt lat="59.8424788" lon="17.6024104">
        <ele>25.6123</ele>
        <time>2012-08-05T15:00:50Z</time>
      </trkpt>
      <trkpt lat="59.8423218" lon="17.6027116">
        <ele>27.0543</ele>
        <time>2012-08-05T15:00:56Z</time>
      </trkpt>
      <trkpt lat="59.8422063" lon="17.6029602">
        <ele>31.3801</ele>
        <time>2012-08-05T15:01:01Z</time>
      </trkpt>
      <trkpt lat="59.8419676" lon="17.6032161">
        <ele>30.4188</ele>
        <time>2012-08-05T15:01:07Z</time>
      </trkpt>
      <trkpt lat="59.8416121" lon="17.6034827">
        <ele>29.4575</ele>
        <time>2012-08-05T15:01:15Z</time>
      </trkpt>
      <trkpt lat="59.8413629" lon="17.6037407">
        <ele>29.9381</ele>
        <time>2012-08-05T15:01:21Z</time>
      </trkpt>
      <trkpt lat="59.8411146" lon="17.604031">
        <ele>29.9381</ele>
        <time>2012-08-05T15:01:27Z</time>
      </trkpt>
      <trkpt lat="59.8409851" lon="17.6041294">
        <ele>29.9381</ele>
        <time>2012-08-05T15:01:30Z</time>
      </trkpt>
      <trkpt lat="59.8408874" lon="17.6042417">
        <ele>29.4575</ele>
        <time>2012-08-05T15:01:34Z</time>
      </trkpt>
      <trkpt lat="59.8408574" lon="17.6042262">
        <ele>29.4575</ele>
        <time>2012-08-05T15:01:35Z</time>
      </trkpt>
      <trkpt lat="59.8407584" lon="17.6044138">
        <ele>28.4962</ele>
        <time>2012-08-05T15:01:40Z</time>
      </trkpt>
      <trkpt lat="59.8407599" lon="17.6051105">
        <ele>29.9381</ele>
        <time>2012-08-05T15:01:47Z</time>
      </trkpt>
      <trkpt lat="59.8407703" lon="17.6056635">
        <ele>33.3029</ele>
        <time>2012-08-05T15:01:52Z</time>
      </trkpt>
      <trkpt lat="59.840802" lon="17.6064274">
        <ele>37.1481</ele>
        <time>2012-08-05T15:01:59Z</time>
      </trkpt>
      <trkpt lat="59.8408007" lon="17.606862">
        <ele>37.6287</ele>
        <time>2012-08-05T15:02:03Z</time>
      </trkpt>
      <trkpt lat="59.8407033" lon="17.6073368">
        <ele>36.1868</ele>
        <time>2012-08-05T15:02:08Z</time>
      </trkpt>
      <trkpt lat="59.8405787" lon="17.6075361">
        <ele>35.2255</ele>
        <time>2012-08-05T15:02:11Z</time>
      </trkpt>
      <trkpt lat="59.8401571" lon="17.6080489">
        <ele>35.7061</ele>
        <time>2012-08-05T15:02:20Z</time>
      </trkpt>
      <trkpt lat="59.8400023" lon="17.6084454">
        <ele>35.2255</ele>
        <time>2012-08-05T15:02:25Z</time>
      </trkpt>
      <trkpt lat="59.8398073" lon="17.609454">
        <ele>36.1868</ele>
        <time>2012-08-05T15:02:35Z</time>
      </trkpt>
      <trkpt lat="59.8396715" lon="17.6102549">
        <ele>37.6287</ele>
        <time>2012-08-05T15:02:43Z</time>
      </trkpt>
      <trkpt lat="59.839638" lon="17.6104421">
        <ele>37.1481</ele>
        <time>2012-08-05T15:02:45Z</time>
      </trkpt>
      <trkpt lat="59.839616" lon="17.6106393">
        <ele>36.6675</ele>
        <time>2012-08-05T15:02:47Z</time>
      </trkpt>
      <trkpt lat="59.8394961" lon="17.6110546">
        <ele>35.2255</ele>
        <time>2012-08-05T15:02:52Z</time>
      </trkpt>
      <trkpt lat="59.8394016" lon="17.6112928">
        <ele>34.2642</ele>
        <time>2012-08-05T15:02:55Z</time>
      </trkpt>
      <trkpt lat="59.8393153" lon="17.6118161">
        <ele>35.7061</ele>
        <time>2012-08-05T15:03:00Z</time>
      </trkpt>
      <trkpt lat="59.8392344" lon="17.612445">
        <ele>40.5128</ele>
        <time>2012-08-05T15:03:06Z</time>
      </trkpt>
      <trkpt lat="59.8390537" lon="17.6127531">
        <ele>40.0321</ele>
        <time>2012-08-05T15:03:11Z</time>
      </trkpt>
      <trkpt lat="59.8388635" lon="17.6126454">
        <ele>37.1481</ele>
        <time>2012-08-05T15:03:14Z</time>
      </trkpt>
      <trkpt lat="59.8385787" lon="17.6123673">
        <ele>34.2642</ele>
        <time>2012-08-05T15:03:19Z</time>
      </trkpt>
      <trkpt lat="59.8383395" lon="17.6120362">
        <ele>33.3029</ele>
        <time>2012-08-05T15:03:24Z</time>
      </trkpt>
      <trkpt lat="59.8381302" lon="17.6118996">
        <ele>33.3029</ele>
        <time>2012-08-05T15:03:28Z</time>
      </trkpt>
      <trkpt lat="59.8377769" lon="17.6115707">
        <ele>34.7449</ele>
        <time>2012-08-05T15:03:35Z</time>
      </trkpt>
      <trkpt lat="59.8376846" lon="17.611487">
        <ele>35.7061</ele>
        <time>2012-08-05T15:03:37Z</time>
      </trkpt>
      <trkpt lat="59.8374997" lon="17.6113255">
        <ele>39.0707</ele>
        <time>2012-08-05T15:03:41Z</time>
      </trkpt>
      <trkpt lat="59.8373995" lon="17.6112944">
        <ele>38.1094</ele>
        <time>2012-08-05T15:03:43Z</time>
      </trkpt>
      <trkpt lat="59.8370705" lon="17.6112461">
        <ele>37.1481</ele>
        <time>2012-08-05T15:03:49Z</time>
      </trkpt>
      <trkpt lat="59.836703" lon="17.611439">
        <ele>37.1481</ele>
        <time>2012-08-05T15:03:57Z</time>
      </trkpt>
      <trkpt lat="59.8365693" lon="17.6115373">
        <ele>37.1481</ele>
        <time>2012-08-05T15:04:00Z</time>
      </trkpt>
      <trkpt lat="59.8362181" lon="17.6117802">
        <ele>37.1481</ele>
        <time>2012-08-05T15:04:07Z</time>
      </trkpt>
      <trkpt lat="59.83597" lon="17.6120552">
        <ele>36.1868</ele>
        <time>2012-08-05T15:04:12Z</time>
      </trkpt>
      <trkpt lat="59.8357118" lon="17.6123024">
        <ele>35.7061</ele>
        <time>2012-08-05T15:04:18Z</time>
      </trkpt>
      <trkpt lat="59.8356462" lon="17.6124867">
        <ele>34.7449</ele>
        <time>2012-08-05T15:04:23Z</time>
      </trkpt>
      <trkpt lat="59.8356964" lon="17.6125613">
        <ele>34.7449</ele>
        <time>2012-08-05T15:04:25Z</time>
      </trkpt>
      <trkpt lat="59.8358252" lon="17.612937">
        <ele>38.1094</ele>
        <time>2012-08-05T15:04:31Z</time>
      </trkpt>
      <trkpt lat="59.8359086" lon="17.6134099">
        <ele>40.9934</ele>
        <time>2012-08-05T15:04:37Z</time>
      </trkpt>
      <trkpt lat="59.8359238" lon="17.6135026">
        <ele>41.474</ele>
        <time>2012-08-05T15:04:38Z</time>
      </trkpt>
      <trkpt lat="59.8359893" lon="17.6137918">
        <ele>43.8773</ele>
        <time>2012-08-05T15:04:41Z</time>
      </trkpt>
      <trkpt lat="59.8360362" lon="17.614115">
        <ele>45.3192</ele>
        <time>2012-08-05T15:04:44Z</time>
      </trkpt>
      <trkpt lat="59.836078" lon="17.614823">
        <ele>54.9324</ele>
        <time>2012-08-05T15:04:50Z</time>
      </trkpt>
      <trkpt lat="59.8360856" lon="17.6149236">
        <ele>55.4131</ele>
        <time>2012-08-05T15:04:51Z</time>
      </trkpt>
      <trkpt lat="59.8361771" lon="17.6155022">
        <ele>58.2971</ele>
        <time>2012-08-05T15:04:57Z</time>
      </trkpt>
      <trkpt lat="59.8362645" lon="17.616012">
        <ele>61.181</ele>
        <time>2012-08-05T15:05:02Z</time>
      </trkpt>
      <trkpt lat="59.836278" lon="17.6161247">
        <ele>61.181</ele>
        <time>2012-08-05T15:05:03Z</time>
      </trkpt>
      <trkpt lat="59.8364009" lon="17.6166453">
        <ele>59.7391</ele>
        <time>2012-08-05T15:05:08Z</time>
      </trkpt>
      <trkpt lat="59.8365174" lon="17.6169898">
        <ele>61.181</ele>
        <time>2012-08-05T15:05:12Z</time>
      </trkpt>
      <trkpt lat="59.8365873" lon="17.617443">
        <ele>58.7777</ele>
        <time>2012-08-05T15:05:16Z</time>
      </trkpt>
      <trkpt lat="59.8366558" lon="17.6179151">
        <ele>56.3745</ele>
        <time>2012-08-05T15:05:20Z</time>
      </trkpt>
      <trkpt lat="59.8366999" lon="17.6181498">
        <ele>49.1646</ele>
        <time>2012-08-05T15:05:23Z</time>
      </trkpt>
      <trkpt lat="59.836877" lon="17.6183665">
        <ele>42.916</ele>
        <time>2012-08-05T15:05:28Z</time>
      </trkpt>
      <trkpt lat="59.8370717" lon="17.6187953">
        <ele>39.5513</ele>
        <time>2012-08-05T15:05:33Z</time>
      </trkpt>
      <trkpt lat="59.8371215" lon="17.6192128">
        <ele>39.0707</ele>
        <time>2012-08-05T15:05:36Z</time>
      </trkpt>
      <trkpt lat="59.8371829" lon="17.619563">
        <ele>36.1868</ele>
        <time>2012-08-05T15:05:39Z</time>
      </trkpt>
      <trkpt lat="59.8373651" lon="17.6200984">
        <ele>37.1481</ele>
        <time>2012-08-05T15:05:44Z</time>
      </trkpt>
      <trkpt lat="59.8373929" lon="17.6201934">
        <ele>34.7449</ele>
        <time>2012-08-05T15:05:45Z</time>
      </trkpt>
      <trkpt lat="59.8375733" lon="17.6204169">
        <ele>35.2255</ele>
        <time>2012-08-05T15:05:50Z</time>
      </trkpt>
      <trkpt lat="59.8377712" lon="17.6205091">
        <ele>35.7061</ele>
        <time>2012-08-05T15:05:55Z</time>
      </trkpt>
      <trkpt lat="59.8379655" lon="17.6205367">
        <ele>42.916</ele>
        <time>2012-08-05T15:05:58Z</time>
      </trkpt>
      <trkpt lat="59.8381915" lon="17.6206687">
        <ele>45.3192</ele>
        <time>2012-08-05T15:06:01Z</time>
      </trkpt>
      <trkpt lat="59.8384689" lon="17.6207911">
        <ele>43.3966</ele>
        <time>2012-08-05T15:06:06Z</time>
      </trkpt>
      <trkpt lat="59.838599" lon="17.6208614">
        <ele>43.3966</ele>
        <time>2012-08-05T15:06:08Z</time>
      </trkpt>
      <trkpt lat="59.838962" lon="17.6213069">
        <ele>53.9712</ele>
        <time>2012-08-05T15:06:14Z</time>
      </trkpt>
      <trkpt lat="59.8389984" lon="17.6213916">
        <ele>54.4518</ele>
        <time>2012-08-05T15:06:15Z</time>
      </trkpt>
      <trkpt lat="59.8390885" lon="17.6217572">
        <ele>50.126</ele>
        <time>2012-08-05T15:06:19Z</time>
      </trkpt>
      <trkpt lat="59.8390775" lon="17.6221989">
        <ele>51.0872</ele>
        <time>2012-08-05T15:06:23Z</time>
      </trkpt>
      <trkpt lat="59.8390913" lon="17.6226449">
        <ele>52.5292</ele>
        <time>2012-08-05T15:06:27Z</time>
      </trkpt>
      <trkpt lat="59.8391517" lon="17.6230604">
        <ele>51.0872</ele>
        <time>2012-08-05T15:06:31Z</time>
      </trkpt>
      <trkpt lat="59.8392683" lon="17.623363">
        <ele>51.5679</ele>
        <time>2012-08-05T15:06:34Z</time>
      </trkpt>
      <trkpt lat="59.8394071" lon="17.6237517">
        <ele>47.7225</ele>
        <time>2012-08-05T15:06:38Z</time>
      </trkpt>
      <trkpt lat="59.8396156" lon="17.6238486">
        <ele>46.7612</ele>
        <time>2012-08-05T15:06:42Z</time>
      </trkpt>
      <trkpt lat="59.8397326" lon="17.6239004">
        <ele>45.7999</ele>
        <time>2012-08-05T15:06:44Z</time>
      </trkpt>
      <trkpt lat="59.840059" lon="17.6241561">
        <ele>48.2034</ele>
        <time>2012-08-05T15:06:49Z</time>
      </trkpt>
      <trkpt lat="59.8402188" lon="17.6245856">
        <ele>46.7612</ele>
        <time>2012-08-05T15:06:53Z</time>
      </trkpt>
      <trkpt lat="59.8404563" lon="17.6251145">
        <ele>44.8386</ele>
        <time>2012-08-05T15:06:59Z</time>
      </trkpt>
      <trkpt lat="59.8404927" lon="17.6252041">
        <ele>46.2806</ele>
        <time>2012-08-05T15:07:00Z</time>
      </trkpt>
      <trkpt lat="59.8406402" lon="17.6254934">
        <ele>41.9547</ele>
        <time>2012-08-05T15:07:04Z</time>
      </trkpt>
      <trkpt lat="59.8408641" lon="17.6257181">
        <ele>45.7999</ele>
        <time>2012-08-05T15:07:08Z</time>
      </trkpt>
      <trkpt lat="59.8410134" lon="17.6257423">
        <ele>47.2418</ele>
        <time>2012-08-05T15:07:11Z</time>
      </trkpt>
      <trkpt lat="59.8413234" lon="17.6256172">
        <ele>45.3192</ele>
        <time>2012-08-05T15:07:17Z</time>
      </trkpt>
      <trkpt lat="59.8415713" lon="17.6255997">
        <ele>43.3966</ele>
        <time>2012-08-05T15:07:22Z</time>
      </trkpt>
      <trkpt lat="59.8418985" lon="17.6255644">
        <ele>42.916</ele>
        <time>2012-08-05T15:07:28Z</time>
      </trkpt>
      <trkpt lat="59.8419538" lon="17.625552">
        <ele>41.9547</ele>
        <time>2012-08-05T15:07:29Z</time>
      </trkpt>
      <trkpt lat="59.8423139" lon="17.6255189">
        <ele>43.3966</ele>
        <time>2012-08-05T15:07:34Z</time>
      </trkpt>
      <trkpt lat="59.8425817" lon="17.6256823">
        <ele>40.0321</ele>
        <time>2012-08-05T15:07:38Z</time>
      </trkpt>
      <trkpt lat="59.8427076" lon="17.6257123">
        <ele>40.0321</ele>
        <time>2012-08-05T15:07:40Z</time>
      </trkpt>
      <trkpt lat="59.8428703" lon="17.6256582">
        <ele>36.1868</ele>
        <time>2012-08-05T15:07:43Z</time>
      </trkpt>
      <trkpt lat="59.8431627" lon="17.6257476">
        <ele>35.7061</ele>
        <time>2012-08-05T15:07:47Z</time>
      </trkpt>
      <trkpt lat="59.8435629" lon="17.6258427">
        <ele>32.8223</ele>
        <time>2012-08-05T15:07:53Z</time>
      </trkpt>
      <trkpt lat="59.8437166" lon="17.6258954">
        <ele>30.8995</ele>
        <time>2012-08-05T15:07:55Z</time>
      </trkpt>
      <trkpt lat="59.8439682" lon="17.6260541">
        <ele>32.8223</ele>
        <time>2012-08-05T15:07:59Z</time>
      </trkpt>
      <trkpt lat="59.844085" lon="17.6262887">
        <ele>31.3801</ele>
        <time>2012-08-05T15:08:04Z</time>
      </trkpt>
      <trkpt lat="59.8440231" lon="17.6264176">
        <ele>29.9381</ele>
        <time>2012-08-05T15:08:06Z</time>
      </trkpt>
      <trkpt lat="59.8437211" lon="17.6269626">
        <ele>22.7283</ele>
        <time>2012-08-05T15:08:13Z</time>
      </trkpt>
      <trkpt lat="59.8436811" lon="17.62706">
        <ele>22.7283</ele>
        <time>2012-08-05T15:08:14Z</time>
      </trkpt>
      <trkpt lat="59.8434858" lon="17.6273813">
        <ele>20.8057</ele>
        <time>2012-08-05T15:08:18Z</time>
      </trkpt>
      <trkpt lat="59.8432936" lon="17.6277361">
        <ele>17.4412</ele>
        <time>2012-08-05T15:08:22Z</time>
      </trkpt>
      <trkpt lat="59.8429921" lon="17.6282172">
        <ele>18.8831</ele>
        <time>2012-08-05T15:08:28Z</time>
      </trkpt>
      <trkpt lat="59.8425819" lon="17.6287943">
        <ele>23.6896</ele>
        <time>2012-08-05T15:08:36Z</time>
      </trkpt>
      <trkpt lat="59.8422761" lon="17.6292513">
        <ele>24.1703</ele>
        <time>2012-08-05T15:08:42Z</time>
      </trkpt>
      <trkpt lat="59.8419098" lon="17.6298414">
        <ele>26.5736</ele>
        <time>2012-08-05T15:08:50Z</time>
      </trkpt>
      <trkpt lat="59.8415298" lon="17.6303636">
        <ele>28.9769</ele>
        <time>2012-08-05T15:08:58Z</time>
      </trkpt>
      <trkpt lat="59.8413215" lon="17.6305124">
        <ele>29.4575</ele>
        <time>2012-08-05T15:09:02Z</time>
      </trkpt>
      <trkpt lat="59.840958" lon="17.6305928">
        <ele>28.4962</ele>
        <time>2012-08-05T15:09:09Z</time>
      </trkpt>
      <trkpt lat="59.840756" lon="17.6307316">
        <ele>29.4575</ele>
        <time>2012-08-05T15:09:14Z</time>
      </trkpt>
      <trkpt lat="59.8407104" lon="17.6307307">
        <ele>29.9381</ele>
        <time>2012-08-05T15:09:15Z</time>
      </trkpt>
      <trkpt lat="59.8403782" lon="17.630726">
        <ele>28.9769</ele>
        <time>2012-08-05T15:09:21Z</time>
      </trkpt>
      <trkpt lat="59.84008" lon="17.6307073">
        <ele>29.9381</ele>
        <time>2012-08-05T15:09:26Z</time>
      </trkpt>
      <trkpt lat="59.8398074" lon="17.6306414">
        <ele>32.8223</ele>
        <time>2012-08-05T15:09:32Z</time>
      </trkpt>
      <trkpt lat="59.8395101" lon="17.6305116">
        <ele>34.7449</ele>
        <time>2012-08-05T15:09:38Z</time>
      </trkpt>
      <trkpt lat="59.8394189" lon="17.6304748">
        <ele>33.7834</ele>
        <time>2012-08-05T15:09:40Z</time>
      </trkpt>
      <trkpt lat="59.8393097" lon="17.6303749">
        <ele>33.7834</ele>
        <time>2012-08-05T15:09:43Z</time>
      </trkpt>
      <trkpt lat="59.8391433" lon="17.6303857">
        <ele>32.8223</ele>
        <time>2012-08-05T15:09:47Z</time>
      </trkpt>
      <trkpt lat="59.8389247" lon="17.6305065">
        <ele>32.3416</ele>
        <time>2012-08-05T15:09:51Z</time>
      </trkpt>
      <trkpt lat="59.8387336" lon="17.6305531">
        <ele>34.2642</ele>
        <time>2012-08-05T15:09:55Z</time>
      </trkpt>
      <trkpt lat="59.8385" lon="17.6306093">
        <ele>30.4188</ele>
        <time>2012-08-05T15:09:59Z</time>
      </trkpt>
      <trkpt lat="59.8382853" lon="17.6305733">
        <ele>27.0543</ele>
        <time>2012-08-05T15:10:04Z</time>
      </trkpt>
      <trkpt lat="59.8382241" lon="17.6306091">
        <ele>28.9769</ele>
        <time>2012-08-05T15:10:06Z</time>
      </trkpt>
      <trkpt lat="59.83811" lon="17.6306257">
        <ele>28.9769</ele>
        <time>2012-08-05T15:10:09Z</time>
      </trkpt>
      <trkpt lat="59.837869" lon="17.6306319">
        <ele>32.8223</ele>
        <time>2012-08-05T15:10:14Z</time>
      </trkpt>
      <trkpt lat="59.8374898" lon="17.6306488">
        <ele>22.7283</ele>
        <time>2012-08-05T15:10:20Z</time>
      </trkpt>
      <trkpt lat="59.8374324" lon="17.6306599">
        <ele>21.767</ele>
        <time>2012-08-05T15:10:21Z</time>
      </trkpt>
      <trkpt lat="59.8371635" lon="17.6305979">
        <ele>21.767</ele>
        <time>2012-08-05T15:10:26Z</time>
      </trkpt>
      <trkpt lat="59.837108" lon="17.6305457">
        <ele>23.6896</ele>
        <time>2012-08-05T15:10:27Z</time>
      </trkpt>
      <trkpt lat="59.8369993" lon="17.6304223">
        <ele>22.7283</ele>
        <time>2012-08-05T15:10:29Z</time>
      </trkpt>
      <trkpt lat="59.8369103" lon="17.6299604">
        <ele>31.8607</ele>
        <time>2012-08-05T15:10:35Z</time>
      </trkpt>
      <trkpt lat="59.8369583" lon="17.6295156">
        <ele>41.474</ele>
        <time>2012-08-05T15:10:38Z</time>
      </trkpt>
      <trkpt lat="59.8369433" lon="17.6292352">
        <ele>46.2806</ele>
        <time>2012-08-05T15:10:41Z</time>
      </trkpt>
      <trkpt lat="59.8369205" lon="17.6291161">
        <ele>49.6453</ele>
        <time>2012-08-05T15:10:43Z</time>
      </trkpt>
      <trkpt lat="59.836821" lon="17.628966">
        <ele>51.5679</ele>
        <time>2012-08-05T15:10:47Z</time>
      </trkpt>
      <trkpt lat="59.8367502" lon="17.6288448">
        <ele>56.3745</ele>
        <time>2012-08-05T15:10:51Z</time>
      </trkpt>
      <trkpt lat="59.8366735" lon="17.6286894">
        <ele>66.4683</ele>
        <time>2012-08-05T15:10:55Z</time>
      </trkpt>
      <trkpt lat="59.8364259" lon="17.6285249">
        <ele>70.3135</ele>
        <time>2012-08-05T15:11:01Z</time>
      </trkpt>
      <trkpt lat="59.8362854" lon="17.628397">
        <ele>68.8716</ele>
        <time>2012-08-05T15:11:04Z</time>
      </trkpt>
      <trkpt lat="59.836125" lon="17.62805">
        <ele>68.3909</ele>
        <time>2012-08-05T15:11:09Z</time>
      </trkpt>
      <trkpt lat="59.8359874" lon="17.6278382">
        <ele>72.7169</ele>
        <time>2012-08-05T15:11:15Z</time>
      </trkpt>
      <trkpt lat="59.8359291" lon="17.6276853">
        <ele>77.5234</ele>
        <time>2012-08-05T15:11:19Z</time>
      </trkpt>
      <trkpt lat="59.8357406" lon="17.6274386">
        <ele>77.0428</ele>
        <time>2012-08-05T15:11:25Z</time>
      </trkpt>
      <trkpt lat="59.8357358" lon="17.6273492">
        <ele>79.446</ele>
        <time>2012-08-05T15:11:29Z</time>
      </trkpt>
      <trkpt lat="59.8356846" lon="17.627105">
        <ele>86.656</ele>
        <time>2012-08-05T15:11:33Z</time>
      </trkpt>
      <trkpt lat="59.8355146" lon="17.6267435">
        <ele>93.3851</ele>
        <time>2012-08-05T15:11:39Z</time>
      </trkpt>
      <trkpt lat="59.835484" lon="17.6266789">
        <ele>94.8271</ele>
        <time>2012-08-05T15:11:40Z</time>
      </trkpt>
      <trkpt lat="59.8353371" lon="17.6264337">
        <ele>96.2693</ele>
        <time>2012-08-05T15:11:43Z</time>
      </trkpt>
      <trkpt lat="59.8351337" lon="17.6261566">
        <ele>96.2693</ele>
        <time>2012-08-05T15:11:47Z</time>
      </trkpt>
      <trkpt lat="59.8349603" lon="17.6258678">
        <ele>96.2693</ele>
        <time>2012-08-05T15:11:52Z</time>
      </trkpt>
      <trkpt lat="59.8348538" lon="17.6256258">
        <ele>96.7499</ele>
        <time>2012-08-05T15:11:56Z</time>
      </trkpt>
      <trkpt lat="59.8348066" lon="17.6255095">
        <ele>97.7112</ele>
        <time>2012-08-05T15:11:58Z</time>
      </trkpt>
      <trkpt lat="59.8346899" lon="17.6253443">
        <ele>96.2693</ele>
        <time>2012-08-05T15:12:01Z</time>
      </trkpt>
      <trkpt lat="59.8345741" lon="17.6251664">
        <ele>97.2305</ele>
        <time>2012-08-05T15:12:04Z</time>
      </trkpt>
      <trkpt lat="59.8344588" lon="17.624812">
        <ele>102.518</ele>
        <time>2012-08-05T15:12:10Z</time>
      </trkpt>
      <trkpt lat="59.8344103" lon="17.6246722">
        <ele>103.479</ele>
        <time>2012-08-05T15:12:14Z</time>
      </trkpt>
      <trkpt lat="59.8343491" lon="17.6241949">
        <ele>101.556</ele>
        <time>2012-08-05T15:12:20Z</time>
      </trkpt>
      <trkpt lat="59.834333" lon="17.6241079">
        <ele>103.96</ele>
        <time>2012-08-05T15:12:21Z</time>
      </trkpt>
      <trkpt lat="59.834322" lon="17.6239272">
        <ele>104.921</ele>
        <time>2012-08-05T15:12:24Z</time>
      </trkpt>
      <trkpt lat="59.8343241" lon="17.623596">
        <ele>113.573</ele>
        <time>2012-08-05T15:12:29Z</time>
      </trkpt>
      <trkpt lat="59.8341848" lon="17.6231798">
        <ele>115.976</ele>
        <time>2012-08-05T15:12:35Z</time>
      </trkpt>
      <trkpt lat="59.8339435" lon="17.6225068">
        <ele>113.092</ele>
        <time>2012-08-05T15:12:41Z</time>
      </trkpt>
      <trkpt lat="59.8335729" lon="17.6217018">
        <ele>103.96</ele>
        <time>2012-08-05T15:12:47Z</time>
      </trkpt>
      <trkpt lat="59.8331624" lon="17.6209391">
        <ele>91.4625</ele>
        <time>2012-08-05T15:12:53Z</time>
      </trkpt>
      <trkpt lat="59.8328517" lon="17.6203057">
        <ele>79.9266</ele>
        <time>2012-08-05T15:12:58Z</time>
      </trkpt>
      <trkpt lat="59.8324538" lon="17.619425">
        <ele>67.9103</ele>
        <time>2012-08-05T15:13:05Z</time>
      </trkpt>
      <trkpt lat="59.8321558" lon="17.6187714">
        <ele>62.1423</ele>
        <time>2012-08-05T15:13:10Z</time>
      </trkpt>
      <trkpt lat="59.8321034" lon="17.6186497">
        <ele>60.2197</ele>
        <time>2012-08-05T15:13:11Z</time>
      </trkpt>
      <trkpt lat="59.8318679" lon="17.618111">
        <ele>56.3745</ele>
        <time>2012-08-05T15:13:15Z</time>
      </trkpt>
      <trkpt lat="59.8314068" lon="17.617053">
        <ele>46.7612</ele>
        <time>2012-08-05T15:13:23Z</time>
      </trkpt>
      <trkpt lat="59.8311805" lon="17.6163408">
        <ele>40.9934</ele>
        <time>2012-08-05T15:13:30Z</time>
      </trkpt>
      <trkpt lat="59.8311577" lon="17.6162613">
        <ele>40.0321</ele>
        <time>2012-08-05T15:13:31Z</time>
      </trkpt>
      <trkpt lat="59.8311279" lon="17.6161358">
        <ele>39.5513</ele>
        <time>2012-08-05T15:13:35Z</time>
      </trkpt>
      <trkpt lat="59.8311293" lon="17.6160824">
        <ele>40.0321</ele>
        <time>2012-08-05T15:13:37Z</time>
      </trkpt>
      <trkpt lat="59.8309756" lon="17.6160322">
        <ele>38.5901</ele>
        <time>2012-08-05T15:13:42Z</time>
      </trkpt>
      <trkpt lat="59.8306552" lon="17.6162855">
        <ele>31.3801</ele>
        <time>2012-08-05T15:13:49Z</time>
      </trkpt>
      <trkpt lat="59.8303319" lon="17.6166134">
        <ele>28.0155</ele>
        <time>2012-08-05T15:13:57Z</time>
      </trkpt>
      <trkpt lat="59.8302859" lon="17.6166605">
        <ele>27.0543</ele>
        <time>2012-08-05T15:13:58Z</time>
      </trkpt>
      <trkpt lat="59.8298422" lon="17.6171428">
        <ele>24.1703</ele>
        <time>2012-08-05T15:14:07Z</time>
      </trkpt>
      <trkpt lat="59.8295185" lon="17.6175168">
        <ele>23.6896</ele>
        <time>2012-08-05T15:14:13Z</time>
      </trkpt>
      <trkpt lat="59.8291557" lon="17.617929">
        <ele>23.6896</ele>
        <time>2012-08-05T15:14:20Z</time>
      </trkpt>
      <trkpt lat="59.8288296" lon="17.6182136">
        <ele>24.1703</ele>
        <time>2012-08-05T15:14:26Z</time>
      </trkpt>
      <trkpt lat="59.8284941" lon="17.618528">
        <ele>27.5349</ele>
        <time>2012-08-05T15:14:32Z</time>
      </trkpt>
      <trkpt lat="59.8283006" lon="17.6186678">
        <ele>28.9769</ele>
        <time>2012-08-05T15:14:36Z</time>
      </trkpt>
      <trkpt lat="59.8278432" lon="17.6188169">
        <ele>29.9381</ele>
        <time>2012-08-05T15:14:44Z</time>
      </trkpt>
      <trkpt lat="59.8274029" lon="17.6188465">
        <ele>28.4962</ele>
        <time>2012-08-05T15:14:51Z</time>
      </trkpt>
      <trkpt lat="59.8272658" lon="17.6188398">
        <ele>26.0929</ele>
        <time>2012-08-05T15:14:53Z</time>
      </trkpt>
      <trkpt lat="59.826771" lon="17.6186887">
        <ele>23.6896</ele>
        <time>2012-08-05T15:15:01Z</time>
      </trkpt>
      <trkpt lat="59.8264301" lon="17.6185218">
        <ele>25.6123</ele>
        <time>2012-08-05T15:15:07Z</time>
      </trkpt>
      <trkpt lat="59.8261305" lon="17.6182928">
        <ele>26.5736</ele>
        <time>2012-08-05T15:15:13Z</time>
      </trkpt>
      <trkpt lat="59.8260849" lon="17.618252">
        <ele>27.0543</ele>
        <time>2012-08-05T15:15:14Z</time>
      </trkpt>
      <trkpt lat="59.8257543" lon="17.6180798">
        <ele>32.8223</ele>
        <time>2012-08-05T15:15:20Z</time>
      </trkpt>
      <trkpt lat="59.8254203" lon="17.6176925">
        <ele>33.7834</ele>
        <time>2012-08-05T15:15:26Z</time>
      </trkpt>
      <trkpt lat="59.8250098" lon="17.6173205">
        <ele>33.3029</ele>
        <time>2012-08-05T15:15:33Z</time>
      </trkpt>
      <trkpt lat="59.8245003" lon="17.6168771">
        <ele>31.3801</ele>
        <time>2012-08-05T15:15:42Z</time>
      </trkpt>
      <trkpt lat="59.8241842" lon="17.61662">
        <ele>29.4575</ele>
        <time>2012-08-05T15:15:48Z</time>
      </trkpt>
      <trkpt lat="59.8238162" lon="17.6162865">
        <ele>30.4188</ele>
        <time>2012-08-05T15:15:56Z</time>
      </trkpt>
      <trkpt lat="59.823431" lon="17.6159969">
        <ele>31.3801</ele>
        <time>2012-08-05T15:16:04Z</time>
      </trkpt>
      <trkpt lat="59.8232685" lon="17.6159031">
        <ele>32.3416</ele>
        <time>2012-08-05T15:16:07Z</time>
      </trkpt>
      <trkpt lat="59.8231258" lon="17.6157697">
        <ele>33.3029</ele>
        <time>2012-08-05T15:16:10Z</time>
      </trkpt>
      <trkpt lat="59.8229494" lon="17.6156805">
        <ele>32.8223</ele>
        <time>2012-08-05T15:16:13Z</time>
      </trkpt>
      <trkpt lat="59.8227607" lon="17.6155453">
        <ele>33.3029</ele>
        <time>2012-08-05T15:16:16Z</time>
      </trkpt>
      <trkpt lat="59.8224813" lon="17.6155353">
        <ele>29.9381</ele>
        <time>2012-08-05T15:16:20Z</time>
      </trkpt>
      <trkpt lat="59.8223523" lon="17.6155528">
        <ele>27.5349</ele>
        <time>2012-08-05T15:16:22Z</time>
      </trkpt>
      <trkpt lat="59.8220997" lon="17.6154998">
        <ele>22.7283</ele>
        <time>2012-08-05T15:16:26Z</time>
      </trkpt>
      <trkpt lat="59.8216858" lon="17.6156689">
        <ele>21.767</ele>
        <time>2012-08-05T15:16:33Z</time>
      </trkpt>
      <trkpt lat="59.8214619" lon="17.6157619">
        <ele>21.2864</ele>
        <time>2012-08-05T15:16:37Z</time>
      </trkpt>
      <trkpt lat="59.8212756" lon="17.6158798">
        <ele>20.8057</ele>
        <time>2012-08-05T15:16:41Z</time>
      </trkpt>
      <trkpt lat="59.8211958" lon="17.6160054">
        <ele>21.2864</ele>
        <time>2012-08-05T15:16:43Z</time>
      </trkpt>
      <trkpt lat="59.8208292" lon="17.6162887">
        <ele>22.2476</ele>
        <time>2012-08-05T15:16:50Z</time>
      </trkpt>
      <trkpt lat="59.8204481" lon="17.6165549">
        <ele>22.2476</ele>
        <time>2012-08-05T15:16:57Z</time>
      </trkpt>
      <trkpt lat="59.8201627" lon="17.6165987">
        <ele>18.8831</ele>
        <time>2012-08-05T15:17:02Z</time>
      </trkpt>
      <trkpt lat="59.8197812" lon="17.6166886">
        <ele>16.9604</ele>
        <time>2012-08-05T15:17:08Z</time>
      </trkpt>
      <trkpt lat="59.8195801" lon="17.6171405">
        <ele>21.767</ele>
        <time>2012-08-05T15:17:11Z</time>
      </trkpt>
      <trkpt lat="59.8194592" lon="17.6170335">
        <ele>22.2476</ele>
        <time>2012-08-05T15:17:15Z</time>
      </trkpt>
      <trkpt lat="59.8194402" lon="17.6169491">
        <ele>23.209</ele>
        <time>2012-08-05T15:17:16Z</time>
      </trkpt>
      <trkpt lat="59.8193755" lon="17.616604">
        <ele>29.9381</ele>
        <time>2012-08-05T15:17:20Z</time>
      </trkpt>
      <trkpt lat="59.8191983" lon="17.6161716">
        <ele>31.8607</ele>
        <time>2012-08-05T15:17:24Z</time>
      </trkpt>
      <trkpt lat="59.818987" lon="17.6157943">
        <ele>30.4188</ele>
        <time>2012-08-05T15:17:28Z</time>
      </trkpt>
      <trkpt lat="59.8189254" lon="17.6157391">
        <ele>30.4188</ele>
        <time>2012-08-05T15:17:30Z</time>
      </trkpt>
      <trkpt lat="59.818731" lon="17.6154205">
        <ele>32.8223</ele>
        <time>2012-08-05T15:17:35Z</time>
      </trkpt>
      <trkpt lat="59.8186424" lon="17.6153049">
        <ele>32.3416</ele>
        <time>2012-08-05T15:17:37Z</time>
      </trkpt>
      <trkpt lat="59.8185436" lon="17.6150351">
        <ele>35.7061</ele>
        <time>2012-08-05T15:17:41Z</time>
      </trkpt>
      <trkpt lat="59.8183186" lon="17.6149028">
        <ele>32.3416</ele>
        <time>2012-08-05T15:17:46Z</time>
      </trkpt>
      <trkpt lat="59.8181637" lon="17.6148018">
        <ele>31.3801</ele>
        <time>2012-08-05T15:17:49Z</time>
      </trkpt>
      <trkpt lat="59.8181305" lon="17.6147264">
        <ele>31.8607</ele>
        <time>2012-08-05T15:17:50Z</time>
      </trkpt>
      <trkpt lat="59.8180189" lon="17.6143138">
        <ele>31.3801</ele>
        <time>2012-08-05T15:17:55Z</time>
      </trkpt>
      <trkpt lat="59.8180116" lon="17.6142451">
        <ele>31.8607</ele>
        <time>2012-08-05T15:17:57Z</time>
      </trkpt>
      <trkpt lat="59.8179863" lon="17.6142201">
        <ele>31.8607</ele>
        <time>2012-08-05T15:18:07Z</time>
      </trkpt>
      <trkpt lat="59.8179836" lon="17.6142081">
        <ele>31.8607</ele>
        <time>2012-08-05T15:18:08Z</time>
      </trkpt>
      <trkpt lat="59.8179324" lon="17.6139989">
        <ele>30.8995</ele>
        <time>2012-08-05T15:18:14Z</time>
      </trkpt>
      <trkpt lat="59.8177757" lon="17.6137593">
        <ele>25.6123</ele>
        <time>2012-08-05T15:18:18Z</time>
      </trkpt>
      <trkpt lat="59.8176619" lon="17.6135552">
        <ele>23.6896</ele>
        <time>2012-08-05T15:18:21Z</time>
      </trkpt>
      <trkpt lat="59.8174159" lon="17.613136">
        <ele>23.209</ele>
        <time>2012-08-05T15:18:27Z</time>
      </trkpt>
      <trkpt lat="59.8171992" lon="17.6128185">
        <ele>23.209</ele>
        <time>2012-08-05T15:18:31Z</time>
      </trkpt>
      <trkpt lat="59.8169119" lon="17.6124807">
        <ele>25.1317</ele>
        <time>2012-08-05T15:18:36Z</time>
      </trkpt>
      <trkpt lat="59.8167646" lon="17.6123987">
        <ele>23.209</ele>
        <time>2012-08-05T15:18:38Z</time>
      </trkpt>
      <trkpt lat="59.8163652" lon="17.6121377">
        <ele>23.209</ele>
        <time>2012-08-05T15:18:44Z</time>
      </trkpt>
      <trkpt lat="59.8161307" lon="17.6118693">
        <ele>22.7283</ele>
        <time>2012-08-05T15:18:48Z</time>
      </trkpt>
      <trkpt lat="59.8158793" lon="17.611586">
        <ele>22.2476</ele>
        <time>2012-08-05T15:18:53Z</time>
      </trkpt>
      <trkpt lat="59.815624" lon="17.6113212">
        <ele>18.4023</ele>
        <time>2012-08-05T15:18:58Z</time>
      </trkpt>
      <trkpt lat="59.8153179" lon="17.6111821">
        <ele>16.9604</ele>
        <time>2012-08-05T15:19:04Z</time>
      </trkpt>
      <trkpt lat="59.8150859" lon="17.6110202">
        <ele>15.999</ele>
        <time>2012-08-05T15:19:08Z</time>
      </trkpt>
      <trkpt lat="59.8149155" lon="17.610906">
        <ele>14.0764</ele>
        <time>2012-08-05T15:19:11Z</time>
      </trkpt>
      <trkpt lat="59.8144679" lon="17.6108219">
        <ele>12.1538</ele>
        <time>2012-08-05T15:19:17Z</time>
      </trkpt>
      <trkpt lat="59.8139955" lon="17.610855">
        <ele>7.82788</ele>
        <time>2012-08-05T15:19:23Z</time>
      </trkpt>
      <trkpt lat="59.8138613" lon="17.610908">
        <ele>6.86646</ele>
        <time>2012-08-05T15:19:25Z</time>
      </trkpt>
      <trkpt lat="59.8134644" lon="17.6109138">
        <ele>4.46326</ele>
        <time>2012-08-05T15:19:31Z</time>
      </trkpt>
      <trkpt lat="59.813118" lon="17.6110132">
        <ele>6.38586</ele>
        <time>2012-08-05T15:19:36Z</time>
      </trkpt>
      <trkpt lat="59.812773" lon="17.6110187">
        <ele>3.98267</ele>
        <time>2012-08-05T15:19:40Z</time>
      </trkpt>
      <trkpt lat="59.8123364" lon="17.6109049">
        <ele>3.50195</ele>
        <time>2012-08-05T15:19:45Z</time>
      </trkpt>
      <trkpt lat="59.8117862" lon="17.6106537">
        <ele>3.02124</ele>
        <time>2012-08-05T15:19:52Z</time>
      </trkpt>
      <trkpt lat="59.8112478" lon="17.6103181">
        <ele>3.50195</ele>
        <time>2012-08-05T15:20:00Z</time>
      </trkpt>
      <trkpt lat="59.8108946" lon="17.6100331">
        <ele>3.98267</ele>
        <time>2012-08-05T15:20:06Z</time>
      </trkpt>
      <trkpt lat="59.8104026" lon="17.6095891">
        <ele>5.42456</ele>
        <time>2012-08-05T15:20:15Z</time>
      </trkpt>
      <trkpt lat="59.809925" lon="17.6091285">
        <ele>4.46326</ele>
        <time>2012-08-05T15:20:24Z</time>
      </trkpt>
      <trkpt lat="59.8095737" lon="17.608796">
        <ele>5.90527</ele>
        <time>2012-08-05T15:20:31Z</time>
      </trkpt>
      <trkpt lat="59.8091705" lon="17.6084293">
        <ele>6.86646</ele>
        <time>2012-08-05T15:20:39Z</time>
      </trkpt>
      <trkpt lat="59.8088894" lon="17.6082697">
        <ele>7.34717</ele>
        <time>2012-08-05T15:20:44Z</time>
      </trkpt>
      <trkpt lat="59.808532" lon="17.6078834">
        <ele>9.75061</ele>
        <time>2012-08-05T15:20:52Z</time>
      </trkpt>
      <trkpt lat="59.8083868" lon="17.607742">
        <ele>8.78918</ele>
        <time>2012-08-05T15:20:55Z</time>
      </trkpt>
      <trkpt lat="59.8082161" lon="17.6075042">
        <ele>8.78918</ele>
        <time>2012-08-05T15:20:59Z</time>
      </trkpt>
      <trkpt lat="59.8078823" lon="17.6072491">
        <ele>8.78918</ele>
        <time>2012-08-05T15:21:06Z</time>
      </trkpt>
      <trkpt lat="59.8077156" lon="17.6071519">
        <ele>10.7118</ele>
        <time>2012-08-05T15:21:10Z</time>
      </trkpt>
      <trkpt lat="59.8074565" lon="17.6070582">
        <ele>10.7118</ele>
        <time>2012-08-05T15:21:15Z</time>
      </trkpt>
      <trkpt lat="59.807342" lon="17.606999">
        <ele>9.75061</ele>
        <time>2012-08-05T15:21:17Z</time>
      </trkpt>
      <trkpt lat="59.8068985" lon="17.6068176">
        <ele>9.75061</ele>
        <time>2012-08-05T15:21:26Z</time>
      </trkpt>
      <trkpt lat="59.8066853" lon="17.6067045">
        <ele>11.1925</ele>
        <time>2012-08-05T15:21:31Z</time>
      </trkpt>
      <trkpt lat="59.8064233" lon="17.606493">
        <ele>16.9604</ele>
        <time>2012-08-05T15:21:37Z</time>
      </trkpt>
      <trkpt lat="59.8062771" lon="17.6063623">
        <ele>17.9218</ele>
        <time>2012-08-05T15:21:40Z</time>
      </trkpt>
      <trkpt lat="59.8060493" lon="17.6062048">
        <ele>21.767</ele>
        <time>2012-08-05T15:21:45Z</time>
      </trkpt>
      <trkpt lat="59.8058273" lon="17.605999">
        <ele>23.6896</ele>
        <time>2012-08-05T15:21:49Z</time>
      </trkpt>
      <trkpt lat="59.8056054" lon="17.605857">
        <ele>24.1703</ele>
        <time>2012-08-05T15:21:53Z</time>
      </trkpt>
      <trkpt lat="59.8053176" lon="17.6055975">
        <ele>21.2864</ele>
        <time>2012-08-05T15:21:58Z</time>
      </trkpt>
      <trkpt lat="59.8049078" lon="17.6054911">
        <ele>12.1538</ele>
        <time>2012-08-05T15:22:04Z</time>
      </trkpt>
      <trkpt lat="59.8046831" lon="17.6053804">
        <ele>11.1925</ele>
        <time>2012-08-05T15:22:07Z</time>
      </trkpt>
      <trkpt lat="59.8045558" lon="17.6053703">
        <ele>11.6732</ele>
        <time>2012-08-05T15:22:09Z</time>
      </trkpt>
      <trkpt lat="59.8040125" lon="17.6054181">
        <ele>14.557</ele>
        <time>2012-08-05T15:22:17Z</time>
      </trkpt>
      <trkpt lat="59.803845" lon="17.6054757">
        <ele>14.0764</ele>
        <time>2012-08-05T15:22:20Z</time>
      </trkpt>
      <trkpt lat="59.8034197" lon="17.6057942">
        <ele>11.6732</ele>
        <time>2012-08-05T15:22:28Z</time>
      </trkpt>
      <trkpt lat="59.8033644" lon="17.6058397">
        <ele>10.7118</ele>
        <time>2012-08-05T15:22:29Z</time>
      </trkpt>
      <trkpt lat="59.8030417" lon="17.6062232">
        <ele>6.86646</ele>
        <time>2012-08-05T15:22:35Z</time>
      </trkpt>
      <trkpt lat="59.8027105" lon="17.6066904">
        <ele>3.98267</ele>
        <time>2012-08-05T15:22:41Z</time>
      </trkpt>
      <trkpt lat="59.802417" lon="17.6071364">
        <ele>3.50195</ele>
        <time>2012-08-05T15:22:47Z</time>
      </trkpt>
      <trkpt lat="59.8021842" lon="17.6075736">
        <ele>6.86646</ele>
        <time>2012-08-05T15:22:53Z</time>
      </trkpt>
      <trkpt lat="59.8021482" lon="17.6076333">
        <ele>6.86646</ele>
        <time>2012-08-05T15:22:54Z</time>
      </trkpt>
      <trkpt lat="59.801994" lon="17.6078852">
        <ele>6.86646</ele>
        <time>2012-08-05T15:22:58Z</time>
      </trkpt>
      <trkpt lat="59.8017575" lon="17.6083107">
        <ele>11.1925</ele>
        <time>2012-08-05T15:23:04Z</time>
      </trkpt>
      <trkpt lat="59.8015669" lon="17.6086773">
        <ele>11.6732</ele>
        <time>2012-08-05T15:23:09Z</time>
      </trkpt>
      <trkpt lat="59.801294" lon="17.6091556">
        <ele>11.6732</ele>
        <time>2012-08-05T15:23:16Z</time>
      </trkpt>
      <trkpt lat="59.8012597" lon="17.609214">
        <ele>11.6732</ele>
        <time>2012-08-05T15:23:17Z</time>
      </trkpt>
      <trkpt lat="59.8012194" lon="17.6093655">
        <ele>11.6732</ele>
        <time>2012-08-05T15:23:19Z</time>
      </trkpt>
      <trkpt lat="59.8011955" lon="17.6095235">
        <ele>11.1925</ele>
        <time>2012-08-05T15:23:22Z</time>
      </trkpt>
      <trkpt lat="59.8011679" lon="17.6095145">
        <ele>12.1538</ele>
        <time>2012-08-05T15:23:26Z</time>
      </trkpt>
      <trkpt lat="59.8012099" lon="17.6091466">
        <ele>13.1151</ele>
        <time>2012-08-05T15:23:32Z</time>
      </trkpt>
      <trkpt lat="59.8012098" lon="17.609094">
        <ele>14.0764</ele>
        <time>2012-08-05T15:23:33Z</time>
      </trkpt>
      <trkpt lat="59.801102" lon="17.6091774">
        <ele>14.0764</ele>
        <time>2012-08-05T15:23:37Z</time>
      </trkpt>
      <trkpt lat="59.8007898" lon="17.6096649">
        <ele>10.7118</ele>
        <time>2012-08-05T15:23:44Z</time>
      </trkpt>
      <trkpt lat="59.8004723" lon="17.6099733">
        <ele>8.30859</ele>
        <time>2012-08-05T15:23:49Z</time>
      </trkpt>
      <trkpt lat="59.8000097" lon="17.6104677">
        <ele>8.30859</ele>
        <time>2012-08-05T15:23:56Z</time>
      </trkpt>
      <trkpt lat="59.7997966" lon="17.6106376">
        <ele>6.86646</ele>
        <time>2012-08-05T15:23:59Z</time>
      </trkpt>
      <trkpt lat="59.7993115" lon="17.6107713">
        <ele>4.46326</ele>
        <time>2012-08-05T15:24:05Z</time>
      </trkpt>
      <trkpt lat="59.7989804" lon="17.6110485">
        <ele>4.46326</ele>
        <time>2012-08-05T15:24:09Z</time>
      </trkpt>
      <trkpt lat="59.7986173" lon="17.611156">
        <ele>0</ele>
        <time>2012-08-05T15:24:14Z</time>
      </trkpt>
      <trkpt lat="59.7982361" lon="17.6114091">
        <ele>0</ele>
        <time>2012-08-05T15:24:19Z</time>
      </trkpt>
      <trkpt lat="59.797989" lon="17.6116457">
        <ele>1.09863</ele>
        <time>2012-08-05T15:24:23Z</time>
      </trkpt>
      <trkpt lat="59.7976704" lon="17.6120229">
        <ele>1.57935</ele>
        <time>2012-08-05T15:24:29Z</time>
      </trkpt>
      <trkpt lat="59.7973093" lon="17.6121191">
        <ele>2.54065</ele>
        <time>2012-08-05T15:24:35Z</time>
      </trkpt>
      <trkpt lat="59.7972021" lon="17.6121125">
        <ele>3.50195</ele>
        <time>2012-08-05T15:24:37Z</time>
      </trkpt>
      <trkpt lat="59.7969447" lon="17.612147">
        <ele>5.42456</ele>
        <time>2012-08-05T15:24:42Z</time>
      </trkpt>
      <trkpt lat="59.7968084" lon="17.6122096">
        <ele>7.34717</ele>
        <time>2012-08-05T15:24:45Z</time>
      </trkpt>
      <trkpt lat="59.7966257" lon="17.6123253">
        <ele>11.6732</ele>
        <time>2012-08-05T15:24:51Z</time>
      </trkpt>
      <trkpt lat="59.796422" lon="17.6124619">
        <ele>14.557</ele>
        <time>2012-08-05T15:24:57Z</time>
      </trkpt>
      <trkpt lat="59.7962101" lon="17.612619">
        <ele>15.5184</ele>
        <time>2012-08-05T15:25:02Z</time>
      </trkpt>
      <trkpt lat="59.7961095" lon="17.6126687">
        <ele>13.5958</ele>
        <time>2012-08-05T15:25:04Z</time>
      </trkpt>
      <trkpt lat="59.7958174" lon="17.6127462">
        <ele>7.82788</ele>
        <time>2012-08-05T15:25:09Z</time>
      </trkpt>
      <trkpt lat="59.7957504" lon="17.6127325">
        <ele>7.34717</ele>
        <time>2012-08-05T15:25:10Z</time>
      </trkpt>
      <trkpt lat="59.7956315" lon="17.612719">
        <ele>5.90527</ele>
        <time>2012-08-05T15:25:12Z</time>
      </trkpt>
      <trkpt lat="59.7953672" lon="17.612693">
        <ele>4.46326</ele>
        <time>2012-08-05T15:25:16Z</time>
      </trkpt>
      <trkpt lat="59.7951718" lon="17.612937">
        <ele>4.94385</ele>
        <time>2012-08-05T15:25:19Z</time>
      </trkpt>
      <trkpt lat="59.7950677" lon="17.6131584">
        <ele>4.94385</ele>
        <time>2012-08-05T15:25:21Z</time>
      </trkpt>
      <trkpt lat="59.7949297" lon="17.6135192">
        <ele>3.50195</ele>
        <time>2012-08-05T15:25:24Z</time>
      </trkpt>
      <trkpt lat="59.7946576" lon="17.6138954">
        <ele>2.06006</ele>
        <time>2012-08-05T15:25:28Z</time>
      </trkpt>
      <trkpt lat="59.7943671" lon="17.6141574">
        <ele>0.137451</ele>
        <time>2012-08-05T15:25:33Z</time>
      </trkpt>
      <trkpt lat="59.7942815" lon="17.6142576">
        <ele>0.618042</ele>
        <time>2012-08-05T15:25:35Z</time>
      </trkpt>
      <trkpt lat="59.7940557" lon="17.614665">
        <ele>0.618042</ele>
        <time>2012-08-05T15:25:41Z</time>
      </trkpt>
      <trkpt lat="59.7938794" lon="17.6150882">
        <ele>3.98267</ele>
        <time>2012-08-05T15:25:47Z</time>
      </trkpt>
      <trkpt lat="59.7937921" lon="17.6152536">
        <ele>5.42456</ele>
        <time>2012-08-05T15:25:50Z</time>
      </trkpt>
      <trkpt lat="59.7937382" lon="17.6153339">
        <ele>5.90527</ele>
        <time>2012-08-05T15:25:52Z</time>
      </trkpt>
      <trkpt lat="59.7934902" lon="17.6154617">
        <ele>7.82788</ele>
        <time>2012-08-05T15:25:59Z</time>
      </trkpt>
      <trkpt lat="59.7932801" lon="17.6155432">
        <ele>7.34717</ele>
        <time>2012-08-05T15:26:05Z</time>
      </trkpt>
      <trkpt lat="59.7931093" lon="17.6156183">
        <ele>7.82788</ele>
        <time>2012-08-05T15:26:09Z</time>
      </trkpt>
      <trkpt lat="59.7930247" lon="17.6156604">
        <ele>8.30859</ele>
        <time>2012-08-05T15:26:11Z</time>
      </trkpt>
      <trkpt lat="59.7928978" lon="17.6158665">
        <ele>7.82788</ele>
        <time>2012-08-05T15:26:15Z</time>
      </trkpt>
      <trkpt lat="59.7928638" lon="17.6160068">
        <ele>7.82788</ele>
        <time>2012-08-05T15:26:17Z</time>
      </trkpt>
      <trkpt lat="59.7928213" lon="17.6161335">
        <ele>6.86646</ele>
        <time>2012-08-05T15:26:19Z</time>
      </trkpt>
      <trkpt lat="59.7927129" lon="17.6166461">
        <ele>5.90527</ele>
        <time>2012-08-05T15:26:26Z</time>
      </trkpt>
      <trkpt lat="59.7926089" lon="17.6171723">
        <ele>5.42456</ele>
        <time>2012-08-05T15:26:32Z</time>
      </trkpt>
      <trkpt lat="59.7924752" lon="17.617694">
        <ele>3.98267</ele>
        <time>2012-08-05T15:26:38Z</time>
      </trkpt>
      <trkpt lat="59.7923909" lon="17.6179627">
        <ele>3.50195</ele>
        <time>2012-08-05T15:26:41Z</time>
      </trkpt>
      <trkpt lat="59.792312" lon="17.618326">
        <ele>3.50195</ele>
        <time>2012-08-05T15:26:45Z</time>
      </trkpt>
      <trkpt lat="59.7922727" lon="17.6185083">
        <ele>3.50195</ele>
        <time>2012-08-05T15:26:47Z</time>
      </trkpt>
      <trkpt lat="59.7921839" lon="17.6191183">
        <ele>3.02124</ele>
        <time>2012-08-05T15:26:53Z</time>
      </trkpt>
      <trkpt lat="59.79215" lon="17.6194407">
        <ele>3.02124</ele>
        <time>2012-08-05T15:26:56Z</time>
      </trkpt>
      <trkpt lat="59.7920915" lon="17.6199891">
        <ele>3.98267</ele>
        <time>2012-08-05T15:27:01Z</time>
      </trkpt>
      <trkpt lat="59.7919923" lon="17.620371">
        <ele>3.50195</ele>
        <time>2012-08-05T15:27:05Z</time>
      </trkpt>
      <trkpt lat="59.7918765" lon="17.6205871">
        <ele>3.50195</ele>
        <time>2012-08-05T15:27:08Z</time>
      </trkpt>
      <trkpt lat="59.7917294" lon="17.6208082">
        <ele>4.46326</ele>
        <time>2012-08-05T15:27:12Z</time>
      </trkpt>
      <trkpt lat="59.7916449" lon="17.621093">
        <ele>4.46326</ele>
        <time>2012-08-05T15:27:16Z</time>
      </trkpt>
      <trkpt lat="59.7915375" lon="17.621722">
        <ele>2.06006</ele>
        <time>2012-08-05T15:27:22Z</time>
      </trkpt>
      <trkpt lat="59.7913983" lon="17.6222995">
        <ele>2.06006</ele>
        <time>2012-08-05T15:27:28Z</time>
      </trkpt>
      <trkpt lat="59.7911647" lon="17.6228474">
        <ele>3.98267</ele>
        <time>2012-08-05T15:27:35Z</time>
      </trkpt>
      <trkpt lat="59.7911443" lon="17.6231503">
        <ele>4.94385</ele>
        <time>2012-08-05T15:27:39Z</time>
      </trkpt>
      <trkpt lat="59.7913235" lon="17.6237521">
        <ele>8.78918</ele>
        <time>2012-08-05T15:27:48Z</time>
      </trkpt>
      <trkpt lat="59.7913439" lon="17.6238474">
        <ele>9.2699</ele>
        <time>2012-08-05T15:27:51Z</time>
      </trkpt>
      <trkpt lat="59.79136" lon="17.6237843">
        <ele>11.1925</ele>
        <time>2012-08-05T15:27:56Z</time>
      </trkpt>
      <trkpt lat="59.7913413" lon="17.6238256">
        <ele>11.6732</ele>
        <time>2012-08-05T15:27:59Z</time>
      </trkpt>
      <trkpt lat="59.7913952" lon="17.6239734">
        <ele>11.6732</ele>
        <time>2012-08-05T15:28:04Z</time>
      </trkpt>
      <trkpt lat="59.7913898" lon="17.624124">
        <ele>12.1538</ele>
        <time>2012-08-05T15:28:07Z</time>
      </trkpt>
      <trkpt lat="59.7913682" lon="17.6241779">
        <ele>12.6344</ele>
        <time>2012-08-05T15:28:08Z</time>
      </trkpt>
      <trkpt lat="59.7911717" lon="17.6244556">
        <ele>14.557</ele>
        <time>2012-08-05T15:28:14Z</time>
      </trkpt>
      <trkpt lat="59.7908332" lon="17.6247539">
        <ele>14.557</ele>
        <time>2012-08-05T15:28:21Z</time>
      </trkpt>
      <trkpt lat="59.790517" lon="17.6250397">
        <ele>13.5958</ele>
        <time>2012-08-05T15:28:27Z</time>
      </trkpt>
      <trkpt lat="59.7901699" lon="17.6253963">
        <ele>13.1151</ele>
        <time>2012-08-05T15:28:34Z</time>
      </trkpt>
      <trkpt lat="59.7897727" lon="17.6258448">
        <ele>13.1151</ele>
        <time>2012-08-05T15:28:42Z</time>
      </trkpt>
      <trkpt lat="59.7896366" lon="17.6260107">
        <ele>13.5958</ele>
        <time>2012-08-05T15:28:45Z</time>
      </trkpt>
      <trkpt lat="59.7892114" lon="17.6264721">
        <ele>14.0764</ele>
        <time>2012-08-05T15:28:53Z</time>
      </trkpt>
      <trkpt lat="59.7887444" lon="17.6269876">
        <ele>13.5958</ele>
        <time>2012-08-05T15:29:02Z</time>
      </trkpt>
      <trkpt lat="59.7883518" lon="17.6274315">
        <ele>13.1151</ele>
        <time>2012-08-05T15:29:09Z</time>
      </trkpt>
      <trkpt lat="59.7879188" lon="17.6279091">
        <ele>12.6344</ele>
        <time>2012-08-05T15:29:17Z</time>
      </trkpt>
      <trkpt lat="59.787551" lon="17.6282544">
        <ele>10.7118</ele>
        <time>2012-08-05T15:29:24Z</time>
      </trkpt>
      <trkpt lat="59.7875024" lon="17.6283137">
        <ele>10.7118</ele>
        <time>2012-08-05T15:29:25Z</time>
      </trkpt>
      <trkpt lat="59.7874098" lon="17.6284383">
        <ele>9.75061</ele>
        <time>2012-08-05T15:29:27Z</time>
      </trkpt>
      <trkpt lat="59.7872631" lon="17.6286153">
        <ele>8.78918</ele>
        <time>2012-08-05T15:29:30Z</time>
      </trkpt>
      <trkpt lat="59.7869505" lon="17.6290882">
        <ele>5.90527</ele>
        <time>2012-08-05T15:29:36Z</time>
      </trkpt>
      <trkpt lat="59.7868388" lon="17.6294075">
        <ele>5.42456</ele>
        <time>2012-08-05T15:29:39Z</time>
      </trkpt>
      <trkpt lat="59.7866574" lon="17.630089">
        <ele>5.42456</ele>
        <time>2012-08-05T15:29:45Z</time>
      </trkpt>
      <trkpt lat="59.7865213" lon="17.6308115">
        <ele>8.78918</ele>
        <time>2012-08-05T15:29:52Z</time>
      </trkpt>
      <trkpt lat="59.7864594" lon="17.6314275">
        <ele>9.75061</ele>
        <time>2012-08-05T15:29:58Z</time>
      </trkpt>
      <trkpt lat="59.7864342" lon="17.6318756">
        <ele>10.7118</ele>
        <time>2012-08-05T15:30:03Z</time>
      </trkpt>
      <trkpt lat="59.7864348" lon="17.6319598">
        <ele>10.7118</ele>
        <time>2012-08-05T15:30:04Z</time>
      </trkpt>
      <trkpt lat="59.786456" lon="17.6326865">
        <ele>14.557</ele>
        <time>2012-08-05T15:30:12Z</time>
      </trkpt>
      <trkpt lat="59.7865281" lon="17.6332457">
        <ele>14.0764</ele>
        <time>2012-08-05T15:30:18Z</time>
      </trkpt>
      <trkpt lat="59.7866358" lon="17.6338236">
        <ele>15.999</ele>
        <time>2012-08-05T15:30:24Z</time>
      </trkpt>
      <trkpt lat="59.7866959" lon="17.6342326">
        <ele>16.9604</ele>
        <time>2012-08-05T15:30:28Z</time>
      </trkpt>
      <trkpt lat="59.7867314" lon="17.6345385">
        <ele>17.9218</ele>
        <time>2012-08-05T15:30:31Z</time>
      </trkpt>
      <trkpt lat="59.7868896" lon="17.6352937">
        <ele>18.8831</ele>
        <time>2012-08-05T15:30:39Z</time>
      </trkpt>
      <trkpt lat="59.7871096" lon="17.6359979">
        <ele>21.767</ele>
        <time>2012-08-05T15:30:47Z</time>
      </trkpt>
      <trkpt lat="59.7873983" lon="17.6367074">
        <ele>22.7283</ele>
        <time>2012-08-05T15:30:56Z</time>
      </trkpt>
      <trkpt lat="59.7877073" lon="17.6373696">
        <ele>23.6896</ele>
        <time>2012-08-05T15:31:05Z</time>
      </trkpt>
      <trkpt lat="59.7879976" lon="17.6379093">
        <ele>22.2476</ele>
        <time>2012-08-05T15:31:13Z</time>
      </trkpt>
      <trkpt lat="59.7881091" lon="17.6381455">
        <ele>23.6896</ele>
        <time>2012-08-05T15:31:16Z</time>
      </trkpt>
      <trkpt lat="59.7884144" lon="17.6388332">
        <ele>27.0543</ele>
        <time>2012-08-05T15:31:24Z</time>
      </trkpt>
      <trkpt lat="59.7887017" lon="17.6394494">
        <ele>29.4575</ele>
        <time>2012-08-05T15:31:31Z</time>
      </trkpt>
      <trkpt lat="59.7889817" lon="17.6401372">
        <ele>31.8607</ele>
        <time>2012-08-05T15:31:38Z</time>
      </trkpt>
      <trkpt lat="59.7891232" lon="17.6407007">
        <ele>31.8607</ele>
        <time>2012-08-05T15:31:43Z</time>
      </trkpt>
      <trkpt lat="59.7892014" lon="17.6410557">
        <ele>34.2642</ele>
        <time>2012-08-05T15:31:46Z</time>
      </trkpt>
      <trkpt lat="59.7892261" lon="17.6414528">
        <ele>35.7061</ele>
        <time>2012-08-05T15:31:49Z</time>
      </trkpt>
      <trkpt lat="59.7891656" lon="17.6424388">
        <ele>37.6287</ele>
        <time>2012-08-05T15:31:56Z</time>
      </trkpt>
      <trkpt lat="59.7890507" lon="17.643366">
        <ele>31.8607</ele>
        <time>2012-08-05T15:32:03Z</time>
      </trkpt>
      <trkpt lat="59.7889816" lon="17.6438224">
        <ele>31.3801</ele>
        <time>2012-08-05T15:32:06Z</time>
      </trkpt>
      <trkpt lat="59.7889699" lon="17.6442134">
        <ele>28.9769</ele>
        <time>2012-08-05T15:32:09Z</time>
      </trkpt>
      <trkpt lat="59.7888855" lon="17.6452143">
        <ele>25.6123</ele>
        <time>2012-08-05T15:32:16Z</time>
      </trkpt>
      <trkpt lat="59.7888129" lon="17.6461116">
        <ele>23.209</ele>
        <time>2012-08-05T15:32:22Z</time>
      </trkpt>
      <trkpt lat="59.7887186" lon="17.6469546">
        <ele>22.7283</ele>
        <time>2012-08-05T15:32:27Z</time>
      </trkpt>
      <trkpt lat="59.7886871" lon="17.6478884">
        <ele>18.8831</ele>
        <time>2012-08-05T15:32:32Z</time>
      </trkpt>
      <trkpt lat="59.7886757" lon="17.6488699">
        <ele>15.0377</ele>
        <time>2012-08-05T15:32:37Z</time>
      </trkpt>
      <trkpt lat="59.7886977" lon="17.6498951">
        <ele>14.0764</ele>
        <time>2012-08-05T15:32:42Z</time>
      </trkpt>
      <trkpt lat="59.7887283" lon="17.6512192">
        <ele>8.30859</ele>
        <time>2012-08-05T15:32:48Z</time>
      </trkpt>
      <trkpt lat="59.7888457" lon="17.652703">
        <ele>6.86646</ele>
        <time>2012-08-05T15:32:54Z</time>
      </trkpt>
      <trkpt lat="59.7889431" lon="17.6539372">
        <ele>7.34717</ele>
        <time>2012-08-05T15:32:59Z</time>
      </trkpt>
      <trkpt lat="59.7890849" lon="17.6549612">
        <ele>3.98267</ele>
        <time>2012-08-05T15:33:04Z</time>
      </trkpt>
      <trkpt lat="59.7892921" lon="17.6558128">
        <ele>2.06006</ele>
        <time>2012-08-05T15:33:09Z</time>
      </trkpt>
      <trkpt lat="59.7893342" lon="17.6559619">
        <ele>1.57935</ele>
        <time>2012-08-05T15:33:10Z</time>
      </trkpt>
      <trkpt lat="59.7896297" lon="17.6567864">
        <ele>3.50195</ele>
        <time>2012-08-05T15:33:17Z</time>
      </trkpt>
      <trkpt lat="59.7897971" lon="17.6573395">
        <ele>8.30859</ele>
        <time>2012-08-05T15:33:23Z</time>
      </trkpt>
      <trkpt lat="59.7898811" lon="17.6578126">
        <ele>9.75061</ele>
        <time>2012-08-05T15:33:29Z</time>
      </trkpt>
      <trkpt lat="59.7899417" lon="17.6582475">
        <ele>11.6732</ele>
        <time>2012-08-05T15:33:36Z</time>
      </trkpt>
      <trkpt lat="59.7899493" lon="17.6583485">
        <ele>13.1151</ele>
        <time>2012-08-05T15:33:39Z</time>
      </trkpt>
      <trkpt lat="59.7900226" lon="17.6584251">
        <ele>13.1151</ele>
        <time>2012-08-05T15:33:44Z</time>
      </trkpt>
      <trkpt lat="59.7901411" lon="17.6584691">
        <ele>11.1925</ele>
        <time>2012-08-05T15:33:48Z</time>
      </trkpt>
      <trkpt lat="59.7901742" lon="17.6584737">
        <ele>11.1925</ele>
        <time>2012-08-05T15:33:49Z</time>
      </trkpt>
      <trkpt lat="59.7902904" lon="17.658463">
        <ele>9.75061</ele>
        <time>2012-08-05T15:33:53Z</time>
      </trkpt>
      <trkpt lat="59.7905069" lon="17.658343">
        <ele>10.2312</ele>
        <time>2012-08-05T15:34:00Z</time>
      </trkpt>
      <trkpt lat="59.7905401" lon="17.6583371">
        <ele>10.7118</ele>
        <time>2012-08-05T15:34:01Z</time>
      </trkpt>
      <trkpt lat="59.7906375" lon="17.6585645">
        <ele>14.0764</ele>
        <time>2012-08-05T15:34:05Z</time>
      </trkpt>
      <trkpt lat="59.790654" lon="17.658713">
        <ele>14.0764</ele>
        <time>2012-08-05T15:34:07Z</time>
      </trkpt>
      <trkpt lat="59.7907128" lon="17.6590768">
        <ele>14.0764</ele>
        <time>2012-08-05T15:34:13Z</time>
      </trkpt>
      <trkpt lat="59.7908455" lon="17.6591503">
        <ele>13.5958</ele>
        <time>2012-08-05T15:34:18Z</time>
      </trkpt>
      <trkpt lat="59.7910228" lon="17.6591259">
        <ele>15.0377</ele>
        <time>2012-08-05T15:34:25Z</time>
      </trkpt>
      <trkpt lat="59.7911647" lon="17.6590677">
        <ele>14.0764</ele>
        <time>2012-08-05T15:34:30Z</time>
      </trkpt>
      <trkpt lat="59.7913904" lon="17.6590001">
        <ele>14.557</ele>
        <time>2012-08-05T15:34:37Z</time>
      </trkpt>
      <trkpt lat="59.7915458" lon="17.6589686">
        <ele>12.6344</ele>
        <time>2012-08-05T15:34:41Z</time>
      </trkpt>
      <trkpt lat="59.7917122" lon="17.6591114">
        <ele>12.6344</ele>
        <time>2012-08-05T15:34:45Z</time>
      </trkpt>
      <trkpt lat="59.7917548" lon="17.6591351">
        <ele>12.6344</ele>
        <time>2012-08-05T15:34:46Z</time>
      </trkpt>
      <trkpt lat="59.7920562" lon="17.6590742">
        <ele>11.1925</ele>
        <time>2012-08-05T15:34:51Z</time>
      </trkpt>
      <trkpt lat="59.7922815" lon="17.6590154">
        <ele>11.6732</ele>
        <time>2012-08-05T15:34:54Z</time>
      </trkpt>
      <trkpt lat="59.7926357" lon="17.6589773">
        <ele>11.6732</ele>
        <time>2012-08-05T15:34:59Z</time>
      </trkpt>
      <trkpt lat="59.792958" lon="17.6589493">
        <ele>10.2312</ele>
        <time>2012-08-05T15:35:03Z</time>
      </trkpt>
      <trkpt lat="59.7934096" lon="17.6589539">
        <ele>7.34717</ele>
        <time>2012-08-05T15:35:09Z</time>
      </trkpt>
      <trkpt lat="59.7935455" lon="17.6590009">
        <ele>6.38586</ele>
        <time>2012-08-05T15:35:11Z</time>
      </trkpt>
      <trkpt lat="59.7939138" lon="17.6592834">
        <ele>5.90527</ele>
        <time>2012-08-05T15:35:17Z</time>
      </trkpt>
      <trkpt lat="59.7939625" lon="17.6593157">
        <ele>4.94385</ele>
        <time>2012-08-05T15:35:18Z</time>
      </trkpt>
      <trkpt lat="59.7940828" lon="17.6593677">
        <ele>6.38586</ele>
        <time>2012-08-05T15:35:20Z</time>
      </trkpt>
      <trkpt lat="59.7943172" lon="17.6593051">
        <ele>4.94385</ele>
        <time>2012-08-05T15:35:24Z</time>
      </trkpt>
      <trkpt lat="59.7945194" lon="17.6591881">
        <ele>6.86646</ele>
        <time>2012-08-05T15:35:27Z</time>
      </trkpt>
      <trkpt lat="59.7947783" lon="17.6591649">
        <ele>9.75061</ele>
        <time>2012-08-05T15:35:31Z</time>
      </trkpt>
      <trkpt lat="59.7951875" lon="17.6592989">
        <ele>18.4023</ele>
        <time>2012-08-05T15:35:37Z</time>
      </trkpt>
      <trkpt lat="59.7953285" lon="17.6593912">
        <ele>20.8057</ele>
        <time>2012-08-05T15:35:39Z</time>
      </trkpt>
      <trkpt lat="59.7957543" lon="17.6596032">
        <ele>25.6123</ele>
        <time>2012-08-05T15:35:46Z</time>
      </trkpt>
      <trkpt lat="59.7962183" lon="17.6598461">
        <ele>31.8607</ele>
        <time>2012-08-05T15:35:53Z</time>
      </trkpt>
      <trkpt lat="59.7962842" lon="17.6598584">
        <ele>33.3029</ele>
        <time>2012-08-05T15:35:54Z</time>
      </trkpt>
      <trkpt lat="59.7964412" lon="17.6597486">
        <ele>36.6675</ele>
        <time>2012-08-05T15:35:57Z</time>
      </trkpt>
      <trkpt lat="59.7966338" lon="17.659862">
        <ele>36.1868</ele>
        <time>2012-08-05T15:36:02Z</time>
      </trkpt>
      <trkpt lat="59.7967122" lon="17.6599227">
        <ele>35.7061</ele>
        <time>2012-08-05T15:36:04Z</time>
      </trkpt>
      <trkpt lat="59.7969499" lon="17.6600652">
        <ele>40.0321</ele>
        <time>2012-08-05T15:36:09Z</time>
      </trkpt>
      <trkpt lat="59.7970467" lon="17.6601781">
        <ele>37.6287</ele>
        <time>2012-08-05T15:36:12Z</time>
      </trkpt>
      <trkpt lat="59.7971845" lon="17.6602371">
        <ele>36.6675</ele>
        <time>2012-08-05T15:36:16Z</time>
      </trkpt>
      <trkpt lat="59.7973626" lon="17.6603165">
        <ele>34.7449</ele>
        <time>2012-08-05T15:36:22Z</time>
      </trkpt>
      <trkpt lat="59.7974992" lon="17.6603356">
        <ele>32.3416</ele>
        <time>2012-08-05T15:36:28Z</time>
      </trkpt>
      <trkpt lat="59.7975451" lon="17.6603744">
        <ele>33.3029</ele>
        <time>2012-08-05T15:36:33Z</time>
      </trkpt>
      <trkpt lat="59.7976124" lon="17.6603742">
        <ele>29.4575</ele>
        <time>2012-08-05T15:36:40Z</time>
      </trkpt>
      <trkpt lat="59.7976652" lon="17.6603353">
        <ele>29.9381</ele>
        <time>2012-08-05T15:36:46Z</time>
      </trkpt>
      <trkpt lat="59.7977102" lon="17.6603195">
        <ele>30.4188</ele>
        <time>2012-08-05T15:36:50Z</time>
      </trkpt>
      <trkpt lat="59.7978137" lon="17.660362">
        <ele>28.4962</ele>
        <time>2012-08-05T15:36:59Z</time>
      </trkpt>
      <trkpt lat="59.7978998" lon="17.6603581">
        <ele>33.3029</ele>
        <time>2012-08-05T15:37:06Z</time>
      </trkpt>
      <trkpt lat="59.7979396" lon="17.6603888">
        <ele>35.2255</ele>
        <time>2012-08-05T15:37:09Z</time>
      </trkpt>
      <trkpt lat="59.7979936" lon="17.6604034">
        <ele>36.1868</ele>
        <time>2012-08-05T15:37:15Z</time>
      </trkpt>
      <trkpt lat="59.7981112" lon="17.6603412">
        <ele>30.8995</ele>
        <time>2012-08-05T15:37:21Z</time>
      </trkpt>
      <trkpt lat="59.7982443" lon="17.6602307">
        <ele>27.0543</ele>
        <time>2012-08-05T15:37:25Z</time>
      </trkpt>
      <trkpt lat="59.7983826" lon="17.6598693">
        <ele>18.8831</ele>
        <time>2012-08-05T15:37:30Z</time>
      </trkpt>
      <trkpt lat="59.7984225" lon="17.6597774">
        <ele>17.4412</ele>
        <time>2012-08-05T15:37:31Z</time>
      </trkpt>
      <trkpt lat="59.7986121" lon="17.6594451">
        <ele>10.7118</ele>
        <time>2012-08-05T15:37:35Z</time>
      </trkpt>
      <trkpt lat="59.7988187" lon="17.6587904">
        <ele>8.78918</ele>
        <time>2012-08-05T15:37:40Z</time>
      </trkpt>
      <trkpt lat="59.7989296" lon="17.6586572">
        <ele>13.1151</ele>
        <time>2012-08-05T15:37:44Z</time>
      </trkpt>
      <trkpt lat="59.7989638" lon="17.6587467">
        <ele>15.0377</ele>
        <time>2012-08-05T15:37:46Z</time>
      </trkpt>
      <trkpt lat="59.7990809" lon="17.6592192">
        <ele>13.5958</ele>
        <time>2012-08-05T15:37:53Z</time>
      </trkpt>
      <trkpt lat="59.799139" lon="17.6597474">
        <ele>12.6344</ele>
        <time>2012-08-05T15:37:56Z</time>
      </trkpt>
      <trkpt lat="59.7992716" lon="17.6603039">
        <ele>14.0764</ele>
        <time>2012-08-05T15:38:01Z</time>
      </trkpt>
      <trkpt lat="59.7992838" lon="17.6604298">
        <ele>14.557</ele>
        <time>2012-08-05T15:38:02Z</time>
      </trkpt>
      <trkpt lat="59.7994498" lon="17.6608405">
        <ele>17.4412</ele>
        <time>2012-08-05T15:38:08Z</time>
      </trkpt>
      <trkpt lat="59.7996027" lon="17.6607221">
        <ele>15.999</ele>
        <time>2012-08-05T15:38:12Z</time>
      </trkpt>
      <trkpt lat="59.7997694" lon="17.6604152">
        <ele>13.5958</ele>
        <time>2012-08-05T15:38:16Z</time>
      </trkpt>
      <trkpt lat="59.7999553" lon="17.6601861">
        <ele>8.30859</ele>
        <time>2012-08-05T15:38:20Z</time>
      </trkpt>
      <trkpt lat="59.8001728" lon="17.6602354">
        <ele>5.90527</ele>
        <time>2012-08-05T15:38:24Z</time>
      </trkpt>
      <trkpt lat="59.8002289" lon="17.6602713">
        <ele>5.42456</ele>
        <time>2012-08-05T15:38:25Z</time>
      </trkpt>
      <trkpt lat="59.8007433" lon="17.6607095">
        <ele>3.50195</ele>
        <time>2012-08-05T15:38:34Z</time>
      </trkpt>
      <trkpt lat="59.800794" lon="17.6607551">
        <ele>3.02124</ele>
        <time>2012-08-05T15:38:35Z</time>
      </trkpt>
      <trkpt lat="59.8010031" lon="17.6609577">
        <ele>0.618042</ele>
        <time>2012-08-05T15:38:39Z</time>
      </trkpt>
      <trkpt lat="59.8011315" lon="17.6611787">
        <ele>0</ele>
        <time>2012-08-05T15:38:42Z</time>
      </trkpt>
      <trkpt lat="59.8013299" lon="17.6613627">
        <ele>0</ele>
        <time>2012-08-05T15:38:46Z</time>
      </trkpt>
      <trkpt lat="59.8017553" lon="17.6616299">
        <ele>0</ele>
        <time>2012-08-05T15:38:53Z</time>
      </trkpt>
      <trkpt lat="59.8020679" lon="17.6618108">
        <ele>0</ele>
        <time>2012-08-05T15:38:58Z</time>
      </trkpt>
      <trkpt lat="59.8023226" lon="17.6620391">
        <ele>0</ele>
        <time>2012-08-05T15:39:02Z</time>
      </trkpt>
      <trkpt lat="59.8027158" lon="17.6626422">
        <ele>0</ele>
        <time>2012-08-05T15:39:09Z</time>
      </trkpt>
      <trkpt lat="59.8031063" lon="17.6632632">
        <ele>0</ele>
        <time>2012-08-05T15:39:16Z</time>
      </trkpt>
      <trkpt lat="59.8033897" lon="17.663597">
        <ele>0</ele>
        <time>2012-08-05T15:39:21Z</time>
      </trkpt>
      <trkpt lat="59.8037576" lon="17.663886">
        <ele>0</ele>
        <time>2012-08-05T15:39:28Z</time>
      </trkpt>
      <trkpt lat="59.8042028" lon="17.6642273">
        <ele>0</ele>
        <time>2012-08-05T15:39:37Z</time>
      </trkpt>
      <trkpt lat="59.8042529" lon="17.6642569">
        <ele>0</ele>
        <time>2012-08-05T15:39:38Z</time>
      </trkpt>
      <trkpt lat="59.8043554" lon="17.6642932">
        <ele>0</ele>
        <time>2012-08-05T15:39:40Z</time>
      </trkpt>
      <trkpt lat="59.8047621" lon="17.6643102">
        <ele>0</ele>
        <time>2012-08-05T15:39:48Z</time>
      </trkpt>
      <trkpt lat="59.8048587" lon="17.6643344">
        <ele>0</ele>
        <time>2012-08-05T15:39:50Z</time>
      </trkpt>
      <trkpt lat="59.8050646" lon="17.6644366">
        <ele>0</ele>
        <time>2012-08-05T15:39:54Z</time>
      </trkpt>
      <trkpt lat="59.8053243" lon="17.6648257">
        <ele>0</ele>
        <time>2012-08-05T15:40:00Z</time>
      </trkpt>
      <trkpt lat="59.8054405" lon="17.6650245">
        <ele>0</ele>
        <time>2012-08-05T15:40:03Z</time>
      </trkpt>
      <trkpt lat="59.8057006" lon="17.6650821">
        <ele>0</ele>
        <time>2012-08-05T15:40:09Z</time>
      </trkpt>
      <trkpt lat="59.8058435" lon="17.6649739">
        <ele>0</ele>
        <time>2012-08-05T15:40:12Z</time>
      </trkpt>
      <trkpt lat="59.8063227" lon="17.664706">
        <ele>0</ele>
        <time>2012-08-05T15:40:21Z</time>
      </trkpt>
      <trkpt lat="59.8063756" lon="17.6646718">
        <ele>0</ele>
        <time>2012-08-05T15:40:22Z</time>
      </trkpt>
      <trkpt lat="59.8068926" lon="17.6645776">
        <ele>0</ele>
        <time>2012-08-05T15:40:31Z</time>
      </trkpt>
      <trkpt lat="59.8073482" lon="17.664598">
        <ele>0</ele>
        <time>2012-08-05T15:40:39Z</time>
      </trkpt>
      <trkpt lat="59.8077846" lon="17.6646459">
        <ele>0</ele>
        <time>2012-08-05T15:40:47Z</time>
      </trkpt>
      <trkpt lat="59.8082937" lon="17.6648262">
        <ele>0</ele>
        <time>2012-08-05T15:40:56Z</time>
      </trkpt>
      <trkpt lat="59.8085885" lon="17.6649777">
        <ele>0</ele>
        <time>2012-08-05T15:41:01Z</time>
      </trkpt>
      <trkpt lat="59.808787" lon="17.6651841">
        <ele>1.09863</ele>
        <time>2012-08-05T15:41:05Z</time>
      </trkpt>
      <trkpt lat="59.8090812" lon="17.665369">
        <ele>1.57935</ele>
        <time>2012-08-05T15:41:11Z</time>
      </trkpt>
      <trkpt lat="59.8092324" lon="17.6653805">
        <ele>1.57935</ele>
        <time>2012-08-05T15:41:14Z</time>
      </trkpt>
      <trkpt lat="59.809424" lon="17.6655348">
        <ele>1.57935</ele>
        <time>2012-08-05T15:41:18Z</time>
      </trkpt>
      <trkpt lat="59.809506" lon="17.6657353">
        <ele>2.06006</ele>
        <time>2012-08-05T15:41:20Z</time>
      </trkpt>
      <trkpt lat="59.8098098" lon="17.66671">
        <ele>2.06006</ele>
        <time>2012-08-05T15:41:29Z</time>
      </trkpt>
      <trkpt lat="59.8099208" lon="17.6671369">
        <ele>3.02124</ele>
        <time>2012-08-05T15:41:33Z</time>
      </trkpt>
      <trkpt lat="59.810031" lon="17.667432">
        <ele>3.02124</ele>
        <time>2012-08-05T15:41:38Z</time>
      </trkpt>
      <trkpt lat="59.8100427" lon="17.667438">
        <ele>2.54065</ele>
        <time>2012-08-05T15:41:42Z</time>
      </trkpt>
      <trkpt lat="59.8099544" lon="17.6674833">
        <ele>0</ele>
        <time>2012-08-05T15:41:46Z</time>
      </trkpt>
      <trkpt lat="59.8098435" lon="17.6677165">
        <ele>0</ele>
        <time>2012-08-05T15:41:50Z</time>
      </trkpt>
      <trkpt lat="59.8097436" lon="17.6681309">
        <ele>0</ele>
        <time>2012-08-05T15:41:55Z</time>
      </trkpt>
      <trkpt lat="59.8097965" lon="17.6684984">
        <ele>0</ele>
        <time>2012-08-05T15:41:59Z</time>
      </trkpt>
      <trkpt lat="59.8099113" lon="17.6686874">
        <ele>0</ele>
        <time>2012-08-05T15:42:02Z</time>
      </trkpt>
      <trkpt lat="59.8103575" lon="17.6690138">
        <ele>0</ele>
        <time>2012-08-05T15:42:11Z</time>
      </trkpt>
      <trkpt lat="59.8107075" lon="17.6692775">
        <ele>0</ele>
        <time>2012-08-05T15:42:18Z</time>
      </trkpt>
      <trkpt lat="59.8110755" lon="17.6695686">
        <ele>0.137451</ele>
        <time>2012-08-05T15:42:25Z</time>
      </trkpt>
      <trkpt lat="59.8114184" lon="17.6698104">
        <ele>0.618042</ele>
        <time>2012-08-05T15:42:32Z</time>
      </trkpt>
      <trkpt lat="59.8116423" lon="17.669972">
        <ele>0.618042</ele>
        <time>2012-08-05T15:42:36Z</time>
      </trkpt>
      <trkpt lat="59.8120856" lon="17.6700647">
        <ele>0</ele>
        <time>2012-08-05T15:42:43Z</time>
      </trkpt>
      <trkpt lat="59.8124239" lon="17.6701077">
        <ele>0</ele>
        <time>2012-08-05T15:42:49Z</time>
      </trkpt>
      <trkpt lat="59.8127748" lon="17.6702123">
        <ele>0</ele>
        <time>2012-08-05T15:42:55Z</time>
      </trkpt>
      <trkpt lat="59.8132229" lon="17.6705264">
        <ele>0</ele>
        <time>2012-08-05T15:43:03Z</time>
      </trkpt>
      <trkpt lat="59.8135925" lon="17.6706734">
        <ele>0</ele>
        <time>2012-08-05T15:43:10Z</time>
      </trkpt>
      <trkpt lat="59.8139157" lon="17.6707248">
        <ele>0</ele>
        <time>2012-08-05T15:43:16Z</time>
      </trkpt>
      <trkpt lat="59.8140741" lon="17.6707122">
        <ele>0</ele>
        <time>2012-08-05T15:43:19Z</time>
      </trkpt>
      <trkpt lat="59.8144359" lon="17.670516">
        <ele>0</ele>
        <time>2012-08-05T15:43:26Z</time>
      </trkpt>
      <trkpt lat="59.8147103" lon="17.670279">
        <ele>0</ele>
        <time>2012-08-05T15:43:32Z</time>
      </trkpt>
      <trkpt lat="59.8149011" lon="17.6699026">
        <ele>0</ele>
        <time>2012-08-05T15:43:38Z</time>
      </trkpt>
      <trkpt lat="59.8149186" lon="17.6694915">
        <ele>0</ele>
        <time>2012-08-05T15:43:42Z</time>
      </trkpt>
      <trkpt lat="59.8148936" lon="17.6688353">
        <ele>2.54065</ele>
        <time>2012-08-05T15:43:48Z</time>
      </trkpt>
      <trkpt lat="59.8148576" lon="17.668321">
        <ele>3.02124</ele>
        <time>2012-08-05T15:43:53Z</time>
      </trkpt>
      <trkpt lat="59.8148431" lon="17.6676664">
        <ele>6.38586</ele>
        <time>2012-08-05T15:44:00Z</time>
      </trkpt>
      <trkpt lat="59.8148669" lon="17.6673334">
        <ele>7.82788</ele>
        <time>2012-08-05T15:44:04Z</time>
      </trkpt>
      <trkpt lat="59.8149771" lon="17.6670521">
        <ele>8.30859</ele>
        <time>2012-08-05T15:44:09Z</time>
      </trkpt>
      <trkpt lat="59.8150256" lon="17.6668219">
        <ele>9.2699</ele>
        <time>2012-08-05T15:44:12Z</time>
      </trkpt>
      <trkpt lat="59.8150155" lon="17.6660781">
        <ele>8.78918</ele>
        <time>2012-08-05T15:44:20Z</time>
      </trkpt>
      <trkpt lat="59.8150073" lon="17.6657692">
        <ele>8.78918</ele>
        <time>2012-08-05T15:44:24Z</time>
      </trkpt>
      <trkpt lat="59.8150647" lon="17.6655959">
        <ele>8.30859</ele>
        <time>2012-08-05T15:44:28Z</time>
      </trkpt>
      <trkpt lat="59.8150973" lon="17.665585">
        <ele>8.30859</ele>
        <time>2012-08-05T15:44:29Z</time>
      </trkpt>
      <trkpt lat="59.8153774" lon="17.6656203">
        <ele>3.98267</ele>
        <time>2012-08-05T15:44:37Z</time>
      </trkpt>
      <trkpt lat="59.8155981" lon="17.6656897">
        <ele>7.82788</ele>
        <time>2012-08-05T15:44:44Z</time>
      </trkpt>
      <trkpt lat="59.8158097" lon="17.6657254">
        <ele>11.6732</ele>
        <time>2012-08-05T15:44:51Z</time>
      </trkpt>
      <trkpt lat="59.8160077" lon="17.6657618">
        <ele>15.5184</ele>
        <time>2012-08-05T15:44:58Z</time>
      </trkpt>
      <trkpt lat="59.8162145" lon="17.6657441">
        <ele>18.8831</ele>
        <time>2012-08-05T15:45:05Z</time>
      </trkpt>
      <trkpt lat="59.8164105" lon="17.6655834">
        <ele>23.209</ele>
        <time>2012-08-05T15:45:12Z</time>
      </trkpt>
      <trkpt lat="59.8165787" lon="17.6653877">
        <ele>26.0929</ele>
        <time>2012-08-05T15:45:18Z</time>
      </trkpt>
      <trkpt lat="59.8167267" lon="17.6652514">
        <ele>30.4188</ele>
        <time>2012-08-05T15:45:23Z</time>
      </trkpt>
      <trkpt lat="59.8168557" lon="17.6650981">
        <ele>30.4188</ele>
        <time>2012-08-05T15:45:29Z</time>
      </trkpt>
      <trkpt lat="59.8169883" lon="17.664883">
        <ele>30.8995</ele>
        <time>2012-08-05T15:45:34Z</time>
      </trkpt>
      <trkpt lat="59.8171326" lon="17.6646315">
        <ele>30.4188</ele>
        <time>2012-08-05T15:45:40Z</time>
      </trkpt>
      <trkpt lat="59.8172593" lon="17.6644878">
        <ele>28.0155</ele>
        <time>2012-08-05T15:45:46Z</time>
      </trkpt>
      <trkpt lat="59.8174494" lon="17.6643304">
        <ele>26.0929</ele>
        <time>2012-08-05T15:45:54Z</time>
      </trkpt>
      <trkpt lat="59.8175849" lon="17.664247">
        <ele>28.0155</ele>
        <time>2012-08-05T15:45:59Z</time>
      </trkpt>
      <trkpt lat="59.8177562" lon="17.6641705">
        <ele>30.4188</ele>
        <time>2012-08-05T15:46:05Z</time>
      </trkpt>
      <trkpt lat="59.8179459" lon="17.6641018">
        <ele>35.7061</ele>
        <time>2012-08-05T15:46:11Z</time>
      </trkpt>
      <trkpt lat="59.8181908" lon="17.6640046">
        <ele>38.1094</ele>
        <time>2012-08-05T15:46:18Z</time>
      </trkpt>
      <trkpt lat="59.8184193" lon="17.6640289">
        <ele>40.9934</ele>
        <time>2012-08-05T15:46:25Z</time>
      </trkpt>
      <trkpt lat="59.8186048" lon="17.6640397">
        <ele>37.6287</ele>
        <time>2012-08-05T15:46:30Z</time>
      </trkpt>
      <trkpt lat="59.8187937" lon="17.6640049">
        <ele>36.1868</ele>
        <time>2012-08-05T15:46:35Z</time>
      </trkpt>
      <trkpt lat="59.819006" lon="17.6639288">
        <ele>33.7834</ele>
        <time>2012-08-05T15:46:40Z</time>
      </trkpt>
      <trkpt lat="59.8190931" lon="17.6639206">
        <ele>33.3029</ele>
        <time>2012-08-05T15:46:42Z</time>
      </trkpt>
      <trkpt lat="59.8193192" lon="17.663974">
        <ele>32.3416</ele>
        <time>2012-08-05T15:46:49Z</time>
      </trkpt>
      <trkpt lat="59.8195278" lon="17.6639993">
        <ele>28.4962</ele>
        <time>2012-08-05T15:46:55Z</time>
      </trkpt>
      <trkpt lat="59.8197105" lon="17.6640521">
        <ele>22.2476</ele>
        <time>2012-08-05T15:47:01Z</time>
      </trkpt>
      <trkpt lat="59.8199312" lon="17.6640169">
        <ele>14.557</ele>
        <time>2012-08-05T15:47:08Z</time>
      </trkpt>
      <trkpt lat="59.8200821" lon="17.6640533">
        <ele>11.1925</ele>
        <time>2012-08-05T15:47:13Z</time>
      </trkpt>
      <trkpt lat="59.8201106" lon="17.6640636">
        <ele>9.75061</ele>
        <time>2012-08-05T15:47:14Z</time>
      </trkpt>
      <trkpt lat="59.8202975" lon="17.6640529">
        <ele>3.98267</ele>
        <time>2012-08-05T15:47:19Z</time>
      </trkpt>
      <trkpt lat="59.8203173" lon="17.6640406">
        <ele>3.98267</ele>
        <time>2012-08-05T15:47:20Z</time>
      </trkpt>
      <trkpt lat="59.8204279" lon="17.6640506">
        <ele>0</ele>
        <time>2012-08-05T15:47:23Z</time>
      </trkpt>
      <trkpt lat="59.8206783" lon="17.6640461">
        <ele>0</ele>
        <time>2012-08-05T15:47:28Z</time>
      </trkpt>
      <trkpt lat="59.820784" lon="17.6639847">
        <ele>0</ele>
        <time>2012-08-05T15:47:30Z</time>
      </trkpt>
      <trkpt lat="59.8210746" lon="17.6639521">
        <ele>0</ele>
        <time>2012-08-05T15:47:35Z</time>
      </trkpt>
      <trkpt lat="59.8214818" lon="17.6639688">
        <ele>0</ele>
        <time>2012-08-05T15:47:42Z</time>
      </trkpt>
      <trkpt lat="59.8215403" lon="17.6639645">
        <ele>0</ele>
        <time>2012-08-05T15:47:43Z</time>
      </trkpt>
      <trkpt lat="59.8219167" lon="17.6638917">
        <ele>0</ele>
        <time>2012-08-05T15:47:49Z</time>
      </trkpt>
      <trkpt lat="59.8220355" lon="17.6638803">
        <ele>0</ele>
        <time>2012-08-05T15:47:51Z</time>
      </trkpt>
      <trkpt lat="59.8223142" lon="17.6637626">
        <ele>0</ele>
        <time>2012-08-05T15:47:56Z</time>
      </trkpt>
      <trkpt lat="59.8225762" lon="17.6637029">
        <ele>0</ele>
        <time>2012-08-05T15:48:00Z</time>
      </trkpt>
      <trkpt lat="59.8226477" lon="17.6637202">
        <ele>0</ele>
        <time>2012-08-05T15:48:01Z</time>
      </trkpt>
      <trkpt lat="59.8228747" lon="17.6637462">
        <ele>0</ele>
        <time>2012-08-05T15:48:04Z</time>
      </trkpt>
      <trkpt lat="59.8232664" lon="17.6638606">
        <ele>0</ele>
        <time>2012-08-05T15:48:09Z</time>
      </trkpt>
      <trkpt lat="59.8236557" lon="17.6638747">
        <ele>0</ele>
        <time>2012-08-05T15:48:14Z</time>
      </trkpt>
      <trkpt lat="59.8241749" lon="17.6637543">
        <ele>0</ele>
        <time>2012-08-05T15:48:20Z</time>
      </trkpt>
      <trkpt lat="59.8245058" lon="17.6635322">
        <ele>0</ele>
        <time>2012-08-05T15:48:25Z</time>
      </trkpt>
      <trkpt lat="59.8245741" lon="17.6634876">
        <ele>0</ele>
        <time>2012-08-05T15:48:26Z</time>
      </trkpt>
      <trkpt lat="59.8249178" lon="17.6631136">
        <ele>0</ele>
        <time>2012-08-05T15:48:31Z</time>
      </trkpt>
      <trkpt lat="59.8253213" lon="17.6626136">
        <ele>13.1151</ele>
        <time>2012-08-05T15:48:37Z</time>
      </trkpt>
      <trkpt lat="59.8254254" lon="17.6624841">
        <ele>17.4412</ele>
        <time>2012-08-05T15:48:39Z</time>
      </trkpt>
      <trkpt lat="59.8257024" lon="17.6620279">
        <ele>27.5349</ele>
        <time>2012-08-05T15:48:46Z</time>
      </trkpt>
      <trkpt lat="59.8257657" lon="17.661916">
        <ele>28.4962</ele>
        <time>2012-08-05T15:48:48Z</time>
      </trkpt>
      <trkpt lat="59.8258408" lon="17.6618103">
        <ele>28.9769</ele>
        <time>2012-08-05T15:48:50Z</time>
      </trkpt>
      <trkpt lat="59.8259986" lon="17.661634">
        <ele>28.4962</ele>
        <time>2012-08-05T15:48:54Z</time>
      </trkpt>
      <trkpt lat="59.8261236" lon="17.6615074">
        <ele>29.9381</ele>
        <time>2012-08-05T15:48:57Z</time>
      </trkpt>
      <trkpt lat="59.8263949" lon="17.6612937">
        <ele>31.3801</ele>
        <time>2012-08-05T15:49:03Z</time>
      </trkpt>
      <trkpt lat="59.8266629" lon="17.6608944">
        <ele>30.8995</ele>
        <time>2012-08-05T15:49:09Z</time>
      </trkpt>
      <trkpt lat="59.8267976" lon="17.6607238">
        <ele>29.4575</ele>
        <time>2012-08-05T15:49:12Z</time>
      </trkpt>
      <trkpt lat="59.8269448" lon="17.6605141">
        <ele>30.8995</ele>
        <time>2012-08-05T15:49:15Z</time>
      </trkpt>
      <trkpt lat="59.8270873" lon="17.6602473">
        <ele>31.8607</ele>
        <time>2012-08-05T15:49:19Z</time>
      </trkpt>
      <trkpt lat="59.8273092" lon="17.6600334">
        <ele>29.9381</ele>
        <time>2012-08-05T15:49:24Z</time>
      </trkpt>
      <trkpt lat="59.8274367" lon="17.6599227">
        <ele>28.4962</ele>
        <time>2012-08-05T15:49:27Z</time>
      </trkpt>
      <trkpt lat="59.8277396" lon="17.6596464">
        <ele>21.767</ele>
        <time>2012-08-05T15:49:34Z</time>
      </trkpt>
      <trkpt lat="59.8278668" lon="17.6595106">
        <ele>16.4797</ele>
        <time>2012-08-05T15:49:37Z</time>
      </trkpt>
      <trkpt lat="59.827961" lon="17.6594053">
        <ele>13.5958</ele>
        <time>2012-08-05T15:49:39Z</time>
      </trkpt>
      <trkpt lat="59.8282162" lon="17.6591694">
        <ele>8.78918</ele>
        <time>2012-08-05T15:49:44Z</time>
      </trkpt>
      <trkpt lat="59.8287862" lon="17.6588383">
        <ele>26.0929</ele>
        <time>2012-08-05T15:49:52Z</time>
      </trkpt>
      <trkpt lat="59.8291267" lon="17.6586691">
        <ele>37.1481</ele>
        <time>2012-08-05T15:49:57Z</time>
      </trkpt>
      <trkpt lat="59.8293209" lon="17.6585488">
        <ele>42.916</ele>
        <time>2012-08-05T15:50:00Z</time>
      </trkpt>
      <trkpt lat="59.8295051" lon="17.6584088">
        <ele>42.4354</ele>
        <time>2012-08-05T15:50:03Z</time>
      </trkpt>
      <trkpt lat="59.8296255" lon="17.6583526">
        <ele>41.9547</ele>
        <time>2012-08-05T15:50:05Z</time>
      </trkpt>
      <trkpt lat="59.829816" lon="17.6583064">
        <ele>40.0321</ele>
        <time>2012-08-05T15:50:08Z</time>
      </trkpt>
      <trkpt lat="59.8300455" lon="17.65816">
        <ele>30.8995</ele>
        <time>2012-08-05T15:50:13Z</time>
      </trkpt>
      <trkpt lat="59.8301725" lon="17.6578879">
        <ele>26.5736</ele>
        <time>2012-08-05T15:50:16Z</time>
      </trkpt>
      <trkpt lat="59.83032" lon="17.6573715">
        <ele>23.209</ele>
        <time>2012-08-05T15:50:21Z</time>
      </trkpt>
      <trkpt lat="59.8303333" lon="17.6570731">
        <ele>21.767</ele>
        <time>2012-08-05T15:50:24Z</time>
      </trkpt>
      <trkpt lat="59.8302677" lon="17.6563159">
        <ele>23.209</ele>
        <time>2012-08-05T15:50:30Z</time>
      </trkpt>
      <trkpt lat="59.8300642" lon="17.6558771">
        <ele>25.1317</ele>
        <time>2012-08-05T15:50:34Z</time>
      </trkpt>
      <trkpt lat="59.8298539" lon="17.6553285">
        <ele>26.5736</ele>
        <time>2012-08-05T15:50:39Z</time>
      </trkpt>
      <trkpt lat="59.8297566" lon="17.6548859">
        <ele>28.9769</ele>
        <time>2012-08-05T15:50:42Z</time>
      </trkpt>
      <trkpt lat="59.829787" lon="17.6547558">
        <ele>29.4575</ele>
        <time>2012-08-05T15:50:43Z</time>
      </trkpt>
      <trkpt lat="59.8298371" lon="17.654541">
        <ele>27.5349</ele>
        <time>2012-08-05T15:50:45Z</time>
      </trkpt>
      <trkpt lat="59.8298632" lon="17.6544442">
        <ele>28.0155</ele>
        <time>2012-08-05T15:50:46Z</time>
      </trkpt>
      <trkpt lat="59.8300212" lon="17.6543898">
        <ele>27.5349</ele>
        <time>2012-08-05T15:50:49Z</time>
      </trkpt>
      <trkpt lat="59.8300541" lon="17.6543968">
        <ele>26.0929</ele>
        <time>2012-08-05T15:50:50Z</time>
      </trkpt>
      <trkpt lat="59.8304516" lon="17.6545769">
        <ele>20.8057</ele>
        <time>2012-08-05T15:50:57Z</time>
      </trkpt>
      <trkpt lat="59.8305071" lon="17.6546151">
        <ele>21.2864</ele>
        <time>2012-08-05T15:50:58Z</time>
      </trkpt>
      <trkpt lat="59.8307513" lon="17.6549688">
        <ele>20.8057</ele>
        <time>2012-08-05T15:51:03Z</time>
      </trkpt>
      <trkpt lat="59.8309706" lon="17.655006">
        <ele>23.209</ele>
        <time>2012-08-05T15:51:07Z</time>
      </trkpt>
      <trkpt lat="59.8311611" lon="17.6547826">
        <ele>25.1317</ele>
        <time>2012-08-05T15:51:11Z</time>
      </trkpt>
      <trkpt lat="59.8312503" lon="17.6545416">
        <ele>24.1703</ele>
        <time>2012-08-05T15:51:13Z</time>
      </trkpt>
      <trkpt lat="59.8314322" lon="17.6541484">
        <ele>31.3801</ele>
        <time>2012-08-05T15:51:17Z</time>
      </trkpt>
      <trkpt lat="59.8317266" lon="17.6539925">
        <ele>32.8223</ele>
        <time>2012-08-05T15:51:21Z</time>
      </trkpt>
      <trkpt lat="59.8320922" lon="17.6536807">
        <ele>37.1481</ele>
        <time>2012-08-05T15:51:27Z</time>
      </trkpt>
      <trkpt lat="59.8324287" lon="17.6533422">
        <ele>27.5349</ele>
        <time>2012-08-05T15:51:33Z</time>
      </trkpt>
      <trkpt lat="59.8327629" lon="17.6530653">
        <ele>24.651</ele>
        <time>2012-08-05T15:51:38Z</time>
      </trkpt>
      <trkpt lat="59.8332384" lon="17.6528789">
        <ele>20.8057</ele>
        <time>2012-08-05T15:51:44Z</time>
      </trkpt>
      <trkpt lat="59.8334637" lon="17.6528104">
        <ele>17.9218</ele>
        <time>2012-08-05T15:51:47Z</time>
      </trkpt>
      <trkpt lat="59.8338001" lon="17.6528016">
        <ele>17.4412</ele>
        <time>2012-08-05T15:51:51Z</time>
      </trkpt>
      <trkpt lat="59.8342622" lon="17.6529975">
        <ele>15.999</ele>
        <time>2012-08-05T15:51:56Z</time>
      </trkpt>
      <trkpt lat="59.8348038" lon="17.652997">
        <ele>17.4412</ele>
        <time>2012-08-05T15:52:02Z</time>
      </trkpt>
      <trkpt lat="59.8352784" lon="17.6528941">
        <ele>20.325</ele>
        <time>2012-08-05T15:52:08Z</time>
      </trkpt>
      <trkpt lat="59.835804" lon="17.6527636">
        <ele>19.3638</ele>
        <time>2012-08-05T15:52:16Z</time>
      </trkpt>
      <trkpt lat="59.8360958" lon="17.6529039">
        <ele>15.0377</ele>
        <time>2012-08-05T15:52:21Z</time>
      </trkpt>
      <trkpt lat="59.8365274" lon="17.6532034">
        <ele>11.1925</ele>
        <time>2012-08-05T15:52:28Z</time>
      </trkpt>
      <trkpt lat="59.8369317" lon="17.6533776">
        <ele>12.1538</ele>
        <time>2012-08-05T15:52:34Z</time>
      </trkpt>
      <trkpt lat="59.8373133" lon="17.6535452">
        <ele>13.1151</ele>
        <time>2012-08-05T15:52:40Z</time>
      </trkpt>
      <trkpt lat="59.8374414" lon="17.6535973">
        <ele>14.0764</ele>
        <time>2012-08-05T15:52:42Z</time>
      </trkpt>
      <trkpt lat="59.8378948" lon="17.6538407">
        <ele>13.1151</ele>
        <time>2012-08-05T15:52:49Z</time>
      </trkpt>
      <trkpt lat="59.8382414" lon="17.6538735">
        <ele>13.1151</ele>
        <time>2012-08-05T15:52:54Z</time>
      </trkpt>
      <trkpt lat="59.8386342" lon="17.6537117">
        <ele>12.1538</ele>
        <time>2012-08-05T15:53:00Z</time>
      </trkpt>
      <trkpt lat="59.838962" lon="17.6537871">
        <ele>10.2312</ele>
        <time>2012-08-05T15:53:05Z</time>
      </trkpt>
      <trkpt lat="59.8392463" lon="17.6538858">
        <ele>8.78918</ele>
        <time>2012-08-05T15:53:09Z</time>
      </trkpt>
      <trkpt lat="59.8397193" lon="17.65377">
        <ele>7.82788</ele>
        <time>2012-08-05T15:53:15Z</time>
      </trkpt>
      <trkpt lat="59.8404127" lon="17.6535889">
        <ele>10.2312</ele>
        <time>2012-08-05T15:53:23Z</time>
      </trkpt>
      <trkpt lat="59.840904" lon="17.6534543">
        <ele>9.2699</ele>
        <time>2012-08-05T15:53:29Z</time>
      </trkpt>
      <trkpt lat="59.8411883" lon="17.6533758">
        <ele>8.30859</ele>
        <time>2012-08-05T15:53:33Z</time>
      </trkpt>
      <trkpt lat="59.8415202" lon="17.653243">
        <ele>7.82788</ele>
        <time>2012-08-05T15:53:38Z</time>
      </trkpt>
      <trkpt lat="59.8418634" lon="17.6528767">
        <ele>7.34717</ele>
        <time>2012-08-05T15:53:44Z</time>
      </trkpt>
      <trkpt lat="59.8421867" lon="17.6524975">
        <ele>6.86646</ele>
        <time>2012-08-05T15:53:50Z</time>
      </trkpt>
      <trkpt lat="59.8425252" lon="17.6523262">
        <ele>6.38586</ele>
        <time>2012-08-05T15:53:56Z</time>
      </trkpt>
      <trkpt lat="59.842686" lon="17.6522687">
        <ele>6.86646</ele>
        <time>2012-08-05T15:53:59Z</time>
      </trkpt>
      <trkpt lat="59.8427772" lon="17.6522051">
        <ele>6.38586</ele>
        <time>2012-08-05T15:54:01Z</time>
      </trkpt>
      <trkpt lat="59.8431851" lon="17.6519928">
        <ele>9.2699</ele>
        <time>2012-08-05T15:54:09Z</time>
      </trkpt>
      <trkpt lat="59.8435894" lon="17.6516323">
        <ele>9.2699</ele>
        <time>2012-08-05T15:54:16Z</time>
      </trkpt>
      <trkpt lat="59.8438878" lon="17.6512846">
        <ele>10.2312</ele>
        <time>2012-08-05T15:54:22Z</time>
      </trkpt>
      <trkpt lat="59.8442472" lon="17.6507">
        <ele>10.2312</ele>
        <time>2012-08-05T15:54:30Z</time>
      </trkpt>
      <trkpt lat="59.8445224" lon="17.6503011">
        <ele>9.2699</ele>
        <time>2012-08-05T15:54:36Z</time>
      </trkpt>
      <trkpt lat="59.8448989" lon="17.6498835">
        <ele>9.75061</ele>
        <time>2012-08-05T15:54:43Z</time>
      </trkpt>
      <trkpt lat="59.8451733" lon="17.6495755">
        <ele>9.2699</ele>
        <time>2012-08-05T15:54:48Z</time>
      </trkpt>
      <trkpt lat="59.8454728" lon="17.6492351">
        <ele>7.34717</ele>
        <time>2012-08-05T15:54:54Z</time>
      </trkpt>
      <trkpt lat="59.8458346" lon="17.6488">
        <ele>7.82788</ele>
        <time>2012-08-05T15:55:01Z</time>
      </trkpt>
      <trkpt lat="59.845941" lon="17.648671">
        <ele>8.30859</ele>
        <time>2012-08-05T15:55:03Z</time>
      </trkpt>
      <trkpt lat="59.8461834" lon="17.648634">
        <ele>8.30859</ele>
        <time>2012-08-05T15:55:07Z</time>
      </trkpt>
      <trkpt lat="59.8463644" lon="17.648817">
        <ele>7.82788</ele>
        <time>2012-08-05T15:55:10Z</time>
      </trkpt>
      <trkpt lat="59.8466497" lon="17.6492895">
        <ele>6.38586</ele>
        <time>2012-08-05T15:55:16Z</time>
      </trkpt>
      <trkpt lat="59.8468301" lon="17.6495432">
        <ele>5.42456</ele>
        <time>2012-08-05T15:55:20Z</time>
      </trkpt>
      <trkpt lat="59.8469992" lon="17.6496143">
        <ele>5.90527</ele>
        <time>2012-08-05T15:55:24Z</time>
      </trkpt>
      <trkpt lat="59.8470398" lon="17.6495743">
        <ele>5.42456</ele>
        <time>2012-08-05T15:55:25Z</time>
      </trkpt>
      <trkpt lat="59.8473853" lon="17.6491772">
        <ele>5.90527</ele>
        <time>2012-08-05T15:55:32Z</time>
      </trkpt>
      <trkpt lat="59.8477376" lon="17.6488342">
        <ele>6.38586</ele>
        <time>2012-08-05T15:55:38Z</time>
      </trkpt>
      <trkpt lat="59.8480804" lon="17.6486024">
        <ele>7.82788</ele>
        <time>2012-08-05T15:55:44Z</time>
      </trkpt>
      <trkpt lat="59.8484385" lon="17.6483607">
        <ele>9.75061</ele>
        <time>2012-08-05T15:55:51Z</time>
      </trkpt>
      <trkpt lat="59.8486848" lon="17.6481063">
        <ele>11.6732</ele>
        <time>2012-08-05T15:55:56Z</time>
      </trkpt>
      <trkpt lat="59.8489874" lon="17.6477582">
        <ele>15.0377</ele>
        <time>2012-08-05T15:56:02Z</time>
      </trkpt>
      <trkpt lat="59.8493093" lon="17.64735">
        <ele>18.4023</ele>
        <time>2012-08-05T15:56:09Z</time>
      </trkpt>
      <trkpt lat="59.8496755" lon="17.6469584">
        <ele>24.1703</ele>
        <time>2012-08-05T15:56:17Z</time>
      </trkpt>
      <trkpt lat="59.8499122" lon="17.6467113">
        <ele>25.1317</ele>
        <time>2012-08-05T15:56:22Z</time>
      </trkpt>
      <trkpt lat="59.8501499" lon="17.6464789">
        <ele>27.0543</ele>
        <time>2012-08-05T15:56:27Z</time>
      </trkpt>
      <trkpt lat="59.8504616" lon="17.6461978">
        <ele>27.0543</ele>
        <time>2012-08-05T15:56:33Z</time>
      </trkpt>
      <trkpt lat="59.8508669" lon="17.6458131">
        <ele>24.651</ele>
        <time>2012-08-05T15:56:41Z</time>
      </trkpt>
      <trkpt lat="59.8511124" lon="17.6456075">
        <ele>23.209</ele>
        <time>2012-08-05T15:56:46Z</time>
      </trkpt>
      <trkpt lat="59.8514735" lon="17.6452552">
        <ele>22.2476</ele>
        <time>2012-08-05T15:56:53Z</time>
      </trkpt>
      <trkpt lat="59.8517238" lon="17.6449372">
        <ele>12.6344</ele>
        <time>2012-08-05T15:56:58Z</time>
      </trkpt>
      <trkpt lat="59.852149" lon="17.6444423">
        <ele>15.999</ele>
        <time>2012-08-05T15:57:06Z</time>
      </trkpt>
      <trkpt lat="59.8525049" lon="17.6440032">
        <ele>16.9604</ele>
        <time>2012-08-05T15:57:13Z</time>
      </trkpt>
      <trkpt lat="59.8528704" lon="17.6434945">
        <ele>20.8057</ele>
        <time>2012-08-05T15:57:20Z</time>
      </trkpt>
      <trkpt lat="59.853173" lon="17.6430358">
        <ele>20.8057</ele>
        <time>2012-08-05T15:57:26Z</time>
      </trkpt>
      <trkpt lat="59.8535109" lon="17.6423835">
        <ele>19.3638</ele>
        <time>2012-08-05T15:57:34Z</time>
      </trkpt>
      <trkpt lat="59.8537792" lon="17.6419248">
        <ele>16.9604</ele>
        <time>2012-08-05T15:57:40Z</time>
      </trkpt>
      <trkpt lat="59.8539315" lon="17.6418384">
        <ele>15.5184</ele>
        <time>2012-08-05T15:57:43Z</time>
      </trkpt>
      <trkpt lat="59.8540307" lon="17.6418099">
        <ele>15.5184</ele>
        <time>2012-08-05T15:57:45Z</time>
      </trkpt>
      <trkpt lat="59.8542641" lon="17.6415825">
        <ele>6.38586</ele>
        <time>2012-08-05T15:57:51Z</time>
      </trkpt>
      <trkpt lat="59.8544417" lon="17.6414023">
        <ele>4.46326</ele>
        <time>2012-08-05T15:57:55Z</time>
      </trkpt>
      <trkpt lat="59.8545593" lon="17.6412697">
        <ele>1.57935</ele>
        <time>2012-08-05T15:57:58Z</time>
      </trkpt>
      <trkpt lat="59.8546383" lon="17.6411929">
        <ele>0.618042</ele>
        <time>2012-08-05T15:58:00Z</time>
      </trkpt>
      <trkpt lat="59.8547756" lon="17.6411691">
        <ele>0</ele>
        <time>2012-08-05T15:58:04Z</time>
      </trkpt>
      <trkpt lat="59.8550601" lon="17.6410345">
        <ele>0</ele>
        <time>2012-08-05T15:58:10Z</time>
      </trkpt>
      <trkpt lat="59.8554855" lon="17.6405211">
        <ele>0.618042</ele>
        <time>2012-08-05T15:58:19Z</time>
      </trkpt>
      <trkpt lat="59.8559047" lon="17.6400694">
        <ele>2.06006</ele>
        <time>2012-08-05T15:58:27Z</time>
      </trkpt>
      <trkpt lat="59.8562801" lon="17.6396391">
        <ele>3.98267</ele>
        <time>2012-08-05T15:58:34Z</time>
      </trkpt>
      <trkpt lat="59.8565137" lon="17.6393271">
        <ele>3.98267</ele>
        <time>2012-08-05T15:58:39Z</time>
      </trkpt>
      <trkpt lat="59.8565618" lon="17.6392675">
        <ele>3.50195</ele>
        <time>2012-08-05T15:58:40Z</time>
      </trkpt>
      <trkpt lat="59.8568743" lon="17.6388845">
        <ele>4.46326</ele>
        <time>2012-08-05T15:58:46Z</time>
      </trkpt>
      <trkpt lat="59.8569818" lon="17.6387558">
        <ele>4.94385</ele>
        <time>2012-08-05T15:58:48Z</time>
      </trkpt>
      <trkpt lat="59.8573217" lon="17.6381947">
        <ele>6.86646</ele>
        <time>2012-08-05T15:58:55Z</time>
      </trkpt>
      <trkpt lat="59.8575555" lon="17.6378789">
        <ele>8.78918</ele>
        <time>2012-08-05T15:59:00Z</time>
      </trkpt>
      <trkpt lat="59.8576254" lon="17.6376804">
        <ele>6.38586</ele>
        <time>2012-08-05T15:59:02Z</time>
      </trkpt>
      <trkpt lat="59.8578405" lon="17.6371504">
        <ele>2.06006</ele>
        <time>2012-08-05T15:59:09Z</time>
      </trkpt>
      <trkpt lat="59.8580347" lon="17.6366139">
        <ele>3.98267</ele>
        <time>2012-08-05T15:59:15Z</time>
      </trkpt>
      <trkpt lat="59.8582513" lon="17.6359721">
        <ele>6.86646</ele>
        <time>2012-08-05T15:59:22Z</time>
      </trkpt>
      <trkpt lat="59.8583162" lon="17.6358426">
        <ele>10.2312</ele>
        <time>2012-08-05T15:59:24Z</time>
      </trkpt>
      <trkpt lat="59.858433" lon="17.6357662">
        <ele>11.1925</ele>
        <time>2012-08-05T15:59:28Z</time>
      </trkpt>
      <trkpt lat="59.8585462" lon="17.6358822">
        <ele>8.30859</ele>
        <time>2012-08-05T15:59:32Z</time>
      </trkpt>
      <trkpt lat="59.858593" lon="17.6360285">
        <ele>8.78918</ele>
        <time>2012-08-05T15:59:34Z</time>
      </trkpt>
      <trkpt lat="59.8587548" lon="17.636117">
        <ele>5.42456</ele>
        <time>2012-08-05T15:59:39Z</time>
      </trkpt>
      <trkpt lat="59.8587983" lon="17.6360419">
        <ele>5.90527</ele>
        <time>2012-08-05T15:59:40Z</time>
      </trkpt>
      <trkpt lat="59.8590297" lon="17.6355343">
        <ele>7.34717</ele>
        <time>2012-08-05T15:59:46Z</time>
      </trkpt>
      <trkpt lat="59.8592012" lon="17.6352377">
        <ele>9.75061</ele>
        <time>2012-08-05T15:59:50Z</time>
      </trkpt>
      <trkpt lat="59.8594659" lon="17.634622">
        <ele>6.86646</ele>
        <time>2012-08-05T15:59:57Z</time>
      </trkpt>
      <trkpt lat="59.8595908" lon="17.6344198">
        <ele>6.38586</ele>
        <time>2012-08-05T16:00:00Z</time>
      </trkpt>
      <trkpt lat="59.8597642" lon="17.6342359">
        <ele>9.75061</ele>
        <time>2012-08-05T16:00:04Z</time>
      </trkpt>
      <trkpt lat="59.860074" lon="17.6339916">
        <ele>11.1925</ele>
        <time>2012-08-05T16:00:10Z</time>
      </trkpt>
      <trkpt lat="59.8602173" lon="17.6340159">
        <ele>8.78918</ele>
        <time>2012-08-05T16:00:14Z</time>
      </trkpt>
      <trkpt lat="59.8604072" lon="17.6337899">
        <ele>9.2699</ele>
        <time>2012-08-05T16:00:21Z</time>
      </trkpt>
      <trkpt lat="59.8605918" lon="17.6336067">
        <ele>8.78918</ele>
        <time>2012-08-05T16:00:25Z</time>
      </trkpt>
      <trkpt lat="59.8607733" lon="17.6334715">
        <ele>7.82788</ele>
        <time>2012-08-05T16:00:28Z</time>
      </trkpt>
      <trkpt lat="59.861036" lon="17.6333371">
        <ele>14.557</ele>
        <time>2012-08-05T16:00:33Z</time>
      </trkpt>
      <trkpt lat="59.8611214" lon="17.633213">
        <ele>17.4412</ele>
        <time>2012-08-05T16:00:35Z</time>
      </trkpt>
      <trkpt lat="59.8612012" lon="17.6331742">
        <ele>18.4023</ele>
        <time>2012-08-05T16:00:37Z</time>
      </trkpt>
      <trkpt lat="59.8612212" lon="17.6330084">
        <ele>14.0764</ele>
        <time>2012-08-05T16:00:41Z</time>
      </trkpt>
      <trkpt lat="59.8611748" lon="17.632897">
        <ele>14.0764</ele>
        <time>2012-08-05T16:00:43Z</time>
      </trkpt>
      <trkpt lat="59.8610493" lon="17.632527">
        <ele>12.1538</ele>
        <time>2012-08-05T16:00:48Z</time>
      </trkpt>
      <trkpt lat="59.8611238" lon="17.6323854">
        <ele>13.1151</ele>
        <time>2012-08-05T16:00:52Z</time>
      </trkpt>
      <trkpt lat="59.8612588" lon="17.6322656">
        <ele>12.1538</ele>
        <time>2012-08-05T16:00:55Z</time>
      </trkpt>
      <trkpt lat="59.8616696" lon="17.6320371">
        <ele>11.1925</ele>
        <time>2012-08-05T16:01:03Z</time>
      </trkpt>
      <trkpt lat="59.8619071" lon="17.6319458">
        <ele>8.78918</ele>
        <time>2012-08-05T16:01:08Z</time>
      </trkpt>
      <trkpt lat="59.8619759" lon="17.6319158">
        <ele>6.86646</ele>
        <time>2012-08-05T16:01:10Z</time>
      </trkpt>
      <trkpt lat="59.8621977" lon="17.6319515">
        <ele>20.325</ele>
        <time>2012-08-05T16:01:15Z</time>
      </trkpt>
      <trkpt lat="59.8622356" lon="17.632003">
        <ele>20.8057</ele>
        <time>2012-08-05T16:01:16Z</time>
      </trkpt>
      <trkpt lat="59.8623216" lon="17.6320801">
        <ele>22.7283</ele>
        <time>2012-08-05T16:01:18Z</time>
      </trkpt>
      <trkpt lat="59.8624743" lon="17.6320434">
        <ele>20.325</ele>
        <time>2012-08-05T16:01:23Z</time>
      </trkpt>
      <trkpt lat="59.8625062" lon="17.6319531">
        <ele>21.767</ele>
        <time>2012-08-05T16:01:24Z</time>
      </trkpt>
      <trkpt lat="59.8626199" lon="17.6316971">
        <ele>23.209</ele>
        <time>2012-08-05T16:01:27Z</time>
      </trkpt>
      <trkpt lat="59.8629127" lon="17.6316472">
        <ele>23.209</ele>
        <time>2012-08-05T16:01:31Z</time>
      </trkpt>
      <trkpt lat="59.8632444" lon="17.6313978">
        <ele>27.0543</ele>
        <time>2012-08-05T16:01:37Z</time>
      </trkpt>
      <trkpt lat="59.8636074" lon="17.6312252">
        <ele>20.325</ele>
        <time>2012-08-05T16:01:43Z</time>
      </trkpt>
      <trkpt lat="59.8639477" lon="17.631096">
        <ele>15.5184</ele>
        <time>2012-08-05T16:01:49Z</time>
      </trkpt>
      <trkpt lat="59.8641571" lon="17.6309802">
        <ele>11.6732</ele>
        <time>2012-08-05T16:01:53Z</time>
      </trkpt>
      <trkpt lat="59.8644968" lon="17.6306212">
        <ele>8.30859</ele>
        <time>2012-08-05T16:02:00Z</time>
      </trkpt>
      <trkpt lat="59.8645518" lon="17.6305368">
        <ele>9.2699</ele>
        <time>2012-08-05T16:02:01Z</time>
      </trkpt>
      <trkpt lat="59.8646748" lon="17.6303825">
        <ele>9.75061</ele>
        <time>2012-08-05T16:02:03Z</time>
      </trkpt>
      <trkpt lat="59.8648067" lon="17.6301553">
        <ele>9.75061</ele>
        <time>2012-08-05T16:02:05Z</time>
      </trkpt>
      <trkpt lat="59.8651908" lon="17.6295466">
        <ele>6.86646</ele>
        <time>2012-08-05T16:02:12Z</time>
      </trkpt>
      <trkpt lat="59.8652848" lon="17.6293439">
        <ele>11.1925</ele>
        <time>2012-08-05T16:02:16Z</time>
      </trkpt>
      <trkpt lat="59.8654041" lon="17.6291001">
        <ele>11.6732</ele>
        <time>2012-08-05T16:02:20Z</time>
      </trkpt>
      <trkpt lat="59.8655706" lon="17.6289361">
        <ele>14.0764</ele>
        <time>2012-08-05T16:02:23Z</time>
      </trkpt>
      <trkpt lat="59.8657854" lon="17.6284929">
        <ele>16.4797</ele>
        <time>2012-08-05T16:02:28Z</time>
      </trkpt>
      <trkpt lat="59.8658969" lon="17.6282641">
        <ele>15.999</ele>
        <time>2012-08-05T16:02:31Z</time>
      </trkpt>
      <trkpt lat="59.8660555" lon="17.6280458">
        <ele>18.8831</ele>
        <time>2012-08-05T16:02:35Z</time>
      </trkpt>
      <trkpt lat="59.8662626" lon="17.6276078">
        <ele>22.2476</ele>
        <time>2012-08-05T16:02:42Z</time>
      </trkpt>
      <trkpt lat="59.8663345" lon="17.6274011">
        <ele>23.6896</ele>
        <time>2012-08-05T16:02:44Z</time>
      </trkpt>
      <trkpt lat="59.8665725" lon="17.627015">
        <ele>20.8057</ele>
        <time>2012-08-05T16:02:49Z</time>
      </trkpt>
      <trkpt lat="59.8667253" lon="17.6269102">
        <ele>16.4797</ele>
        <time>2012-08-05T16:02:53Z</time>
      </trkpt>
      <trkpt lat="59.8668294" lon="17.6266767">
        <ele>13.5958</ele>
        <time>2012-08-05T16:02:57Z</time>
      </trkpt>
      <trkpt lat="59.8670137" lon="17.626225">
        <ele>15.5184</ele>
        <time>2012-08-05T16:03:02Z</time>
      </trkpt>
      <trkpt lat="59.8673293" lon="17.6257786">
        <ele>17.4412</ele>
        <time>2012-08-05T16:03:09Z</time>
      </trkpt>
      <trkpt lat="59.8676186" lon="17.6253852">
        <ele>17.4412</ele>
        <time>2012-08-05T16:03:15Z</time>
      </trkpt>
      <trkpt lat="59.8678233" lon="17.6250646">
        <ele>14.0764</ele>
        <time>2012-08-05T16:03:21Z</time>
      </trkpt>
      <trkpt lat="59.8679302" lon="17.6249879">
        <ele>11.6732</ele>
        <time>2012-08-05T16:03:23Z</time>
      </trkpt>
      <trkpt lat="59.8683566" lon="17.6247442">
        <ele>6.86646</ele>
        <time>2012-08-05T16:03:31Z</time>
      </trkpt>
      <trkpt lat="59.8687672" lon="17.6244593">
        <ele>6.38586</ele>
        <time>2012-08-05T16:03:39Z</time>
      </trkpt>
      <trkpt lat="59.8691454" lon="17.6240674">
        <ele>5.42456</ele>
        <time>2012-08-05T16:03:46Z</time>
      </trkpt>
      <trkpt lat="59.8692858" lon="17.6239532">
        <ele>6.86646</ele>
        <time>2012-08-05T16:03:50Z</time>
      </trkpt>
      <trkpt lat="59.8692987" lon="17.6239351">
        <ele>6.38586</ele>
        <time>2012-08-05T16:03:51Z</time>
      </trkpt>
      <trkpt lat="59.8692972" lon="17.6237707">
        <ele>4.94385</ele>
        <time>2012-08-05T16:03:56Z</time>
      </trkpt>
      <trkpt lat="59.8692842" lon="17.6237213">
        <ele>4.46326</ele>
        <time>2012-08-05T16:03:57Z</time>
      </trkpt>
      <trkpt lat="59.8691594" lon="17.6232403">
        <ele>2.54065</ele>
        <time>2012-08-05T16:04:04Z</time>
      </trkpt>
      <trkpt lat="59.8691463" lon="17.6231631">
        <ele>3.50195</ele>
        <time>2012-08-05T16:04:05Z</time>
      </trkpt>
      <trkpt lat="59.8691805" lon="17.62293">
        <ele>3.02124</ele>
        <time>2012-08-05T16:04:09Z</time>
      </trkpt>
      <trkpt lat="59.8692745" lon="17.6226327">
        <ele>6.38586</ele>
        <time>2012-08-05T16:04:13Z</time>
      </trkpt>
      <trkpt lat="59.8692962" lon="17.6225421">
        <ele>6.38586</ele>
        <time>2012-08-05T16:04:14Z</time>
      </trkpt>
      <trkpt lat="59.8695788" lon="17.6218744">
        <ele>8.30859</ele>
        <time>2012-08-05T16:04:22Z</time>
      </trkpt>
      <trkpt lat="59.8697275" lon="17.6211425">
        <ele>9.75061</ele>
        <time>2012-08-05T16:04:28Z</time>
      </trkpt>
      <trkpt lat="59.8698397" lon="17.6204428">
        <ele>8.78918</ele>
        <time>2012-08-05T16:04:34Z</time>
      </trkpt>
      <trkpt lat="59.8699157" lon="17.6195596">
        <ele>6.86646</ele>
        <time>2012-08-05T16:04:41Z</time>
      </trkpt>
      <trkpt lat="59.8699096" lon="17.6190683">
        <ele>6.38586</ele>
        <time>2012-08-05T16:04:45Z</time>
      </trkpt>
      <trkpt lat="59.8699518" lon="17.6184503">
        <ele>8.30859</ele>
        <time>2012-08-05T16:04:49Z</time>
      </trkpt>
      <trkpt lat="59.8699916" lon="17.6182467">
        <ele>7.82788</ele>
        <time>2012-08-05T16:04:51Z</time>
      </trkpt>
      <trkpt lat="59.8700468" lon="17.6177405">
        <ele>9.2699</ele>
        <time>2012-08-05T16:04:55Z</time>
      </trkpt>
      <trkpt lat="59.8701764" lon="17.616828">
        <ele>15.5184</ele>
        <time>2012-08-05T16:05:01Z</time>
      </trkpt>
      <trkpt lat="59.870356" lon="17.6161402">
        <ele>8.30859</ele>
        <time>2012-08-05T16:05:09Z</time>
      </trkpt>
      <trkpt lat="59.8705182" lon="17.6155886">
        <ele>10.7118</ele>
        <time>2012-08-05T16:05:15Z</time>
      </trkpt>
      <trkpt lat="59.8705807" lon="17.6153249">
        <ele>10.7118</ele>
        <time>2012-08-05T16:05:18Z</time>
      </trkpt>
      <trkpt lat="59.8707828" lon="17.6145313">
        <ele>8.30859</ele>
        <time>2012-08-05T16:05:27Z</time>
      </trkpt>
      <trkpt lat="59.8709368" lon="17.6137597">
        <ele>9.2699</ele>
        <time>2012-08-05T16:05:34Z</time>
      </trkpt>
      <trkpt lat="59.8710159" lon="17.6134428">
        <ele>9.75061</ele>
        <time>2012-08-05T16:05:37Z</time>
      </trkpt>
      <trkpt lat="59.8712092" lon="17.6126598">
        <ele>9.2699</ele>
        <time>2012-08-05T16:05:44Z</time>
      </trkpt>
      <trkpt lat="59.8714635" lon="17.6120403">
        <ele>5.42456</ele>
        <time>2012-08-05T16:05:50Z</time>
      </trkpt>
      <trkpt lat="59.87183" lon="17.6113862">
        <ele>3.98267</ele>
        <time>2012-08-05T16:05:57Z</time>
      </trkpt>
      <trkpt lat="59.8721038" lon="17.610907">
        <ele>4.46326</ele>
        <time>2012-08-05T16:06:02Z</time>
      </trkpt>
      <trkpt lat="59.8723725" lon="17.6104061">
        <ele>0</ele>
        <time>2012-08-05T16:06:08Z</time>
      </trkpt>
      <trkpt lat="59.8726446" lon="17.6098848">
        <ele>0</ele>
        <time>2012-08-05T16:06:14Z</time>
      </trkpt>
      <trkpt lat="59.8728843" lon="17.6092805">
        <ele>3.50195</ele>
        <time>2012-08-05T16:06:19Z</time>
      </trkpt>
      <trkpt lat="59.8730582" lon="17.6091406">
        <ele>2.06006</ele>
        <time>2012-08-05T16:06:22Z</time>
      </trkpt>
      <trkpt lat="59.8732056" lon="17.6088602">
        <ele>2.54065</ele>
        <time>2012-08-05T16:06:25Z</time>
      </trkpt>
      <trkpt lat="59.8733589" lon="17.6084133">
        <ele>3.02124</ele>
        <time>2012-08-05T16:06:29Z</time>
      </trkpt>
      <trkpt lat="59.8735646" lon="17.6082523">
        <ele>4.46326</ele>
        <time>2012-08-05T16:06:33Z</time>
      </trkpt>
      <trkpt lat="59.8738261" lon="17.608348">
        <ele>6.86646</ele>
        <time>2012-08-05T16:06:37Z</time>
      </trkpt>
      <trkpt lat="59.873892" lon="17.6083314">
        <ele>7.34717</ele>
        <time>2012-08-05T16:06:38Z</time>
      </trkpt>
      <trkpt lat="59.8744427" lon="17.6080958">
        <ele>7.34717</ele>
        <time>2012-08-05T16:06:46Z</time>
      </trkpt>
      <trkpt lat="59.8748464" lon="17.6078229">
        <ele>6.38586</ele>
        <time>2012-08-05T16:06:52Z</time>
      </trkpt>
      <trkpt lat="59.8751455" lon="17.6074957">
        <ele>6.38586</ele>
        <time>2012-08-05T16:06:57Z</time>
      </trkpt>
      <trkpt lat="59.8753215" lon="17.6071036">
        <ele>7.34717</ele>
        <time>2012-08-05T16:07:01Z</time>
      </trkpt>
      <trkpt lat="59.8753864" lon="17.6068583">
        <ele>6.38586</ele>
        <time>2012-08-05T16:07:03Z</time>
      </trkpt>
      <trkpt lat="59.8756936" lon="17.6062802">
        <ele>4.46326</ele>
        <time>2012-08-05T16:07:09Z</time>
      </trkpt>
      <trkpt lat="59.8757434" lon="17.6062081">
        <ele>3.98267</ele>
        <time>2012-08-05T16:07:10Z</time>
      </trkpt>
      <trkpt lat="59.8759407" lon="17.6058746">
        <ele>3.50195</ele>
        <time>2012-08-05T16:07:14Z</time>
      </trkpt>
      <trkpt lat="59.8761158" lon="17.6054959">
        <ele>5.90527</ele>
        <time>2012-08-05T16:07:19Z</time>
      </trkpt>
      <trkpt lat="59.8762395" lon="17.6054746">
        <ele>6.86646</ele>
        <time>2012-08-05T16:07:23Z</time>
      </trkpt>
      <trkpt lat="59.8762977" lon="17.6056072">
        <ele>6.86646</ele>
        <time>2012-08-05T16:07:25Z</time>
      </trkpt>
      <trkpt lat="59.8764053" lon="17.6058352">
        <ele>7.34717</ele>
        <time>2012-08-05T16:07:28Z</time>
      </trkpt>
      <trkpt lat="59.8766266" lon="17.6064257">
        <ele>6.38586</ele>
        <time>2012-08-05T16:07:34Z</time>
      </trkpt>
      <trkpt lat="59.8767221" lon="17.6067307">
        <ele>6.86646</ele>
        <time>2012-08-05T16:07:37Z</time>
      </trkpt>
      <trkpt lat="59.8769892" lon="17.6076464">
        <ele>6.38586</ele>
        <time>2012-08-05T16:07:47Z</time>
      </trkpt>
      <trkpt lat="59.8772223" lon="17.6084375">
        <ele>6.38586</ele>
        <time>2012-08-05T16:07:55Z</time>
      </trkpt>
      <trkpt lat="59.8774316" lon="17.6091339">
        <ele>6.86646</ele>
        <time>2012-08-05T16:08:02Z</time>
      </trkpt>
      <trkpt lat="59.8776474" lon="17.6098618">
        <ele>7.34717</ele>
        <time>2012-08-05T16:08:10Z</time>
      </trkpt>
      <trkpt lat="59.87781" lon="17.6103815">
        <ele>7.34717</ele>
        <time>2012-08-05T16:08:17Z</time>
      </trkpt>
      <trkpt lat="59.8779962" lon="17.6109842">
        <ele>7.82788</ele>
        <time>2012-08-05T16:08:25Z</time>
      </trkpt>
      <trkpt lat="59.8780277" lon="17.6110661">
        <ele>8.30859</ele>
        <time>2012-08-05T16:08:26Z</time>
      </trkpt>
      <trkpt lat="59.8782365" lon="17.6113583">
        <ele>9.2699</ele>
        <time>2012-08-05T16:08:31Z</time>
      </trkpt>
      <trkpt lat="59.8783628" lon="17.611572">
        <ele>10.7118</ele>
        <time>2012-08-05T16:08:34Z</time>
      </trkpt>
      <trkpt lat="59.8786442" lon="17.6124284">
        <ele>11.1925</ele>
        <time>2012-08-05T16:08:42Z</time>
      </trkpt>
      <trkpt lat="59.8788932" lon="17.6132694">
        <ele>10.2312</ele>
        <time>2012-08-05T16:08:49Z</time>
      </trkpt>
      <trkpt lat="59.8791205" lon="17.6140677">
        <ele>9.2699</ele>
        <time>2012-08-05T16:08:56Z</time>
      </trkpt>
      <trkpt lat="59.8793231" lon="17.6149189">
        <ele>9.2699</ele>
        <time>2012-08-05T16:09:04Z</time>
      </trkpt>
      <trkpt lat="59.87934" lon="17.6150214">
        <ele>8.78918</ele>
        <time>2012-08-05T16:09:05Z</time>
      </trkpt>
      <trkpt lat="59.8794464" lon="17.6154126">
        <ele>7.34717</ele>
        <time>2012-08-05T16:09:09Z</time>
      </trkpt>
      <trkpt lat="59.8795252" lon="17.6158322">
        <ele>5.42456</ele>
        <time>2012-08-05T16:09:14Z</time>
      </trkpt>
      <trkpt lat="59.8795432" lon="17.6161475">
        <ele>5.42456</ele>
        <time>2012-08-05T16:09:19Z</time>
      </trkpt>
      <trkpt lat="59.8796143" lon="17.6164803">
        <ele>8.78918</ele>
        <time>2012-08-05T16:09:24Z</time>
      </trkpt>
      <trkpt lat="59.8797195" lon="17.6168455">
        <ele>8.30859</ele>
        <time>2012-08-05T16:09:28Z</time>
      </trkpt>
      <trkpt lat="59.8798962" lon="17.6175">
        <ele>10.7118</ele>
        <time>2012-08-05T16:09:34Z</time>
      </trkpt>
      <trkpt lat="59.8799693" lon="17.6179269">
        <ele>11.1925</ele>
        <time>2012-08-05T16:09:38Z</time>
      </trkpt>
      <trkpt lat="59.8800557" lon="17.6182021">
        <ele>12.6344</ele>
        <time>2012-08-05T16:09:41Z</time>
      </trkpt>
      <trkpt lat="59.8802075" lon="17.6189574">
        <ele>11.1925</ele>
        <time>2012-08-05T16:09:48Z</time>
      </trkpt>
      <trkpt lat="59.8804101" lon="17.6197991">
        <ele>13.1151</ele>
        <time>2012-08-05T16:09:56Z</time>
      </trkpt>
      <trkpt lat="59.8805587" lon="17.6204751">
        <ele>12.6344</ele>
        <time>2012-08-05T16:10:03Z</time>
      </trkpt>
      <trkpt lat="59.8808202" lon="17.6210556">
        <ele>9.75061</ele>
        <time>2012-08-05T16:10:10Z</time>
      </trkpt>
      <trkpt lat="59.8808702" lon="17.6211279">
        <ele>10.2312</ele>
        <time>2012-08-05T16:10:11Z</time>
      </trkpt>
      <trkpt lat="59.8810788" lon="17.6213522">
        <ele>7.82788</ele>
        <time>2012-08-05T16:10:15Z</time>
      </trkpt>
      <trkpt lat="59.8812405" lon="17.6217037">
        <ele>8.30859</ele>
        <time>2012-08-05T16:10:19Z</time>
      </trkpt>
      <trkpt lat="59.8813084" lon="17.6219137">
        <ele>10.7118</ele>
        <time>2012-08-05T16:10:21Z</time>
      </trkpt>
      <trkpt lat="59.8813859" lon="17.6220732">
        <ele>10.7118</ele>
        <time>2012-08-05T16:10:23Z</time>
      </trkpt>
      <trkpt lat="59.8814762" lon="17.6223619">
        <ele>11.1925</ele>
        <time>2012-08-05T16:10:26Z</time>
      </trkpt>
      <trkpt lat="59.8815795" lon="17.6229078">
        <ele>15.0377</ele>
        <time>2012-08-05T16:10:31Z</time>
      </trkpt>
      <trkpt lat="59.8815941" lon="17.6231127">
        <ele>15.5184</ele>
        <time>2012-08-05T16:10:33Z</time>
      </trkpt>
      <trkpt lat="59.8815819" lon="17.6235402">
        <ele>16.4797</ele>
        <time>2012-08-05T16:10:37Z</time>
      </trkpt>
      <trkpt lat="59.8815139" lon="17.6239308">
        <ele>16.4797</ele>
        <time>2012-08-05T16:10:41Z</time>
      </trkpt>
      <trkpt lat="59.8815567" lon="17.6242085">
        <ele>15.999</ele>
        <time>2012-08-05T16:10:45Z</time>
      </trkpt>
      <trkpt lat="59.881599" lon="17.6242406">
        <ele>15.999</ele>
        <time>2012-08-05T16:10:46Z</time>
      </trkpt>
      <trkpt lat="59.8818039" lon="17.6243752">
        <ele>14.557</ele>
        <time>2012-08-05T16:10:51Z</time>
      </trkpt>
      <trkpt lat="59.8819292" lon="17.6244961">
        <ele>14.0764</ele>
        <time>2012-08-05T16:10:54Z</time>
      </trkpt>
      <trkpt lat="59.8821159" lon="17.6248683">
        <ele>12.1538</ele>
        <time>2012-08-05T16:10:59Z</time>
      </trkpt>
      <trkpt lat="59.8822591" lon="17.6253223">
        <ele>11.1925</ele>
        <time>2012-08-05T16:11:04Z</time>
      </trkpt>
      <trkpt lat="59.8824076" lon="17.6257517">
        <ele>10.7118</ele>
        <time>2012-08-05T16:11:09Z</time>
      </trkpt>
      <trkpt lat="59.8825888" lon="17.6259441">
        <ele>8.30859</ele>
        <time>2012-08-05T16:11:13Z</time>
      </trkpt>
      <trkpt lat="59.8826478" lon="17.6259451">
        <ele>7.82788</ele>
        <time>2012-08-05T16:11:14Z</time>
      </trkpt>
      <trkpt lat="59.8827692" lon="17.6259299">
        <ele>7.82788</ele>
        <time>2012-08-05T16:11:16Z</time>
      </trkpt>
      <trkpt lat="59.8832333" lon="17.6256785">
        <ele>5.42456</ele>
        <time>2012-08-05T16:11:24Z</time>
      </trkpt>
      <trkpt lat="59.8837143" lon="17.6255077">
        <ele>1.09863</ele>
        <time>2012-08-05T16:11:32Z</time>
      </trkpt>
      <trkpt lat="59.884074" lon="17.6255038">
        <ele>1.09863</ele>
        <time>2012-08-05T16:11:38Z</time>
      </trkpt>
      <trkpt lat="59.8844991" lon="17.6254936">
        <ele>0.618042</ele>
        <time>2012-08-05T16:11:45Z</time>
      </trkpt>
      <trkpt lat="59.8850286" lon="17.6254599">
        <ele>1.09863</ele>
        <time>2012-08-05T16:11:54Z</time>
      </trkpt>
      <trkpt lat="59.8851493" lon="17.6254458">
        <ele>2.06006</ele>
        <time>2012-08-05T16:11:56Z</time>
      </trkpt>
      <trkpt lat="59.8855155" lon="17.6253243">
        <ele>3.98267</ele>
        <time>2012-08-05T16:12:02Z</time>
      </trkpt>
      <trkpt lat="59.8856321" lon="17.6252916">
        <ele>3.98267</ele>
        <time>2012-08-05T16:12:04Z</time>
      </trkpt>
      <trkpt lat="59.8858119" lon="17.6254558">
        <ele>3.98267</ele>
        <time>2012-08-05T16:12:08Z</time>
      </trkpt>
      <trkpt lat="59.88597" lon="17.6255518">
        <ele>3.98267</ele>
        <time>2012-08-05T16:12:11Z</time>
      </trkpt>
      <trkpt lat="59.8866055" lon="17.6255361">
        <ele>3.02124</ele>
        <time>2012-08-05T16:12:21Z</time>
      </trkpt>
      <trkpt lat="59.8868463" lon="17.6255171">
        <ele>7.34717</ele>
        <time>2012-08-05T16:12:25Z</time>
      </trkpt>
      <trkpt lat="59.8871731" lon="17.6254007">
        <ele>10.2312</ele>
        <time>2012-08-05T16:12:32Z</time>
      </trkpt>
      <trkpt lat="59.887505" lon="17.6252595">
        <ele>11.1925</ele>
        <time>2012-08-05T16:12:38Z</time>
      </trkpt>
      <trkpt lat="59.8878223" lon="17.6251781">
        <ele>12.6344</ele>
        <time>2012-08-05T16:12:44Z</time>
      </trkpt>
      <trkpt lat="59.8878731" lon="17.6251555">
        <ele>13.1151</ele>
        <time>2012-08-05T16:12:45Z</time>
      </trkpt>
      <trkpt lat="59.8879602" lon="17.6250765">
        <ele>12.6344</ele>
        <time>2012-08-05T16:12:47Z</time>
      </trkpt>
      <trkpt lat="59.8880486" lon="17.6250093">
        <ele>11.1925</ele>
        <time>2012-08-05T16:12:49Z</time>
      </trkpt>
      <trkpt lat="59.8883753" lon="17.6249979">
        <ele>11.1925</ele>
        <time>2012-08-05T16:12:55Z</time>
      </trkpt>
      <trkpt lat="59.8885002" lon="17.625021">
        <ele>14.0764</ele>
        <time>2012-08-05T16:12:57Z</time>
      </trkpt>
      <trkpt lat="59.888906" lon="17.6247668">
        <ele>13.1151</ele>
        <time>2012-08-05T16:13:04Z</time>
      </trkpt>
      <trkpt lat="59.8892736" lon="17.6244135">
        <ele>12.1538</ele>
        <time>2012-08-05T16:13:11Z</time>
      </trkpt>
      <trkpt lat="59.8895147" lon="17.6240669">
        <ele>9.2699</ele>
        <time>2012-08-05T16:13:16Z</time>
      </trkpt>
      <trkpt lat="59.889687" lon="17.6240267">
        <ele>8.30859</ele>
        <time>2012-08-05T16:13:19Z</time>
      </trkpt>
      <trkpt lat="59.890157" lon="17.6240493">
        <ele>6.38586</ele>
        <time>2012-08-05T16:13:27Z</time>
      </trkpt>
      <trkpt lat="59.8906002" lon="17.6240848">
        <ele>6.86646</ele>
        <time>2012-08-05T16:13:35Z</time>
      </trkpt>
      <trkpt lat="59.8910458" lon="17.6240813">
        <ele>5.42456</ele>
        <time>2012-08-05T16:13:44Z</time>
      </trkpt>
      <trkpt lat="59.8915033" lon="17.6240855">
        <ele>6.86646</ele>
        <time>2012-08-05T16:13:51Z</time>
      </trkpt>
      <trkpt lat="59.8918986" lon="17.6240966">
        <ele>8.78918</ele>
        <time>2012-08-05T16:13:58Z</time>
      </trkpt>
      <trkpt lat="59.8921704" lon="17.623775">
        <ele>9.2699</ele>
        <time>2012-08-05T16:14:03Z</time>
      </trkpt>
      <trkpt lat="59.8922015" lon="17.6235588">
        <ele>9.75061</ele>
        <time>2012-08-05T16:14:05Z</time>
      </trkpt>
      <trkpt lat="59.8923419" lon="17.6232631">
        <ele>14.0764</ele>
        <time>2012-08-05T16:14:09Z</time>
      </trkpt>
      <trkpt lat="59.8925264" lon="17.6231025">
        <ele>13.1151</ele>
        <time>2012-08-05T16:14:13Z</time>
      </trkpt>
      <trkpt lat="59.8929071" lon="17.6232703">
        <ele>20.8057</ele>
        <time>2012-08-05T16:14:19Z</time>
      </trkpt>
      <trkpt lat="59.8929709" lon="17.6233367">
        <ele>22.2476</ele>
        <time>2012-08-05T16:14:20Z</time>
      </trkpt>
      <trkpt lat="59.8930842" lon="17.6234465">
        <ele>22.7283</ele>
        <time>2012-08-05T16:14:22Z</time>
      </trkpt>
      <trkpt lat="59.8934271" lon="17.6239667">
        <ele>18.4023</ele>
        <time>2012-08-05T16:14:29Z</time>
      </trkpt>
      <trkpt lat="59.8934847" lon="17.6240493">
        <ele>18.8831</ele>
        <time>2012-08-05T16:14:30Z</time>
      </trkpt>
      <trkpt lat="59.8936721" lon="17.6246125">
        <ele>19.8444</ele>
        <time>2012-08-05T16:14:35Z</time>
      </trkpt>
      <trkpt lat="59.8937473" lon="17.6252099">
        <ele>22.7283</ele>
        <time>2012-08-05T16:14:41Z</time>
      </trkpt>
      <trkpt lat="59.8937585" lon="17.6252875">
        <ele>22.7283</ele>
        <time>2012-08-05T16:14:42Z</time>
      </trkpt>
      <trkpt lat="59.8938558" lon="17.6256387">
        <ele>23.209</ele>
        <time>2012-08-05T16:14:49Z</time>
      </trkpt>
      <trkpt lat="59.8939213" lon="17.625878">
        <ele>21.767</ele>
        <time>2012-08-05T16:14:54Z</time>
      </trkpt>
      <trkpt lat="59.8940752" lon="17.6262241">
        <ele>19.3638</ele>
        <time>2012-08-05T16:15:00Z</time>
      </trkpt>
      <trkpt lat="59.8942729" lon="17.6265295">
        <ele>19.3638</ele>
        <time>2012-08-05T16:15:06Z</time>
      </trkpt>
      <trkpt lat="59.8943039" lon="17.6265846">
        <ele>18.8831</ele>
        <time>2012-08-05T16:15:07Z</time>
      </trkpt>
      <trkpt lat="59.8945982" lon="17.6269556">
        <ele>19.3638</ele>
        <time>2012-08-05T16:15:15Z</time>
      </trkpt>
      <trkpt lat="59.8949641" lon="17.6271978">
        <ele>18.8831</ele>
        <time>2012-08-05T16:15:23Z</time>
      </trkpt>
      <trkpt lat="59.8951107" lon="17.6272589">
        <ele>18.4023</ele>
        <time>2012-08-05T16:15:26Z</time>
      </trkpt>
      <trkpt lat="59.8953909" lon="17.627488">
        <ele>17.9218</ele>
        <time>2012-08-05T16:15:32Z</time>
      </trkpt>
      <trkpt lat="59.8957772" lon="17.6276478">
        <ele>17.9218</ele>
        <time>2012-08-05T16:15:39Z</time>
      </trkpt>
      <trkpt lat="59.8961553" lon="17.6278502">
        <ele>17.9218</ele>
        <time>2012-08-05T16:15:45Z</time>
      </trkpt>
      <trkpt lat="59.8965191" lon="17.6281779">
        <ele>17.9218</ele>
        <time>2012-08-05T16:15:52Z</time>
      </trkpt>
      <trkpt lat="59.8969414" lon="17.6286349">
        <ele>17.4412</ele>
        <time>2012-08-05T16:16:00Z</time>
      </trkpt>
      <trkpt lat="59.8972821" lon="17.6292202">
        <ele>18.4023</ele>
        <time>2012-08-05T16:16:07Z</time>
      </trkpt>
      <trkpt lat="59.8975842" lon="17.629961">
        <ele>19.8444</ele>
        <time>2012-08-05T16:16:14Z</time>
      </trkpt>
      <trkpt lat="59.8978433" lon="17.6308554">
        <ele>22.2476</ele>
        <time>2012-08-05T16:16:22Z</time>
      </trkpt>
      <trkpt lat="59.8980239" lon="17.6317501">
        <ele>22.7283</ele>
        <time>2012-08-05T16:16:30Z</time>
      </trkpt>
      <trkpt lat="59.8980453" lon="17.6318671">
        <ele>22.2476</ele>
        <time>2012-08-05T16:16:31Z</time>
      </trkpt>
      <trkpt lat="59.898223" lon="17.6322894">
        <ele>23.6896</ele>
        <time>2012-08-05T16:16:36Z</time>
      </trkpt>
      <trkpt lat="59.8983336" lon="17.6324366">
        <ele>24.1703</ele>
        <time>2012-08-05T16:16:39Z</time>
      </trkpt>
      <trkpt lat="59.898511" lon="17.632513">
        <ele>24.1703</ele>
        <time>2012-08-05T16:16:44Z</time>
      </trkpt>
      <trkpt lat="59.898772" lon="17.6323841">
        <ele>24.651</ele>
        <time>2012-08-05T16:16:52Z</time>
      </trkpt>
      <trkpt lat="59.8988906" lon="17.632297">
        <ele>26.0929</ele>
        <time>2012-08-05T16:16:57Z</time>
      </trkpt>
      <trkpt lat="59.898857" lon="17.6322586">
        <ele>25.1317</ele>
        <time>2012-08-05T16:17:01Z</time>
      </trkpt>
      <trkpt lat="59.8986376" lon="17.6324065">
        <ele>24.651</ele>
        <time>2012-08-05T16:17:07Z</time>
      </trkpt>
      <trkpt lat="59.8984772" lon="17.6324947">
        <ele>23.6896</ele>
        <time>2012-08-05T16:17:10Z</time>
      </trkpt>
      <trkpt lat="59.8982779" lon="17.6328047">
        <ele>23.209</ele>
        <time>2012-08-05T16:17:15Z</time>
      </trkpt>
      <trkpt lat="59.8982401" lon="17.6330774">
        <ele>23.209</ele>
        <time>2012-08-05T16:17:18Z</time>
      </trkpt>
      <trkpt lat="59.8981826" lon="17.6337112">
        <ele>19.3638</ele>
        <time>2012-08-05T16:17:24Z</time>
      </trkpt>
      <trkpt lat="59.8981136" lon="17.6342247">
        <ele>19.8444</ele>
        <time>2012-08-05T16:17:29Z</time>
      </trkpt>
      <trkpt lat="59.8980921" lon="17.6344253">
        <ele>19.8444</ele>
        <time>2012-08-05T16:17:31Z</time>
      </trkpt>
      <trkpt lat="59.898036" lon="17.6348059">
        <ele>20.8057</ele>
        <time>2012-08-05T16:17:35Z</time>
      </trkpt>
      <trkpt lat="59.8979477" lon="17.6350783">
        <ele>20.325</ele>
        <time>2012-08-05T16:17:38Z</time>
      </trkpt>
      <trkpt lat="59.8979027" lon="17.6353949">
        <ele>20.8057</ele>
        <time>2012-08-05T16:17:41Z</time>
      </trkpt>
      <trkpt lat="59.8977194" lon="17.6360983">
        <ele>19.8444</ele>
        <time>2012-08-05T16:17:49Z</time>
      </trkpt>
      <trkpt lat="59.8976085" lon="17.6364636">
        <ele>19.3638</ele>
        <time>2012-08-05T16:17:54Z</time>
      </trkpt>
      <trkpt lat="59.8974666" lon="17.6366955">
        <ele>18.4023</ele>
        <time>2012-08-05T16:17:59Z</time>
      </trkpt>
      <trkpt lat="59.8973986" lon="17.6367815">
        <ele>19.3638</ele>
        <time>2012-08-05T16:18:02Z</time>
      </trkpt>
      <trkpt lat="59.8974768" lon="17.6368599">
        <ele>18.8831</ele>
        <time>2012-08-05T16:18:05Z</time>
      </trkpt>
      <trkpt lat="59.8975203" lon="17.6368948">
        <ele>18.8831</ele>
        <time>2012-08-05T16:18:06Z</time>
      </trkpt>
      <trkpt lat="59.8977893" lon="17.6370717">
        <ele>17.9218</ele>
        <time>2012-08-05T16:18:11Z</time>
      </trkpt>
      <trkpt lat="59.8985233" lon="17.6376493">
        <ele>17.4412</ele>
        <time>2012-08-05T16:18:21Z</time>
      </trkpt>
      <trkpt lat="59.8986627" lon="17.6377628">
        <ele>17.4412</ele>
        <time>2012-08-05T16:18:23Z</time>
      </trkpt>
      <trkpt lat="59.8989066" lon="17.6379961">
        <ele>15.999</ele>
        <time>2012-08-05T16:18:27Z</time>
      </trkpt>
      <trkpt lat="59.8993522" lon="17.6384282">
        <ele>15.5184</ele>
        <time>2012-08-05T16:18:33Z</time>
      </trkpt>
      <trkpt lat="59.8999914" lon="17.6390599">
        <ele>16.4797</ele>
        <time>2012-08-05T16:18:41Z</time>
      </trkpt>
      <trkpt lat="59.9005514" lon="17.6396457">
        <ele>16.4797</ele>
        <time>2012-08-05T16:18:49Z</time>
      </trkpt>
      <trkpt lat="59.9010574" lon="17.6401523">
        <ele>17.4412</ele>
        <time>2012-08-05T16:18:57Z</time>
      </trkpt>
      <trkpt lat="59.9015771" lon="17.6406563">
        <ele>16.4797</ele>
        <time>2012-08-05T16:19:05Z</time>
      </trkpt>
      <trkpt lat="59.9021691" lon="17.6411375">
        <ele>17.9218</ele>
        <time>2012-08-05T16:19:14Z</time>
      </trkpt>
      <trkpt lat="59.9027732" lon="17.6415426">
        <ele>17.9218</ele>
        <time>2012-08-05T16:19:23Z</time>
      </trkpt>
      <trkpt lat="59.9034287" lon="17.6418752">
        <ele>18.4023</ele>
        <time>2012-08-05T16:19:33Z</time>
      </trkpt>
      <trkpt lat="59.9035278" lon="17.6419445">
        <ele>18.4023</ele>
        <time>2012-08-05T16:19:35Z</time>
      </trkpt>
      <trkpt lat="59.9037092" lon="17.6419731">
        <ele>17.4412</ele>
        <time>2012-08-05T16:19:39Z</time>
      </trkpt>
      <trkpt lat="59.9037629" lon="17.6419969">
        <ele>17.4412</ele>
        <time>2012-08-05T16:19:40Z</time>
      </trkpt>
      <trkpt lat="59.9042474" lon="17.6422553">
        <ele>16.9604</ele>
        <time>2012-08-05T16:19:48Z</time>
      </trkpt>
      <trkpt lat="59.9047586" lon="17.6425531">
        <ele>17.4412</ele>
        <time>2012-08-05T16:19:56Z</time>
      </trkpt>
      <trkpt lat="59.9050962" lon="17.6427579">
        <ele>17.9218</ele>
        <time>2012-08-05T16:20:02Z</time>
      </trkpt>
      <trkpt lat="59.905505" lon="17.6429028">
        <ele>18.4023</ele>
        <time>2012-08-05T16:20:10Z</time>
      </trkpt>
      <trkpt lat="59.9055562" lon="17.6429061">
        <ele>17.9218</ele>
        <time>2012-08-05T16:20:11Z</time>
      </trkpt>
      <trkpt lat="59.9060892" lon="17.6431375">
        <ele>16.9604</ele>
        <time>2012-08-05T16:20:20Z</time>
      </trkpt>
      <trkpt lat="59.9065901" lon="17.6433567">
        <ele>17.4412</ele>
        <time>2012-08-05T16:20:27Z</time>
      </trkpt>
      <trkpt lat="59.9070622" lon="17.6434815">
        <ele>18.4023</ele>
        <time>2012-08-05T16:20:33Z</time>
      </trkpt>
      <trkpt lat="59.9075549" lon="17.6435666">
        <ele>19.3638</ele>
        <time>2012-08-05T16:20:40Z</time>
      </trkpt>
      <trkpt lat="59.9080582" lon="17.6436644">
        <ele>21.2864</ele>
        <time>2012-08-05T16:20:48Z</time>
      </trkpt>
      <trkpt lat="59.9085723" lon="17.6437132">
        <ele>20.8057</ele>
        <time>2012-08-05T16:20:57Z</time>
      </trkpt>
      <trkpt lat="59.9090444" lon="17.6436726">
        <ele>23.209</ele>
        <time>2012-08-05T16:21:04Z</time>
      </trkpt>
      <trkpt lat="59.909666" lon="17.6435567">
        <ele>25.1317</ele>
        <time>2012-08-05T16:21:13Z</time>
      </trkpt>
      <trkpt lat="59.9097999" lon="17.6435318">
        <ele>25.6123</ele>
        <time>2012-08-05T16:21:15Z</time>
      </trkpt>
      <trkpt lat="59.9101179" lon="17.643613">
        <ele>27.0543</ele>
        <time>2012-08-05T16:21:20Z</time>
      </trkpt>
      <trkpt lat="59.9105986" lon="17.6435034">
        <ele>28.4962</ele>
        <time>2012-08-05T16:21:28Z</time>
      </trkpt>
      <trkpt lat="59.9109944" lon="17.6433949">
        <ele>28.4962</ele>
        <time>2012-08-05T16:21:34Z</time>
      </trkpt>
      <trkpt lat="59.9115894" lon="17.6432633">
        <ele>27.5349</ele>
        <time>2012-08-05T16:21:43Z</time>
      </trkpt>
      <trkpt lat="59.9121973" lon="17.6431123">
        <ele>24.651</ele>
        <time>2012-08-05T16:21:52Z</time>
      </trkpt>
      <trkpt lat="59.91249" lon="17.6430533">
        <ele>22.2476</ele>
        <time>2012-08-05T16:21:56Z</time>
      </trkpt>
      <trkpt lat="59.912772" lon="17.6431073">
        <ele>21.2864</ele>
        <time>2012-08-05T16:22:00Z</time>
      </trkpt>
      <trkpt lat="59.9132097" lon="17.6430402">
        <ele>21.2864</ele>
        <time>2012-08-05T16:22:07Z</time>
      </trkpt>
      <trkpt lat="59.9137799" lon="17.6429205">
        <ele>24.1703</ele>
        <time>2012-08-05T16:22:15Z</time>
      </trkpt>
      <trkpt lat="59.9143853" lon="17.6427834">
        <ele>21.2864</ele>
        <time>2012-08-05T16:22:23Z</time>
      </trkpt>
      <trkpt lat="59.9150394" lon="17.6426641">
        <ele>16.9604</ele>
        <time>2012-08-05T16:22:31Z</time>
      </trkpt>
      <trkpt lat="59.9151306" lon="17.642633">
        <ele>17.9218</ele>
        <time>2012-08-05T16:22:32Z</time>
      </trkpt>
      <trkpt lat="59.9154613" lon="17.6424662">
        <ele>15.0377</ele>
        <time>2012-08-05T16:22:36Z</time>
      </trkpt>
      <trkpt lat="59.9159812" lon="17.6424184">
        <ele>13.1151</ele>
        <time>2012-08-05T16:22:42Z</time>
      </trkpt>
      <trkpt lat="59.9166138" lon="17.6423671">
        <ele>11.1925</ele>
        <time>2012-08-05T16:22:50Z</time>
      </trkpt>
      <trkpt lat="59.9171135" lon="17.6422677">
        <ele>9.75061</ele>
        <time>2012-08-05T16:22:56Z</time>
      </trkpt>
      <trkpt lat="59.9176177" lon="17.6422481">
        <ele>8.78918</ele>
        <time>2012-08-05T16:23:02Z</time>
      </trkpt>
      <trkpt lat="59.9181524" lon="17.642215">
        <ele>9.75061</ele>
        <time>2012-08-05T16:23:09Z</time>
      </trkpt>
      <trkpt lat="59.9186846" lon="17.642153">
        <ele>11.6732</ele>
        <time>2012-08-05T16:23:17Z</time>
      </trkpt>
      <trkpt lat="59.9193073" lon="17.6420741">
        <ele>12.1538</ele>
        <time>2012-08-05T16:23:26Z</time>
      </trkpt>
      <trkpt lat="59.9198931" lon="17.641972">
        <ele>12.1538</ele>
        <time>2012-08-05T16:23:34Z</time>
      </trkpt>
      <trkpt lat="59.9203523" lon="17.6419424">
        <ele>14.557</ele>
        <time>2012-08-05T16:23:40Z</time>
      </trkpt>
      <trkpt lat="59.9209652" lon="17.6419097">
        <ele>17.4412</ele>
        <time>2012-08-05T16:23:48Z</time>
      </trkpt>
      <trkpt lat="59.9213598" lon="17.6418699">
        <ele>16.4797</ele>
        <time>2012-08-05T16:23:54Z</time>
      </trkpt>
      <trkpt lat="59.9217514" lon="17.6418011">
        <ele>17.9218</ele>
        <time>2012-08-05T16:24:00Z</time>
      </trkpt>
      <trkpt lat="59.9225215" lon="17.6417141">
        <ele>18.4023</ele>
        <time>2012-08-05T16:24:11Z</time>
      </trkpt>
      <trkpt lat="59.9230743" lon="17.6416566">
        <ele>17.9218</ele>
        <time>2012-08-05T16:24:19Z</time>
      </trkpt>
      <trkpt lat="59.9236572" lon="17.6415828">
        <ele>15.0377</ele>
        <time>2012-08-05T16:24:27Z</time>
      </trkpt>
      <trkpt lat="59.9242657" lon="17.6415167">
        <ele>13.5958</ele>
        <time>2012-08-05T16:24:35Z</time>
      </trkpt>
      <trkpt lat="59.924857" lon="17.6414183">
        <ele>12.1538</ele>
        <time>2012-08-05T16:24:43Z</time>
      </trkpt>
      <trkpt lat="59.9254117" lon="17.6413856">
        <ele>11.6732</ele>
        <time>2012-08-05T16:24:50Z</time>
      </trkpt>
      <trkpt lat="59.9261836" lon="17.6412867">
        <ele>10.2312</ele>
        <time>2012-08-05T16:24:59Z</time>
      </trkpt>
      <trkpt lat="59.9268766" lon="17.6411992">
        <ele>10.2312</ele>
        <time>2012-08-05T16:25:07Z</time>
      </trkpt>
      <trkpt lat="59.927709" lon="17.6411344">
        <ele>9.75061</ele>
        <time>2012-08-05T16:25:17Z</time>
      </trkpt>
      <trkpt lat="59.9284955" lon="17.6410428">
        <ele>11.1925</ele>
        <time>2012-08-05T16:25:26Z</time>
      </trkpt>
      <trkpt lat="59.9289627" lon="17.6409447">
        <ele>11.1925</ele>
        <time>2012-08-05T16:25:32Z</time>
      </trkpt>
      <trkpt lat="59.9294635" lon="17.640911">
        <ele>11.1925</ele>
        <time>2012-08-05T16:25:39Z</time>
      </trkpt>
      <trkpt lat="59.9299406" lon="17.6408589">
        <ele>9.75061</ele>
        <time>2012-08-05T16:25:46Z</time>
      </trkpt>
      <trkpt lat="59.9304415" lon="17.6408671">
        <ele>10.2312</ele>
        <time>2012-08-05T16:25:53Z</time>
      </trkpt>
      <trkpt lat="59.93084" lon="17.6408473">
        <ele>10.2312</ele>
        <time>2012-08-05T16:25:59Z</time>
      </trkpt>
      <trkpt lat="59.9312288" lon="17.6410886">
        <ele>11.6732</ele>
        <time>2012-08-05T16:26:05Z</time>
      </trkpt>
      <trkpt lat="59.9315609" lon="17.6413267">
        <ele>15.0377</ele>
        <time>2012-08-05T16:26:11Z</time>
      </trkpt>
      <trkpt lat="59.9319247" lon="17.6415743">
        <ele>15.999</ele>
        <time>2012-08-05T16:26:17Z</time>
      </trkpt>
      <trkpt lat="59.9323554" lon="17.6419528">
        <ele>17.9218</ele>
        <time>2012-08-05T16:26:24Z</time>
      </trkpt>
      <trkpt lat="59.9326826" lon="17.6423165">
        <ele>17.9218</ele>
        <time>2012-08-05T16:26:30Z</time>
      </trkpt>
      <trkpt lat="59.9330466" lon="17.6428942">
        <ele>19.3638</ele>
        <time>2012-08-05T16:26:38Z</time>
      </trkpt>
      <trkpt lat="59.933276" lon="17.6432226">
        <ele>23.209</ele>
        <time>2012-08-05T16:26:44Z</time>
      </trkpt>
      <trkpt lat="59.9333704" lon="17.6433606">
        <ele>24.651</ele>
        <time>2012-08-05T16:26:47Z</time>
      </trkpt>
      <trkpt lat="59.9336672" lon="17.6437197">
        <ele>24.651</ele>
        <time>2012-08-05T16:26:56Z</time>
      </trkpt>
      <trkpt lat="59.9339024" lon="17.6439391">
        <ele>25.6123</ele>
        <time>2012-08-05T16:27:02Z</time>
      </trkpt>
      <trkpt lat="59.9342098" lon="17.6443816">
        <ele>24.1703</ele>
        <time>2012-08-05T16:27:10Z</time>
      </trkpt>
      <trkpt lat="59.9343362" lon="17.6445241">
        <ele>24.651</ele>
        <time>2012-08-05T16:27:13Z</time>
      </trkpt>
      <trkpt lat="59.9345488" lon="17.6448447">
        <ele>25.1317</ele>
        <time>2012-08-05T16:27:20Z</time>
      </trkpt>
      <trkpt lat="59.9348092" lon="17.6452055">
        <ele>25.1317</ele>
        <time>2012-08-05T16:27:27Z</time>
      </trkpt>
      <trkpt lat="59.9350989" lon="17.6454884">
        <ele>27.5349</ele>
        <time>2012-08-05T16:27:33Z</time>
      </trkpt>
      <trkpt lat="59.9353941" lon="17.6458541">
        <ele>26.5736</ele>
        <time>2012-08-05T16:27:39Z</time>
      </trkpt>
      <trkpt lat="59.9358276" lon="17.6463586">
        <ele>29.4575</ele>
        <time>2012-08-05T16:27:47Z</time>
      </trkpt>
      <trkpt lat="59.9362063" lon="17.646842">
        <ele>30.4188</ele>
        <time>2012-08-05T16:27:54Z</time>
      </trkpt>
      <trkpt lat="59.9366628" lon="17.6474764">
        <ele>31.3801</ele>
        <time>2012-08-05T16:28:02Z</time>
      </trkpt>
      <trkpt lat="59.9367126" lon="17.6475541">
        <ele>30.8995</ele>
        <time>2012-08-05T16:28:03Z</time>
      </trkpt>
      <trkpt lat="59.937113" lon="17.6480078">
        <ele>31.3801</ele>
        <time>2012-08-05T16:28:10Z</time>
      </trkpt>
      <trkpt lat="59.9372916" lon="17.6482245">
        <ele>31.3801</ele>
        <time>2012-08-05T16:28:13Z</time>
      </trkpt>
      <trkpt lat="59.9374752" lon="17.6485912">
        <ele>31.8607</ele>
        <time>2012-08-05T16:28:17Z</time>
      </trkpt>
      <trkpt lat="59.9375995" lon="17.6489953">
        <ele>30.8995</ele>
        <time>2012-08-05T16:28:21Z</time>
      </trkpt>
      <trkpt lat="59.9377293" lon="17.6492563">
        <ele>30.4188</ele>
        <time>2012-08-05T16:28:24Z</time>
      </trkpt>
      <trkpt lat="59.937978" lon="17.6499202">
        <ele>30.4188</ele>
        <time>2012-08-05T16:28:30Z</time>
      </trkpt>
      <trkpt lat="59.938023" lon="17.6500282">
        <ele>29.9381</ele>
        <time>2012-08-05T16:28:31Z</time>
      </trkpt>
      <trkpt lat="59.9383679" lon="17.6509752">
        <ele>26.5736</ele>
        <time>2012-08-05T16:28:39Z</time>
      </trkpt>
      <trkpt lat="59.938418" lon="17.6510895">
        <ele>26.5736</ele>
        <time>2012-08-05T16:28:40Z</time>
      </trkpt>
      <trkpt lat="59.9387671" lon="17.6522578">
        <ele>24.1703</ele>
        <time>2012-08-05T16:28:49Z</time>
      </trkpt>
      <trkpt lat="59.9390483" lon="17.6533967">
        <ele>20.8057</ele>
        <time>2012-08-05T16:28:57Z</time>
      </trkpt>
      <trkpt lat="59.9392923" lon="17.654527">
        <ele>20.325</ele>
        <time>2012-08-05T16:29:05Z</time>
      </trkpt>
      <trkpt lat="59.9395315" lon="17.6557209">
        <ele>20.8057</ele>
        <time>2012-08-05T16:29:14Z</time>
      </trkpt>
      <trkpt lat="59.9397397" lon="17.6567229">
        <ele>21.767</ele>
        <time>2012-08-05T16:29:21Z</time>
      </trkpt>
      <trkpt lat="59.9400403" lon="17.6581551">
        <ele>22.2476</ele>
        <time>2012-08-05T16:29:30Z</time>
      </trkpt>
      <trkpt lat="59.9403055" lon="17.6593985">
        <ele>23.209</ele>
        <time>2012-08-05T16:29:38Z</time>
      </trkpt>
      <trkpt lat="59.9404374" lon="17.6600864">
        <ele>23.209</ele>
        <time>2012-08-05T16:29:43Z</time>
      </trkpt>
      <trkpt lat="59.9404806" lon="17.6603047">
        <ele>23.209</ele>
        <time>2012-08-05T16:29:45Z</time>
      </trkpt>
      <trkpt lat="59.9404454" lon="17.6608788">
        <ele>24.1703</ele>
        <time>2012-08-05T16:29:49Z</time>
      </trkpt>
      <trkpt lat="59.9403884" lon="17.6614167">
        <ele>25.1317</ele>
        <time>2012-08-05T16:29:53Z</time>
      </trkpt>
      <trkpt lat="59.9404884" lon="17.6619253">
        <ele>26.0929</ele>
        <time>2012-08-05T16:29:57Z</time>
      </trkpt>
      <trkpt lat="59.9406566" lon="17.6621408">
        <ele>26.5736</ele>
        <time>2012-08-05T16:30:00Z</time>
      </trkpt>
      <trkpt lat="59.9407219" lon="17.6621649">
        <ele>27.0543</ele>
        <time>2012-08-05T16:30:01Z</time>
      </trkpt>
      <trkpt lat="59.941254" lon="17.6623879">
        <ele>28.4962</ele>
        <time>2012-08-05T16:30:09Z</time>
      </trkpt>
      <trkpt lat="59.941574" lon="17.662777">
        <ele>27.5349</ele>
        <time>2012-08-05T16:30:14Z</time>
      </trkpt>
      <trkpt lat="59.9419728" lon="17.6634508">
        <ele>28.0155</ele>
        <time>2012-08-05T16:30:21Z</time>
      </trkpt>
      <trkpt lat="59.9424043" lon="17.6640958">
        <ele>26.0929</ele>
        <time>2012-08-05T16:30:28Z</time>
      </trkpt>
      <trkpt lat="59.9428938" lon="17.6646569">
        <ele>21.767</ele>
        <time>2012-08-05T16:30:35Z</time>
      </trkpt>
      <trkpt lat="59.9433991" lon="17.6651049">
        <ele>20.8057</ele>
        <time>2012-08-05T16:30:41Z</time>
      </trkpt>
      <trkpt lat="59.9440569" lon="17.6655097">
        <ele>19.8444</ele>
        <time>2012-08-05T16:30:48Z</time>
      </trkpt>
      <trkpt lat="59.944706" lon="17.6657721">
        <ele>18.4023</ele>
        <time>2012-08-05T16:30:55Z</time>
      </trkpt>
      <trkpt lat="59.9453679" lon="17.6660225">
        <ele>16.9604</ele>
        <time>2012-08-05T16:31:03Z</time>
      </trkpt>
      <trkpt lat="59.9460596" lon="17.6662826">
        <ele>15.0377</ele>
        <time>2012-08-05T16:31:12Z</time>
      </trkpt>
      <trkpt lat="59.9461405" lon="17.6663159">
        <ele>15.0377</ele>
        <time>2012-08-05T16:31:13Z</time>
      </trkpt>
      <trkpt lat="59.9463818" lon="17.6664665">
        <ele>15.0377</ele>
        <time>2012-08-05T16:31:16Z</time>
      </trkpt>
      <trkpt lat="59.9467253" lon="17.6665278">
        <ele>14.557</ele>
        <time>2012-08-05T16:31:20Z</time>
      </trkpt>
      <trkpt lat="59.9472446" lon="17.6667532">
        <ele>13.5958</ele>
        <time>2012-08-05T16:31:26Z</time>
      </trkpt>
      <trkpt lat="59.9480559" lon="17.6671603">
        <ele>13.5958</ele>
        <time>2012-08-05T16:31:35Z</time>
      </trkpt>
      <trkpt lat="59.9489514" lon="17.6676689">
        <ele>14.0764</ele>
        <time>2012-08-05T16:31:45Z</time>
      </trkpt>
      <trkpt lat="59.9498891" lon="17.6681496">
        <ele>17.4412</ele>
        <time>2012-08-05T16:31:55Z</time>
      </trkpt>
      <trkpt lat="59.9504296" lon="17.6682782">
        <ele>17.9218</ele>
        <time>2012-08-05T16:32:01Z</time>
      </trkpt>
      <trkpt lat="59.9509351" lon="17.6682227">
        <ele>17.9218</ele>
        <time>2012-08-05T16:32:07Z</time>
      </trkpt>
      <trkpt lat="59.9514126" lon="17.6680632">
        <ele>16.9604</ele>
        <time>2012-08-05T16:32:13Z</time>
      </trkpt>
      <trkpt lat="59.9517033" lon="17.6682191">
        <ele>14.557</ele>
        <time>2012-08-05T16:32:17Z</time>
      </trkpt>
      <trkpt lat="59.9518238" lon="17.6686882">
        <ele>16.4797</ele>
        <time>2012-08-05T16:32:20Z</time>
      </trkpt>
      <trkpt lat="59.9518379" lon="17.6692174">
        <ele>15.5184</ele>
        <time>2012-08-05T16:32:23Z</time>
      </trkpt>
      <trkpt lat="59.9517595" lon="17.6706849">
        <ele>16.4797</ele>
        <time>2012-08-05T16:32:31Z</time>
      </trkpt>
      <trkpt lat="59.951756" lon="17.6708642">
        <ele>16.4797</ele>
        <time>2012-08-05T16:32:32Z</time>
      </trkpt>
      <trkpt lat="59.9517872" lon="17.6714202">
        <ele>15.999</ele>
        <time>2012-08-05T16:32:35Z</time>
      </trkpt>
      <trkpt lat="59.9518069" lon="17.6720389">
        <ele>17.9218</ele>
        <time>2012-08-05T16:32:39Z</time>
      </trkpt>
      <trkpt lat="59.9519341" lon="17.6731282">
        <ele>21.2864</ele>
        <time>2012-08-05T16:32:46Z</time>
      </trkpt>
      <trkpt lat="59.9520932" lon="17.6740375">
        <ele>22.7283</ele>
        <time>2012-08-05T16:32:53Z</time>
      </trkpt>
      <trkpt lat="59.9522307" lon="17.6746866">
        <ele>24.651</ele>
        <time>2012-08-05T16:32:59Z</time>
      </trkpt>
      <trkpt lat="59.9523027" lon="17.6750952">
        <ele>26.5736</ele>
        <time>2012-08-05T16:33:04Z</time>
      </trkpt>
      <trkpt lat="59.9524588" lon="17.6755702">
        <ele>27.0543</ele>
        <time>2012-08-05T16:33:10Z</time>
      </trkpt>
      <trkpt lat="59.952659" lon="17.6760871">
        <ele>24.651</ele>
        <time>2012-08-05T16:33:15Z</time>
      </trkpt>
      <trkpt lat="59.9529651" lon="17.6769248">
        <ele>22.7283</ele>
        <time>2012-08-05T16:33:22Z</time>
      </trkpt>
      <trkpt lat="59.9533599" lon="17.67802">
        <ele>21.2864</ele>
        <time>2012-08-05T16:33:31Z</time>
      </trkpt>
      <trkpt lat="59.9536913" lon="17.6790484">
        <ele>19.3638</ele>
        <time>2012-08-05T16:33:39Z</time>
      </trkpt>
      <trkpt lat="59.95407" lon="17.6802">
        <ele>17.4412</ele>
        <time>2012-08-05T16:33:48Z</time>
      </trkpt>
      <trkpt lat="59.9544513" lon="17.6813615">
        <ele>18.4023</ele>
        <time>2012-08-05T16:33:57Z</time>
      </trkpt>
      <trkpt lat="59.9546269" lon="17.6818423">
        <ele>18.8831</ele>
        <time>2012-08-05T16:34:01Z</time>
      </trkpt>
      <trkpt lat="59.9548491" lon="17.6822353">
        <ele>20.8057</ele>
        <time>2012-08-05T16:34:05Z</time>
      </trkpt>
      <trkpt lat="59.9551598" lon="17.6833776">
        <ele>20.8057</ele>
        <time>2012-08-05T16:34:14Z</time>
      </trkpt>
      <trkpt lat="59.9553868" lon="17.6844483">
        <ele>22.2476</ele>
        <time>2012-08-05T16:34:22Z</time>
      </trkpt>
      <trkpt lat="59.9556277" lon="17.6858512">
        <ele>26.0929</ele>
        <time>2012-08-05T16:34:32Z</time>
      </trkpt>
      <trkpt lat="59.9557981" lon="17.6870032">
        <ele>27.0543</ele>
        <time>2012-08-05T16:34:40Z</time>
      </trkpt>
      <trkpt lat="59.9559341" lon="17.6878935">
        <ele>26.0929</ele>
        <time>2012-08-05T16:34:46Z</time>
      </trkpt>
      <trkpt lat="59.9561337" lon="17.6889239">
        <ele>24.651</ele>
        <time>2012-08-05T16:34:53Z</time>
      </trkpt>
      <trkpt lat="59.956357" lon="17.6898336">
        <ele>24.1703</ele>
        <time>2012-08-05T16:35:00Z</time>
      </trkpt>
      <trkpt lat="59.9565834" lon="17.6905532">
        <ele>23.209</ele>
        <time>2012-08-05T16:35:06Z</time>
      </trkpt>
      <trkpt lat="59.9568466" lon="17.6913202">
        <ele>22.7283</ele>
        <time>2012-08-05T16:35:12Z</time>
      </trkpt>
      <trkpt lat="59.9571859" lon="17.6924023">
        <ele>20.8057</ele>
        <time>2012-08-05T16:35:20Z</time>
      </trkpt>
      <trkpt lat="59.9575336" lon="17.6933916">
        <ele>21.767</ele>
        <time>2012-08-05T16:35:28Z</time>
      </trkpt>
      <trkpt lat="59.9579276" lon="17.6945178">
        <ele>21.767</ele>
        <time>2012-08-05T16:35:37Z</time>
      </trkpt>
      <trkpt lat="59.9583193" lon="17.6956119">
        <ele>20.325</ele>
        <time>2012-08-05T16:35:46Z</time>
      </trkpt>
      <trkpt lat="59.958671" lon="17.6965105">
        <ele>20.8057</ele>
        <time>2012-08-05T16:35:53Z</time>
      </trkpt>
      <trkpt lat="59.9588642" lon="17.697284">
        <ele>21.767</ele>
        <time>2012-08-05T16:35:58Z</time>
      </trkpt>
      <trkpt lat="59.9589743" lon="17.6980275">
        <ele>22.2476</ele>
        <time>2012-08-05T16:36:03Z</time>
      </trkpt>
      <trkpt lat="59.9590144" lon="17.698733">
        <ele>23.209</ele>
        <time>2012-08-05T16:36:09Z</time>
      </trkpt>
      <trkpt lat="59.9590569" lon="17.6995407">
        <ele>25.6123</ele>
        <time>2012-08-05T16:36:16Z</time>
      </trkpt>
      <trkpt lat="59.9591403" lon="17.7004611">
        <ele>28.0155</ele>
        <time>2012-08-05T16:36:23Z</time>
      </trkpt>
      <trkpt lat="59.95922" lon="17.7013215">
        <ele>28.0155</ele>
        <time>2012-08-05T16:36:30Z</time>
      </trkpt>
      <trkpt lat="59.9593195" lon="17.7019135">
        <ele>25.6123</ele>
        <time>2012-08-05T16:36:35Z</time>
      </trkpt>
      <trkpt lat="59.9595056" lon="17.7025963">
        <ele>24.651</ele>
        <time>2012-08-05T16:36:41Z</time>
      </trkpt>
      <trkpt lat="59.9597778" lon="17.7035169">
        <ele>25.6123</ele>
        <time>2012-08-05T16:36:49Z</time>
      </trkpt>
      <trkpt lat="59.959998" lon="17.7041857">
        <ele>23.6896</ele>
        <time>2012-08-05T16:36:55Z</time>
      </trkpt>
      <trkpt lat="59.9601375" lon="17.7044446">
        <ele>22.2476</ele>
        <time>2012-08-05T16:36:58Z</time>
      </trkpt>
      <trkpt lat="59.9606212" lon="17.7050383">
        <ele>23.6896</ele>
        <time>2012-08-05T16:37:06Z</time>
      </trkpt>
      <trkpt lat="59.9609275" lon="17.7054117">
        <ele>25.1317</ele>
        <time>2012-08-05T16:37:11Z</time>
      </trkpt>
      <trkpt lat="59.9613827" lon="17.7061797">
        <ele>28.0155</ele>
        <time>2012-08-05T16:37:19Z</time>
      </trkpt>
      <trkpt lat="59.96168" lon="17.7066057">
        <ele>28.9769</ele>
        <time>2012-08-05T16:37:24Z</time>
      </trkpt>
      <trkpt lat="59.9620972" lon="17.7069269">
        <ele>30.4188</ele>
        <time>2012-08-05T16:37:30Z</time>
      </trkpt>
      <trkpt lat="59.9626162" lon="17.7071525">
        <ele>30.8995</ele>
        <time>2012-08-05T16:37:37Z</time>
      </trkpt>
      <trkpt lat="59.9630951" lon="17.7072024">
        <ele>29.4575</ele>
        <time>2012-08-05T16:37:43Z</time>
      </trkpt>
      <trkpt lat="59.9637557" lon="17.7072451">
        <ele>28.0155</ele>
        <time>2012-08-05T16:37:51Z</time>
      </trkpt>
      <trkpt lat="59.9644417" lon="17.7073884">
        <ele>27.0543</ele>
        <time>2012-08-05T16:37:59Z</time>
      </trkpt>
      <trkpt lat="59.9649581" lon="17.7077044">
        <ele>24.651</ele>
        <time>2012-08-05T16:38:05Z</time>
      </trkpt>
      <trkpt lat="59.9655657" lon="17.7082349">
        <ele>22.7283</ele>
        <time>2012-08-05T16:38:12Z</time>
      </trkpt>
      <trkpt lat="59.9659128" lon="17.7089336">
        <ele>24.1703</ele>
        <time>2012-08-05T16:38:17Z</time>
      </trkpt>
      <trkpt lat="59.9662127" lon="17.7099951">
        <ele>25.1317</ele>
        <time>2012-08-05T16:38:24Z</time>
      </trkpt>
      <trkpt lat="59.9664235" lon="17.7107468">
        <ele>25.6123</ele>
        <time>2012-08-05T16:38:30Z</time>
      </trkpt>
      <trkpt lat="59.9666747" lon="17.7116238">
        <ele>27.5349</ele>
        <time>2012-08-05T16:38:38Z</time>
      </trkpt>
      <trkpt lat="59.966984" lon="17.7124835">
        <ele>28.9769</ele>
        <time>2012-08-05T16:38:46Z</time>
      </trkpt>
      <trkpt lat="59.9672314" lon="17.7133533">
        <ele>28.9769</ele>
        <time>2012-08-05T16:38:53Z</time>
      </trkpt>
      <trkpt lat="59.9673606" lon="17.714134">
        <ele>27.0543</ele>
        <time>2012-08-05T16:38:58Z</time>
      </trkpt>
      <trkpt lat="59.9675093" lon="17.7152384">
        <ele>24.1703</ele>
        <time>2012-08-05T16:39:04Z</time>
      </trkpt>
      <trkpt lat="59.967635" lon="17.7158988">
        <ele>23.209</ele>
        <time>2012-08-05T16:39:08Z</time>
      </trkpt>
      <trkpt lat="59.9677098" lon="17.7161884">
        <ele>21.2864</ele>
        <time>2012-08-05T16:39:10Z</time>
      </trkpt>
      <trkpt lat="59.9679176" lon="17.7166276">
        <ele>20.8057</ele>
        <time>2012-08-05T16:39:14Z</time>
      </trkpt>
      <trkpt lat="59.9682888" lon="17.7170971">
        <ele>20.8057</ele>
        <time>2012-08-05T16:39:20Z</time>
      </trkpt>
      <trkpt lat="59.9687089" lon="17.7173322">
        <ele>19.8444</ele>
        <time>2012-08-05T16:39:26Z</time>
      </trkpt>
      <trkpt lat="59.9692351" lon="17.7175342">
        <ele>21.767</ele>
        <time>2012-08-05T16:39:33Z</time>
      </trkpt>
      <trkpt lat="59.9697057" lon="17.7177978">
        <ele>22.7283</ele>
        <time>2012-08-05T16:39:39Z</time>
      </trkpt>
      <trkpt lat="59.970303" lon="17.7182877">
        <ele>23.6896</ele>
        <time>2012-08-05T16:39:47Z</time>
      </trkpt>
      <trkpt lat="59.9709789" lon="17.7188981">
        <ele>23.6896</ele>
        <time>2012-08-05T16:39:57Z</time>
      </trkpt>
      <trkpt lat="59.9716927" lon="17.7195248">
        <ele>23.6896</ele>
        <time>2012-08-05T16:40:07Z</time>
      </trkpt>
      <trkpt lat="59.9723827" lon="17.720142">
        <ele>23.6896</ele>
        <time>2012-08-05T16:40:16Z</time>
      </trkpt>
      <trkpt lat="59.972957" lon="17.7207231">
        <ele>23.6896</ele>
        <time>2012-08-05T16:40:23Z</time>
      </trkpt>
      <trkpt lat="59.9734002" lon="17.7214289">
        <ele>23.209</ele>
        <time>2012-08-05T16:40:29Z</time>
      </trkpt>
      <trkpt lat="59.9737289" lon="17.7222589">
        <ele>20.8057</ele>
        <time>2012-08-05T16:40:35Z</time>
      </trkpt>
      <trkpt lat="59.9739699" lon="17.7232081">
        <ele>20.325</ele>
        <time>2012-08-05T16:40:41Z</time>
      </trkpt>
      <trkpt lat="59.974121" lon="17.7241927">
        <ele>19.3638</ele>
        <time>2012-08-05T16:40:47Z</time>
      </trkpt>
      <trkpt lat="59.9742977" lon="17.7255551">
        <ele>18.8831</ele>
        <time>2012-08-05T16:40:56Z</time>
      </trkpt>
      <trkpt lat="59.9743678" lon="17.7267583">
        <ele>17.9218</ele>
        <time>2012-08-05T16:41:04Z</time>
      </trkpt>
      <trkpt lat="59.9744124" lon="17.7280684">
        <ele>17.9218</ele>
        <time>2012-08-05T16:41:12Z</time>
      </trkpt>
      <trkpt lat="59.9744528" lon="17.72942">
        <ele>20.325</ele>
        <time>2012-08-05T16:41:20Z</time>
      </trkpt>
      <trkpt lat="59.9743934" lon="17.7303806">
        <ele>20.8057</ele>
        <time>2012-08-05T16:41:26Z</time>
      </trkpt>
      <trkpt lat="59.9743163" lon="17.7314529">
        <ele>19.8444</ele>
        <time>2012-08-05T16:41:33Z</time>
      </trkpt>
      <trkpt lat="59.9743268" lon="17.7328024">
        <ele>19.8444</ele>
        <time>2012-08-05T16:41:42Z</time>
      </trkpt>
      <trkpt lat="59.9743076" lon="17.7336115">
        <ele>19.8444</ele>
        <time>2012-08-05T16:41:48Z</time>
      </trkpt>
      <trkpt lat="59.9742676" lon="17.7343554">
        <ele>20.8057</ele>
        <time>2012-08-05T16:41:54Z</time>
      </trkpt>
      <trkpt lat="59.9743034" lon="17.7351916">
        <ele>21.767</ele>
        <time>2012-08-05T16:42:00Z</time>
      </trkpt>
      <trkpt lat="59.974416" lon="17.7360285">
        <ele>23.209</ele>
        <time>2012-08-05T16:42:06Z</time>
      </trkpt>
      <trkpt lat="59.9746069" lon="17.736791">
        <ele>23.6896</ele>
        <time>2012-08-05T16:42:12Z</time>
      </trkpt>
      <trkpt lat="59.9748278" lon="17.7374044">
        <ele>22.7283</ele>
        <time>2012-08-05T16:42:18Z</time>
      </trkpt>
      <trkpt lat="59.9750898" lon="17.7378946">
        <ele>23.6896</ele>
        <time>2012-08-05T16:42:24Z</time>
      </trkpt>
      <trkpt lat="59.9754291" lon="17.7384603">
        <ele>23.209</ele>
        <time>2012-08-05T16:42:31Z</time>
      </trkpt>
      <trkpt lat="59.9757797" lon="17.7390693">
        <ele>23.209</ele>
        <time>2012-08-05T16:42:38Z</time>
      </trkpt>
      <trkpt lat="59.9760026" lon="17.7394925">
        <ele>18.4023</ele>
        <time>2012-08-05T16:42:44Z</time>
      </trkpt>
      <trkpt lat="59.9761062" lon="17.7396387">
        <ele>17.4412</ele>
        <time>2012-08-05T16:42:47Z</time>
      </trkpt>
      <trkpt lat="59.9761614" lon="17.7397039">
        <ele>16.4797</ele>
        <time>2012-08-05T16:42:49Z</time>
      </trkpt>
      <trkpt lat="59.9763376" lon="17.7397521">
        <ele>15.5184</ele>
        <time>2012-08-05T16:42:55Z</time>
      </trkpt>
      <trkpt lat="59.9765117" lon="17.7395636">
        <ele>15.0377</ele>
        <time>2012-08-05T16:43:00Z</time>
      </trkpt>
      <trkpt lat="59.976647" lon="17.7394874">
        <ele>15.0377</ele>
        <time>2012-08-05T16:43:03Z</time>
      </trkpt>
      <trkpt lat="59.9767869" lon="17.7394299">
        <ele>16.4797</ele>
        <time>2012-08-05T16:43:06Z</time>
      </trkpt>
      <trkpt lat="59.9768766" lon="17.7393972">
        <ele>17.9218</ele>
        <time>2012-08-05T16:43:08Z</time>
      </trkpt>
      <trkpt lat="59.9772259" lon="17.7392383">
        <ele>21.2864</ele>
        <time>2012-08-05T16:43:16Z</time>
      </trkpt>
      <trkpt lat="59.977439" lon="17.7391096">
        <ele>21.2864</ele>
        <time>2012-08-05T16:43:21Z</time>
      </trkpt>
      <trkpt lat="59.9776079" lon="17.7390526">
        <ele>26.0929</ele>
        <time>2012-08-05T16:43:25Z</time>
      </trkpt>
      <trkpt lat="59.9779362" lon="17.7391491">
        <ele>31.3801</ele>
        <time>2012-08-05T16:43:34Z</time>
      </trkpt>
      <trkpt lat="59.9782373" lon="17.7392823">
        <ele>32.8223</ele>
        <time>2012-08-05T16:43:41Z</time>
      </trkpt>
      <trkpt lat="59.9784901" lon="17.7393433">
        <ele>33.7834</ele>
        <time>2012-08-05T16:43:46Z</time>
      </trkpt>
      <trkpt lat="59.9787909" lon="17.7393513">
        <ele>33.3029</ele>
        <time>2012-08-05T16:43:51Z</time>
      </trkpt>
      <trkpt lat="59.9789106" lon="17.7394792">
        <ele>34.2642</ele>
        <time>2012-08-05T16:43:55Z</time>
      </trkpt>
      <trkpt lat="59.9789067" lon="17.7395843">
        <ele>33.7834</ele>
        <time>2012-08-05T16:43:57Z</time>
      </trkpt>
      <trkpt lat="59.9788992" lon="17.7396158">
        <ele>32.8223</ele>
        <time>2012-08-05T16:44:00Z</time>
      </trkpt>
    </trkseg>
  </trk>
</gpx>